GFSSE_925_thetae_000.txt.gz
Theta_e
338 343 346 341 341 339 340 339 337 334 333 335 335 337 338 337 337 336 335 334 334 331 327 328 332 334 337 337 337 334 332 331 329 326 325 320 320 326 331 333 328 332 330
337 341 345 342 342 341 342 339 337 336 335 335 334 333 333 331 334 335 335 334 332 331 328 324 329 330 331 333 332 332 332 333 332 327 324 322 320 323 330 332 331 328 330
337 340 343 346 343 344 342 340 337 335 336 333 332 333 331 329 331 333 334 333 331 330 326 326 327 326 328 329 330 330 332 332 331 329 325 322 323 325 328 328 330 327 330
337 342 344 346 344 343 342 340 338 336 334 332 330 330 330 330 334 333 333 331 330 328 327 324 323 322 322 322 324 328 328 329 328 328 325 324 322 323 326 330 329 328 330
339 344 344 343 344 342 342 340 339 337 333 331 331 331 331 333 334 333 329 329 328 328 326 323 322 324 327 328 331 330 330 328 326 322 319 322 324 324 324 328 328 330 328
341 345 344 343 342 341 342 341 339 337 335 332 332 330 330 332 334 334 333 330 328 328 325 324 325 328 329 330 331 332 333 331 328 326 324 322 321 318 321 329 329 328 328
341 344 342 340 338 341 341 340 339 337 335 333 331 330 329 332 332 334 333 331 329 329 328 330 331 331 331 331 330 330 332 330 330 328 325 324 325 324 326 327 328 328 328
338 342 341 341 339 340 340 339 337 337 336 333 331 332 333 329 330 334 334 333 331 331 333 332 332 332 332 331 332 332 328 326 325 324 324 325 325 326 331 331 330 330 329
336 341 341 342 340 339 340 337 334 335 337 333 333 334 333 329 328 331 333 334 334 332 328 329 332 332 332 331 330 330 329 328 328 328 327 328 328 328 332 333 333 333 332
339 340 341 343 340 339 341 336 333 332 334 332 331 330 328 326 327 326 328 332 328 327 328 330 331 332 332 331 330 330 330 329 329 328 328 329 328 330 334 334 335 335 335
342 340 342 344 339 340 339 337 333 330 333 334 331 331 328 324 322 327 327 328 328 329 330 331 332 332 331 330 329 328 326 323 320 321 324 325 327 330 332 333 334 335 334
343 344 346 347 342 340 339 337 334 332 333 333 332 330 327 323 326 329 329 328 329 330 331 332 332 331 329 325 322 318 315 314 314 314 317 321 322 326 327 327 330 332 332
341 345 348 348 345 341 339 338 335 334 334 333 333 330 328 327 328 328 330 331 331 332 332 332 328 320 316 315 313 311 309 309 310 310 311 313 314 320 324 326 327 328 331
338 341 343 345 344 341 339 337 335 335 334 333 331 330 331 330 330 331 332 331 331 332 329 317 315 314 311 309 307 306 305 305 305 306 310 310 313 319 322 324 326 327 325
334 336 340 343 342 340 340 335 335 335 334 333 332 331 332 331 331 333 329 328 324 317 315 313 310 308 306 303 302 301 301 301 303 307 306 308 308 310 320 318 318 318 319
324 326 332 339 341 339 337 335 335 335 334 334 333 334 331 330 332 330 322 316 313 311 309 306 302 301 300 300 300 300 300 300 303 300 304 303 304 304 310 311 311 312 315
323 321 323 332 340 340 338 338 338 337 336 334 331 331 331 332 328 324 316 311 307 304 301 300 299 299 299 299 299 299 298 299 298 300 300 300 300 300 301 303 306 308 310
321 321 322 329 339 340 340 340 339 336 335 331 332 331 330 324 320 315 309 304 302 301 301 300 298 298 297 296 297 297 296 300 298 298 299 298 298 298 298 297 296 299 304
321 324 327 333 338 339 340 338 335 333 332 332 330 327 322 322 312 306 304 303 302 301 299 297 296 294 295 294 295 296 296 300 299 298 297 297 296 297 297 296 295 294 295
324 325 331 336 338 339 337 334 330 327 326 324 320 318 317 309 304 306 305 303 300 298 296 295 294 293 293 293 294 295 297 301 300 299 297 296 295 296 295 294 294 293 294
327 330 335 337 338 337 332 326 321 321 319 317 313 310 306 304 305 305 304 301 298 296 294 293 293 292 292 293 293 294 297 297 297 298 294 295 295 295 293 293 292 291 291
326 331 336 337 335 330 328 328 327 318 312 310 305 303 303 304 304 304 301 299 296 294 293 292 292 291 291 291 291 292 292 293 294 294 294 294 293 294 293 292 291 290 292
324 328 335 334 327 324 329 323 319 310 304 301 301 301 302 303 302 301 299 296 295 293 292 291 290 290 291 290 292 290 289 290 291 293 293 293 292 291 291 290 289 290 291
324 325 330 328 322 328 327 324 321 306 301 300 300 300 300 300 299 298 296 295 293 292 291 290 290 290 289 289 290 289 289 290 289 289 291 289 290 288 289 288 289 289 289
324 324 325 321 322 324 323 326 314 305 303 300 300 299 299 297 296 295 295 293 292 291 290 290 289 289 289 288 288 287 288 288 289 287 286 287 287 287 287 287 287 288 289
323 321 320 319 318 317 319 318 320 311 301 299 298 298 297 296 295 294 293 292 291 290 289 289 289 289 289 288 287 287 287 287 287 286 285 286 286 286 286 286 287 287 289

GFSSE_925_thetae_003.txt.gz
Theta_e
338 343 345 342 340 339 339 339 337 335 333 334 336 339 335 336 337 336 336 335 334 332 330 330 333 334 337 337 336 335 333 332 331 328 325 323 320 322 331 331 332 332 331
338 343 345 342 340 341 341 340 336 337 335 335 338 336 333 335 335 335 336 334 333 330 328 327 331 331 332 333 333 333 333 334 331 329 326 323 322 324 327 331 331 330 328
338 344 346 343 343 343 342 341 338 338 335 334 337 333 329 330 327 332 334 333 331 330 328 327 328 327 326 327 328 328 330 332 331 328 326 323 322 325 331 328 331 328 327
338 344 345 345 343 342 342 341 338 338 337 333 332 331 329 331 332 333 333 331 330 330 327 326 325 328 327 326 326 326 328 328 327 325 324 322 322 323 327 332 328 328 328
338 343 345 347 344 343 341 340 339 338 335 333 332 333 332 333 332 333 330 329 329 328 324 324 322 326 331 331 332 333 332 331 327 324 320 317 319 320 323 329 331 330 328
337 343 345 348 345 342 341 340 339 338 335 333 333 331 331 333 335 336 331 331 329 328 325 325 327 331 331 332 331 331 330 330 329 329 326 324 323 322 321 325 328 330 329
339 345 344 345 344 342 342 341 339 338 337 334 332 330 330 333 334 335 334 331 330 329 329 331 331 331 331 331 332 332 330 326 328 327 323 323 324 324 330 330 329 329 330
339 345 343 344 339 343 342 340 338 337 336 335 331 331 332 331 332 335 334 332 332 331 332 331 330 332 332 333 333 331 329 328 329 327 326 326 326 327 331 332 331 332 331
338 341 341 342 338 341 341 340 337 336 336 333 331 334 332 330 330 332 333 334 334 333 328 329 332 333 332 332 331 330 330 329 329 328 327 327 328 328 333 333 334 335 334
338 340 340 342 339 339 341 340 336 333 336 333 332 332 330 327 328 327 328 333 330 327 329 332 333 333 332 331 330 329 328 326 325 323 323 326 326 327 333 334 335 335 335
339 341 343 342 341 339 341 339 336 331 334 333 332 330 329 325 323 326 327 327 328 330 332 332 332 332 331 329 326 323 320 317 315 314 316 319 324 327 331 331 331 332 335
342 342 344 345 343 340 340 339 336 331 332 334 332 330 326 323 324 329 328 328 330 331 332 332 331 328 323 319 316 314 311 310 310 311 311 312 315 322 326 327 327 329 330
341 342 341 341 341 341 340 339 337 333 333 332 332 330 327 327 328 328 330 332 332 333 331 330 325 319 316 313 309 307 306 306 305 306 309 310 315 322 324 325 327 330 328
337 340 341 341 341 342 340 339 337 334 334 333 332 329 329 329 330 331 332 330 331 330 328 319 315 311 308 305 303 302 302 302 302 306 307 310 313 320 324 323 322 322 323
333 336 339 341 343 344 341 339 338 334 334 333 331 329 332 331 332 333 328 325 319 316 314 311 307 303 301 300 300 300 300 300 303 304 305 307 307 315 316 317 316 317 321
329 331 334 339 342 344 340 339 336 335 335 333 331 332 332 331 332 328 322 316 312 309 304 301 300 299 299 299 298 298 298 299 300 301 303 303 302 303 308 310 311 314 314
320 321 323 330 338 342 340 339 335 335 335 333 333 334 332 331 330 323 318 311 304 301 300 300 298 297 297 297 297 297 296 298 298 299 300 300 299 300 300 301 304 306 308
321 320 320 322 329 340 340 337 335 336 335 335 333 332 331 330 323 316 310 303 302 301 300 298 296 295 295 296 297 296 295 298 297 298 298 297 297 297 297 296 295 296 301
321 320 320 325 330 338 340 337 337 338 336 334 331 332 327 324 316 308 304 303 301 300 298 296 294 293 294 294 295 295 295 298 297 296 296 296 296 296 296 295 294 293 293
319 320 321 329 333 338 338 338 337 334 332 330 330 324 319 313 305 305 305 302 300 299 297 295 293 292 292 292 293 294 298 300 299 299 297 294 295 295 294 293 293 292 292
320 323 326 332 334 337 336 332 328 326 324 323 318 313 309 303 305 306 304 301 299 298 294 293 293 292 291 291 293 294 295 295 297 297 294 294 293 293 293 293 292 292 292
322 326 332 334 332 332 332 326 325 323 313 313 308 305 302 304 304 304 302 299 297 295 293 292 292 291 291 291 291 293 296 295 295 293 294 293 292 292 292 291 291 291 291
323 328 331 329 326 326 326 324 319 316 308 304 300 300 301 302 302 302 299 298 295 293 292 291 290 290 291 290 290 292 294 294 291 292 292 293 291 291 290 290 290 290 290
323 327 330 327 324 322 326 324 328 312 304 300 300 299 299 299 300 299 297 295 293 292 291 290 289 289 290 290 290 289 289 290 291 292 291 290 290 289 289 289 289 289 289
321 325 328 324 321 323 325 325 321 307 304 300 299 298 297 297 297 296 294 293 292 291 290 289 289 289 289 288 288 288 288 288 289 289 290 290 289 289 288 288 288 288 288
321 324 325 320 319 321 320 316 317 313 303 298 297 297 295 295 294 293 292 292 291 290 289 289 289 289 288 287 287 286 287 288 288 287 289 289 288 288 287 287 287 288 288

GFSSE_925_thetae_006.txt.gz
Theta_e
339 347 345 341 339 341 342 338 335 336 335 335 337 339 338 339 337 336 336 336 334 331 329 330 333 335 337 338 338 337 335 333 332 329 326 322 319 324 331 332 333 333 332
340 347 343 342 340 343 341 338 335 335 334 336 340 337 336 335 335 335 334 334 333 330 328 329 332 332 333 333 333 333 335 334 332 329 325 324 323 324 329 329 330 335 327
342 347 347 342 341 342 342 338 337 336 333 339 335 330 326 327 328 331 334 331 330 330 328 329 329 327 327 324 327 328 329 330 330 327 322 326 325 324 330 331 331 330 327
342 348 348 343 343 342 341 340 339 339 334 335 334 327 330 332 330 334 334 331 331 330 328 328 330 331 331 331 331 330 329 326 324 320 323 323 325 322 327 330 330 331 329
343 347 348 345 343 342 341 340 339 338 335 332 329 331 333 333 335 335 331 331 330 325 324 326 328 331 331 331 332 330 332 331 329 328 327 325 325 323 320 328 331 332 333
342 347 349 345 344 342 341 339 339 337 334 333 333 332 333 334 335 334 331 331 329 328 326 328 330 330 330 331 333 331 330 329 327 329 328 328 328 326 327 329 327 329 331
343 347 350 345 345 343 341 339 338 336 335 333 331 330 332 335 335 335 335 331 330 330 330 331 330 332 332 332 334 333 331 328 330 330 330 329 329 326 331 331 332 331 330
344 346 348 346 345 341 342 340 338 334 336 332 330 331 334 333 333 334 334 331 332 332 332 327 331 332 333 333 333 332 330 329 332 332 331 330 330 328 332 332 331 332 334
344 345 346 347 344 340 342 340 337 333 336 330 329 330 332 331 330 334 335 334 335 333 326 331 333 334 333 332 330 329 328 327 329 330 329 328 329 327 332 333 334 336 336
343 344 344 344 342 345 342 340 336 333 333 329 331 332 331 329 328 327 332 335 331 327 330 333 333 332 332 330 329 327 324 322 321 321 322 325 322 326 332 333 333 333 334
342 343 343 343 343 345 344 341 336 333 336 331 331 330 328 330 330 331 327 326 327 330 332 332 332 330 328 322 320 318 317 317 316 316 316 315 314 324 327 328 328 328 330
342 343 343 344 344 343 343 341 339 336 337 336 334 333 330 328 327 331 328 327 330 331 332 331 330 324 318 317 315 313 312 311 310 310 312 310 312 322 324 325 327 329 331
341 342 342 344 344 343 343 341 339 336 336 336 334 332 328 328 330 330 332 332 334 331 325 322 318 314 311 309 308 308 307 306 307 309 312 310 314 321 324 327 325 325 326
340 341 342 343 343 342 343 341 339 337 336 335 334 332 329 329 331 332 333 331 326 324 318 315 313 308 306 304 303 304 305 304 307 308 310 310 318 321 322 321 320 321 323
336 339 341 342 344 342 343 341 339 337 336 336 335 331 331 332 333 329 324 325 316 313 311 309 306 304 303 302 302 302 303 303 304 305 308 305 311 314 315 316 317 317 317
332 336 339 341 343 343 342 342 339 337 336 337 334 332 333 333 331 331 326 320 310 307 303 303 302 302 301 301 301 300 301 302 302 303 305 305 301 303 308 309 309 310 311
326 330 334 339 341 342 341 342 340 338 337 336 334 334 334 331 330 327 319 310 305 303 302 302 301 301 300 300 300 300 300 301 301 302 303 302 302 300 299 300 301 303 304
323 323 324 331 339 340 343 342 340 338 337 336 335 334 332 330 329 322 312 304 303 302 301 300 299 300 300 300 300 300 300 300 300 300 300 300 300 300 299 296 295 294 295
323 323 322 324 332 338 340 341 339 338 336 332 333 333 331 330 323 312 305 303 301 300 299 298 298 298 298 298 298 298 300 301 300 299 299 299 299 298 298 297 295 295 294
322 322 322 326 331 336 338 337 336 332 327 333 330 329 327 321 310 305 303 301 300 300 298 298 298 297 296 296 297 298 301 303 300 301 300 298 297 296 297 296 295 295 294
322 323 324 328 334 335 334 329 325 323 327 327 327 324 319 311 304 304 302 300 300 299 297 297 297 296 296 295 297 299 299 298 302 300 297 297 296 296 295 295 295 294 294
322 325 327 331 333 334 328 330 329 322 317 316 320 312 307 303 304 304 302 300 299 298 297 296 296 296 295 294 295 297 300 300 299 297 297 296 295 294 294 293 294 293 293
322 325 329 332 332 331 329 328 322 313 309 308 305 302 302 302 301 302 301 299 298 297 296 295 294 294 295 294 293 295 298 299 296 297 296 296 294 294 293 293 292 292 292
321 325 330 332 330 329 326 320 316 319 312 306 303 302 299 300 299 299 298 297 297 295 295 293 293 293 293 294 294 292 292 293 295 297 296 295 293 293 293 292 292 291 291
320 326 331 329 329 327 320 320 322 320 316 303 301 298 298 298 297 296 296 296 295 294 293 293 292 292 292 292 292 292 292 292 292 294 295 295 293 293 292 291 290 291 290
319 326 328 328 328 321 319 322 324 314 304 298 297 297 297 297 295 294 294 294 293 293 292 292 292 291 291 291 291 290 291 292 292 292 293 293 293 292 291 290 290 290 290

GFSSE_925_thetae_009.txt.gz
Theta_e
342 348 345 342 342 339 342 341 340 338 336 336 340 341 341 340 339 338 338 335 332 331 329 331 334 336 337 338 338 337 336 335 332 330 325 323 319 324 332 333 333 335 335
344 349 344 341 338 343 342 340 336 335 336 337 339 339 340 338 338 338 335 334 331 330 329 330 331 332 332 333 333 333 333 333 332 327 319 327 327 326 332 330 330 334 331
346 347 346 342 340 342 342 338 336 336 338 338 333 331 332 334 336 335 332 331 331 329 329 330 330 329 330 329 328 328 329 328 324 318 322 327 326 322 330 331 332 331 329
346 347 347 342 341 340 341 340 339 335 337 336 333 328 332 333 336 334 333 331 330 328 328 329 330 331 332 332 331 331 331 330 325 324 325 322 324 324 320 330 332 331 332
345 347 347 342 342 341 340 339 339 337 332 333 329 333 333 334 336 334 332 332 328 324 327 328 330 331 330 331 331 329 330 330 327 331 329 329 327 328 321 326 328 330 333
345 347 348 343 343 341 340 338 339 337 332 331 333 335 334 334 335 334 332 331 329 327 327 330 331 331 331 332 333 333 327 326 327 330 329 329 330 329 327 332 331 329 330
344 349 348 344 343 342 340 338 337 336 334 334 332 333 336 338 335 335 335 331 330 330 331 328 331 333 331 333 334 332 330 329 331 332 331 331 332 329 330 332 332 333 333
343 348 348 345 344 342 340 339 337 334 335 331 333 334 336 333 334 334 335 331 332 333 330 330 333 333 334 333 332 330 329 328 331 332 332 331 331 329 332 332 333 335 335
342 345 349 348 346 341 341 340 337 332 333 331 333 334 334 331 332 336 335 334 335 333 328 333 334 333 332 331 329 328 325 323 326 326 325 326 328 325 332 333 334 335 335
342 343 346 348 346 344 343 340 337 331 330 327 330 331 331 330 329 331 334 335 332 327 331 332 332 331 330 327 324 321 320 321 321 319 319 322 315 324 329 330 330 329 330
342 343 343 343 342 345 345 340 337 332 332 329 330 330 328 332 332 332 333 328 327 329 331 332 331 328 322 320 318 315 315 316 314 314 314 315 311 321 323 325 327 328 330
341 342 342 342 341 344 344 341 339 337 337 334 333 330 330 329 330 333 328 326 329 331 331 329 326 320 318 317 315 312 311 310 310 310 314 313 313 320 322 328 328 327 329
340 341 342 343 342 342 343 341 339 337 336 335 334 333 328 327 328 330 331 331 333 331 327 323 320 316 312 309 307 308 308 307 308 309 313 309 321 324 326 324 323 325 325
338 340 343 343 344 343 342 342 339 337 336 336 334 332 328 329 330 330 332 332 328 324 321 317 315 310 307 306 305 305 306 305 307 307 311 308 317 320 320 320 322 320 320
335 339 342 343 344 343 342 341 339 338 336 335 335 333 329 329 331 332 328 324 321 317 314 311 307 306 306 304 304 303 304 304 305 306 309 306 310 313 314 314 314 314 315
332 336 339 342 343 343 343 341 339 338 336 336 336 332 331 332 332 325 321 318 314 310 307 306 305 305 304 303 302 302 303 303 303 305 307 306 302 303 306 307 307 307 307
328 332 336 339 342 342 342 342 340 339 337 336 335 332 333 333 326 320 321 315 309 306 306 304 303 303 303 302 302 302 302 302 302 303 304 304 304 302 299 298 298 299 300
326 327 331 335 339 342 341 341 341 339 337 336 335 333 335 329 321 321 313 310 307 305 304 303 301 302 302 301 301 300 301 301 302 302 302 302 301 301 301 299 296 295 297
326 325 325 328 335 340 339 341 341 338 336 337 335 336 330 321 327 324 313 307 305 303 303 302 301 300 300 299 299 299 302 302 302 301 301 301 300 299 299 298 297 296 296
325 325 325 324 327 336 340 342 341 338 337 336 332 326 321 325 320 310 307 305 304 303 302 302 301 300 298 297 299 300 302 303 302 302 303 299 299 298 298 297 296 296 296
324 324 324 324 327 331 338 340 339 337 334 328 322 320 319 316 310 307 305 304 304 303 301 301 301 299 298 297 299 301 301 300 303 304 299 299 298 297 296 296 295 295 295
324 324 325 326 328 333 339 337 336 330 325 320 313 316 318 313 307 305 304 303 302 301 301 300 299 299 298 296 297 300 303 302 300 299 299 298 297 296 296 295 295 294 294
323 323 325 327 331 336 336 332 329 321 316 309 307 309 309 307 304 304 303 302 302 301 300 298 297 297 297 297 295 297 300 302 297 299 298 297 297 296 295 295 294 294 293
322 323 324 328 333 335 332 332 328 320 314 310 304 305 302 303 302 302 301 301 300 299 298 296 296 295 296 296 296 295 294 295 296 297 298 297 296 295 295 294 293 292 292
320 323 325 329 333 333 331 330 327 321 321 307 302 301 301 301 301 300 300 299 298 298 297 296 295 295 294 295 295 294 294 295 295 295 296 297 295 295 294 294 293 292 292
317 322 325 330 333 332 328 327 324 324 314 303 300 299 299 299 299 299 298 298 297 296 296 295 294 294 294 293 293 293 293 294 294 294 295 294 294 294 293 292 292 291 291

GFSSE_925_thetae_012.txt.gz
Theta_e
347 343 342 340 340 339 340 341 338 333 336 340 341 341 341 340 339 338 336 333 332 330 331 333 335 337 337 338 337 336 336 332 331 328 319 325 323 329 332 333 332 335 334
347 345 343 343 340 341 341 338 335 333 336 339 340 342 341 339 339 336 335 332 330 330 330 331 332 332 333 333 332 332 331 329 325 317 320 327 327 322 332 333 329 331 330
348 347 343 342 337 341 340 337 335 335 340 336 335 338 337 338 335 332 331 331 329 329 331 331 332 333 333 332 329 326 325 324 317 320 324 326 327 324 324 331 332 330 330
348 346 343 339 339 341 339 336 334 339 337 332 332 333 335 337 334 333 331 329 328 328 329 330 330 330 328 327 331 333 333 329 325 328 327 324 325 325 322 325 330 332 333
347 346 343 341 340 340 339 339 336 335 337 334 332 334 335 337 335 333 333 330 326 328 327 330 330 330 328 325 328 328 327 325 330 330 329 329 327 330 326 329 325 328 331
347 347 344 342 341 340 338 337 339 332 333 333 335 335 333 336 336 333 333 329 328 327 331 334 334 333 329 332 334 331 328 329 331 331 330 330 330 330 328 333 332 332 330
348 347 343 342 341 340 339 336 335 330 333 334 333 335 338 335 333 334 333 330 330 331 332 332 334 332 333 334 332 330 328 328 331 332 331 331 332 330 332 332 332 334 335
350 347 343 343 342 340 338 337 335 330 330 334 332 335 335 332 334 336 333 330 332 332 328 333 332 333 332 331 329 327 325 323 329 327 329 329 329 329 332 332 333 336 335
350 349 344 343 343 341 339 338 336 333 329 332 333 335 333 331 336 338 335 332 334 329 332 332 332 331 330 329 326 323 321 321 320 320 322 324 321 322 329 331 331 331 331
345 349 346 345 344 341 340 339 336 333 327 330 332 332 332 330 332 335 335 335 333 328 331 331 331 328 323 320 318 314 317 317 316 316 315 316 315 320 324 326 327 328 329
343 348 348 347 345 342 342 339 336 330 327 326 330 330 330 330 330 332 335 333 326 328 331 330 329 322 319 319 315 312 312 311 311 311 312 313 313 320 322 327 329 329 331
341 343 347 347 346 343 343 339 336 331 329 327 329 328 326 332 333 333 330 325 328 331 328 325 319 317 316 314 310 309 309 308 308 309 312 312 316 323 327 326 326 328 327
341 341 342 342 342 342 343 340 338 337 335 333 333 330 330 329 330 332 324 329 331 328 325 321 316 314 309 306 306 305 306 306 306 308 310 309 319 324 323 324 323 323 324
340 341 341 342 343 344 343 341 339 337 335 334 334 333 328 327 326 330 332 332 327 324 320 318 312 307 306 305 305 304 304 304 305 306 309 308 317 319 319 319 318 318 318
338 340 342 342 343 342 341 340 339 337 336 335 334 333 328 329 330 330 331 326 320 317 314 308 307 306 305 304 303 303 302 303 304 305 307 307 309 313 313 312 312 311 311
332 338 342 342 343 344 342 340 339 336 337 335 335 333 328 329 331 328 325 319 316 312 308 306 304 304 303 302 302 302 302 302 303 304 306 306 304 302 301 305 306 305 306
327 334 339 342 343 343 343 341 339 337 338 335 335 333 330 331 330 329 322 314 310 307 306 305 303 303 302 302 302 302 301 302 302 303 304 303 302 301 301 300 298 302 302
326 329 335 340 342 342 341 341 339 338 338 335 335 332 332 332 331 328 318 311 309 306 304 303 303 302 301 300 299 299 300 301 302 302 302 301 301 300 300 299 298 299 299
326 326 332 337 341 342 341 341 340 338 338 336 335 333 333 331 328 326 313 310 306 305 304 302 302 301 299 298 298 299 301 302 302 301 301 301 300 299 298 298 297 296 298
323 325 326 332 337 342 341 340 339 339 337 336 335 333 332 329 325 319 310 306 305 304 303 302 301 300 298 297 299 300 301 303 301 301 303 299 299 298 297 296 295 295 295
322 323 325 325 330 341 340 339 341 339 336 337 335 334 332 326 318 311 307 305 305 305 303 302 301 299 298 296 298 300 301 301 304 303 300 299 298 297 296 296 295 295 294
322 323 324 325 325 331 340 338 341 338 335 333 329 324 324 319 310 310 306 305 305 304 303 302 300 299 297 296 296 298 297 300 299 300 299 298 297 296 296 295 295 294 293
322 322 324 324 325 325 337 340 339 334 327 321 321 318 313 310 309 307 305 305 304 305 303 300 299 297 297 296 295 296 295 296 294 298 298 297 297 296 295 295 295 294 293
321 322 322 324 325 328 339 337 334 327 318 315 314 310 307 307 306 305 304 304 304 303 301 299 297 296 296 296 296 295 294 294 293 293 296 297 296 295 295 294 294 293 293
315 321 321 323 327 335 338 333 329 321 320 312 309 306 304 304 304 304 304 302 302 301 299 298 297 295 294 295 294 294 294 294 294 293 292 293 294 293 293 294 293 293 292
315 315 322 323 329 335 336 332 327 321 315 308 305 301 302 302 302 301 301 301 300 300 298 297 296 295 294 293 293 293 293 293 293 292 291 291 291 292 292 292 292 292 291

GFSSE_925_thetae_015.txt.gz
Theta_e
344 342 342 345 340 339 340 338 336 336 341 342 342 341 341 340 339 337 334 333 331 333 333 335 337 339 338 338 338 337 333 328 329 318 319 325 324 331 332 333 331 332 331
342 343 343 344 340 339 336 332 331 329 337 340 341 340 340 339 337 335 333 331 331 331 331 333 334 335 335 334 332 329 329 327 315 319 326 327 325 328 332 332 330 330 329
343 344 342 342 338 336 333 331 328 337 338 340 341 341 340 337 335 332 330 329 330 331 332 333 334 334 333 330 327 325 323 316 321 324 325 326 326 327 324 329 330 329 330
343 344 342 340 336 334 333 331 338 338 334 334 337 338 337 334 332 331 329 329 329 330 330 330 330 327 324 328 331 333 325 326 328 328 325 324 327 328 325 325 330 332 332
343 343 341 337 337 335 336 332 339 337 333 331 334 336 337 334 334 334 330 329 330 331 333 333 330 328 325 327 327 325 323 328 329 329 328 328 326 330 328 329 324 324 328
344 342 339 339 338 337 335 334 334 338 334 334 334 336 337 336 334 335 330 327 326 329 333 334 332 329 331 332 330 328 328 330 331 330 330 330 330 332 331 332 331 332 333
345 343 341 341 340 338 335 336 329 334 334 336 336 336 337 337 335 335 330 329 328 329 332 334 333 332 333 331 329 327 325 327 331 330 331 331 331 331 332 331 331 335 334
346 344 341 341 340 339 336 334 327 332 335 334 336 337 335 333 336 336 331 331 332 326 332 331 333 333 331 329 326 323 321 325 322 323 327 329 327 328 331 329 332 333 331
346 343 341 341 341 338 337 335 330 327 333 333 333 333 332 332 335 337 332 332 332 324 332 331 331 330 327 323 319 319 320 319 318 320 323 321 318 323 326 328 329 329 329
346 345 343 342 341 339 338 336 335 326 328 331 331 332 331 333 337 336 333 334 332 325 330 331 329 325 320 318 313 313 314 313 311 314 314 314 314 322 324 326 328 330 331
348 345 343 342 342 340 339 338 335 329 325 330 331 331 331 329 334 335 334 334 328 327 330 329 325 318 318 316 311 310 310 310 309 310 311 312 317 320 329 328 329 330 329
347 345 343 343 343 341 340 338 335 330 325 328 330 329 329 330 330 332 334 330 325 330 328 321 317 316 314 310 307 307 307 307 307 310 311 311 324 328 325 327 326 325 327
343 347 346 344 344 342 341 339 335 331 326 325 326 327 327 330 331 333 329 325 330 326 323 319 315 311 306 306 305 304 305 305 305 308 308 310 323 323 322 322 322 322 322
340 342 347 346 345 343 341 340 337 334 332 328 329 327 328 330 332 331 324 331 328 325 319 314 309 307 306 305 304 303 303 304 304 308 308 308 318 319 319 318 316 316 315
340 341 341 344 344 343 342 340 338 337 334 332 334 333 330 328 326 329 331 329 322 318 315 313 308 306 305 303 302 302 302 303 304 306 307 305 310 312 312 311 310 310 309
336 340 341 341 342 342 342 340 339 338 336 334 335 333 328 327 329 330 327 322 320 317 312 308 305 304 303 302 302 302 302 302 303 305 305 304 302 301 305 305 305 305 305
326 339 340 341 342 342 341 340 338 337 337 334 335 333 330 328 329 328 326 320 317 312 309 305 304 303 302 302 301 301 301 301 302 304 303 303 302 301 301 302 302 302 303
324 333 340 341 342 342 342 341 339 337 336 335 334 333 330 329 330 328 324 319 312 309 306 306 305 303 301 299 299 299 299 301 302 302 302 301 301 300 299 299 299 300 301
323 324 340 341 341 342 343 342 339 337 337 337 334 334 330 330 329 329 325 316 311 306 305 306 304 302 299 298 299 299 302 302 301 301 301 301 300 298 297 297 296 295 297
322 322 325 341 341 341 342 341 340 338 337 337 335 333 330 331 329 328 320 313 308 306 306 305 304 301 298 298 299 300 301 303 301 301 301 299 298 297 296 296 296 295 295
321 321 322 333 341 341 341 339 340 339 336 336 334 333 331 331 328 324 315 310 306 307 307 305 302 300 298 297 298 300 300 304 303 302 300 298 297 297 296 296 295 295 294
319 321 321 323 339 340 340 340 339 339 337 336 334 333 332 331 325 319 315 308 306 308 306 304 302 299 297 296 297 298 296 299 299 299 298 297 297 296 295 295 295 294 294
316 320 321 322 333 340 339 339 339 337 334 331 332 330 329 325 322 316 311 307 306 308 306 303 301 300 298 296 295 296 294 296 293 297 297 296 296 295 295 294 294 294 293
314 316 321 321 323 338 339 337 338 332 327 327 330 328 326 318 311 310 307 306 306 306 305 303 300 300 298 296 295 295 294 294 292 292 296 296 295 295 294 293 293 293 292
314 314 315 320 322 324 337 336 337 330 328 323 320 319 317 307 307 307 306 305 305 304 303 302 300 298 297 295 295 294 294 294 294 292 291 293 294 293 292 292 291 291 291
312 313 313 315 320 323 333 335 335 330 324 315 312 310 307 305 305 305 304 304 304 303 301 301 299 297 296 294 293 293 293 293 292 292 289 289 290 291 291 291 290 290 290

GFSSE_925_thetae_018.txt.gz
Theta_e
344 343 344 344 343 341 341 341 342 342 342 343 342 342 341 340 338 336 334 332 334 334 335 337 340 340 339 339 338 336 329 327 324 315 324 324 330 331 332 334 331 331 331
343 343 343 343 343 341 339 336 336 338 339 342 342 341 340 339 336 335 333 332 332 331 333 336 338 337 336 335 332 330 327 323 315 325 326 325 326 331 332 329 330 330 328
342 342 343 343 341 337 335 331 332 337 338 340 341 340 340 337 335 332 330 331 331 332 333 336 336 336 334 333 328 323 318 317 323 324 324 325 325 328 329 329 329 328 330
342 343 343 341 336 333 333 336 338 339 340 341 341 340 337 334 331 329 329 330 330 331 330 331 331 330 330 327 325 323 324 326 328 327 324 324 326 328 326 322 330 332 330
343 343 342 339 335 334 332 340 338 335 337 338 339 337 335 332 331 329 329 329 330 332 332 332 330 326 325 325 324 323 327 328 329 328 327 327 327 331 330 329 326 324 327
343 342 341 337 335 334 332 340 337 334 334 335 336 337 335 334 334 331 330 330 331 333 333 331 329 330 331 330 329 328 328 330 330 329 328 328 330 333 333 332 331 331 332
343 342 339 337 336 334 332 337 337 335 334 336 336 337 337 335 335 333 328 328 332 334 335 334 331 332 331 329 327 325 325 328 327 330 329 330 331 332 332 330 330 334 334
342 340 338 339 338 335 335 331 335 334 336 336 336 337 337 336 336 335 330 329 332 332 333 334 334 333 330 326 323 321 324 322 321 326 330 329 327 328 330 330 330 331 330
342 340 340 340 339 337 335 331 330 333 336 335 335 336 335 335 336 336 332 333 329 332 333 333 331 329 324 316 314 319 320 318 318 322 322 319 319 323 325 326 328 329 330
344 341 341 341 339 337 335 330 328 333 333 333 334 332 331 333 335 335 333 334 329 332 330 330 328 322 319 313 312 313 312 311 313 315 314 313 315 321 326 328 330 329 329
344 341 341 341 340 338 336 334 330 327 331 331 331 332 330 335 337 336 333 334 329 327 330 329 323 319 319 315 310 310 310 309 309 310 312 315 323 328 328 329 330 330 329
344 343 341 341 341 339 337 336 334 328 328 330 330 332 330 332 336 335 334 333 326 329 329 323 318 316 314 310 307 306 307 306 307 310 310 318 328 325 326 324 324 325 325
345 344 342 341 341 340 339 337 335 330 326 329 330 330 329 329 331 333 333 330 326 329 321 317 315 311 306 305 305 304 304 305 306 308 311 320 324 323 321 320 321 320 320
347 346 343 342 342 341 339 338 336 332 327 325 328 329 329 331 331 332 331 325 329 325 322 318 311 307 305 305 303 303 303 303 306 308 309 314 320 320 318 316 315 314 313
343 346 344 343 342 342 340 339 338 335 330 325 324 326 327 328 331 331 325 328 328 324 318 314 310 307 305 303 302 302 302 303 305 307 307 310 314 313 312 311 310 309 310
337 340 344 345 344 343 341 340 339 337 335 332 328 330 327 329 329 331 327 330 326 319 314 311 308 305 303 302 302 302 302 302 304 305 304 303 303 306 307 306 306 306 307
323 334 340 342 342 344 342 340 339 337 336 335 332 333 331 328 327 326 329 329 317 314 314 309 305 304 303 302 301 301 301 301 303 304 303 302 301 301 303 303 304 304 304
322 323 337 340 341 342 342 341 339 338 337 336 334 334 333 328 327 329 329 321 317 315 312 306 305 305 303 300 299 299 300 301 302 303 302 301 300 300 299 298 297 299 302
321 321 324 339 341 341 341 341 340 338 337 336 335 334 332 328 328 329 324 320 318 315 309 306 306 304 300 298 299 299 302 301 301 301 301 300 299 298 297 296 296 295 296
321 321 321 328 339 340 340 340 339 337 337 336 335 334 333 329 329 327 324 321 317 312 306 306 306 302 298 299 300 301 302 301 301 300 300 299 298 297 296 296 295 295 295
318 319 318 322 338 340 339 339 339 338 337 336 336 335 333 329 328 326 322 320 316 311 307 307 304 300 297 298 299 300 302 301 300 300 299 298 297 296 295 295 295 294 294
317 318 318 318 330 340 339 338 338 338 337 336 336 334 333 331 329 327 322 320 314 308 306 306 305 301 297 296 298 298 296 298 299 299 297 296 296 295 295 294 294 293 293
314 316 317 318 322 334 339 338 337 337 335 335 335 334 331 330 328 326 323 319 312 307 307 306 305 303 299 296 296 297 294 296 293 296 296 296 295 295 294 294 293 292 292
313 314 315 316 317 333 338 338 335 335 332 334 333 333 331 328 325 324 322 317 311 307 306 306 304 303 301 297 295 295 295 294 292 293 295 295 295 295 294 293 292 291 291
312 313 313 314 317 327 338 337 335 333 333 333 330 328 325 323 324 321 315 311 307 306 306 305 303 302 300 298 296 295 294 294 293 291 291 292 294 294 292 292 291 290 290
310 312 312 312 313 320 333 336 335 333 332 327 323 319 318 316 315 313 311 308 306 306 304 303 301 300 299 297 295 294 294 293 292 291 289 289 290 291 291 291 290 290 289

GFSSE_925_thetae_021.txt.gz
Theta_e
343 343 342 344 344 344 344 344 344 342 343 344 343 343 342 340 337 335 332 334 335 335 336 339 340 338 338 338 338 332 328 327 320 319 323 323 331 332 334 333 331 332 333
342 343 342 344 344 343 343 343 341 340 340 342 342 342 341 338 337 335 333 334 333 333 334 337 339 340 339 337 332 329 325 319 321 324 324 324 325 332 332 330 329 330 325
341 343 342 343 343 342 341 341 339 339 340 341 342 341 339 337 335 333 332 331 331 332 335 336 337 336 335 334 329 328 322 322 323 323 324 324 325 329 328 329 329 329 330
341 343 342 342 341 339 337 337 339 340 341 338 340 340 338 335 331 330 331 331 332 332 334 334 334 333 332 331 331 327 328 326 327 325 324 325 328 329 326 323 330 331 329
343 342 341 341 339 335 337 338 339 339 340 339 340 338 335 331 330 330 330 331 331 331 331 331 325 322 323 323 324 327 328 328 328 327 327 326 329 332 332 329 327 325 326
344 343 341 339 336 334 335 340 339 339 340 340 337 334 333 331 330 330 330 331 332 332 332 330 327 329 329 329 328 327 327 329 329 328 328 328 330 333 332 331 330 332 331
344 342 341 337 335 333 338 338 335 336 338 339 338 336 334 335 332 330 326 327 330 333 334 332 332 332 331 329 326 324 327 329 329 329 329 330 331 331 331 329 330 333 334
343 342 340 336 335 333 335 337 335 334 336 337 336 337 336 335 335 330 326 327 331 333 332 333 334 332 329 324 321 321 324 323 325 330 330 329 326 326 328 330 328 329 329
342 341 338 337 336 334 332 335 335 334 336 335 335 337 335 335 336 332 330 329 330 332 332 334 332 329 321 314 317 319 319 318 320 323 323 319 320 323 325 326 326 328 331
342 340 337 338 338 335 335 330 331 333 334 333 334 335 335 335 336 334 330 332 326 332 331 330 328 321 316 312 313 313 312 313 316 316 314 313 313 322 329 330 329 330 330
342 340 339 340 339 337 335 331 327 331 334 333 334 333 332 332 335 335 331 334 327 330 330 329 324 320 318 314 310 310 309 309 309 311 312 322 325 329 330 328 329 328 327
343 341 341 341 340 338 335 331 327 331 332 331 332 332 330 333 335 336 333 334 329 328 329 325 318 316 315 311 307 306 306 306 308 311 317 323 327 327 324 323 324 324 323
344 342 341 341 340 338 336 334 332 329 330 331 330 331 330 334 337 337 334 334 328 329 327 319 316 313 308 306 305 304 304 305 308 309 319 321 325 323 321 320 320 319 318
343 344 342 341 341 340 338 336 335 333 328 329 330 330 330 330 334 335 334 333 327 329 321 317 314 309 306 305 304 303 303 304 307 309 314 318 322 320 318 316 314 314 313
343 343 343 341 341 341 339 338 336 334 331 325 328 330 330 329 330 331 332 330 327 326 322 319 310 308 305 303 302 302 302 304 307 308 312 315 315 314 313 311 310 310 311
342 344 344 343 342 341 340 339 338 336 334 329 324 327 329 329 330 331 331 326 329 326 319 314 311 307 304 303 302 302 302 303 305 306 306 307 307 308 308 307 307 307 308
335 338 341 343 342 342 341 340 339 338 335 332 331 324 325 327 327 329 330 326 328 325 316 311 309 305 304 302 301 301 301 302 305 304 303 302 302 302 304 306 305 305 307
321 322 332 340 341 342 342 341 340 339 337 335 334 330 327 327 328 329 330 329 327 318 313 310 306 304 303 300 300 300 300 301 304 303 302 301 300 300 299 298 298 300 302
319 320 321 330 340 341 342 341 341 339 338 336 335 332 332 332 329 328 327 329 322 314 311 310 306 304 301 299 298 299 300 300 303 302 301 300 299 298 297 296 295 295 297
318 319 318 322 331 339 340 340 339 338 338 337 336 334 333 333 331 326 327 328 318 314 312 307 306 304 299 299 299 301 301 300 301 301 300 299 298 297 296 295 295 295 294
316 316 317 319 329 338 338 338 337 337 337 337 336 335 334 334 331 327 328 322 317 315 316 308 305 302 298 299 300 300 301 299 299 299 299 298 297 295 295 295 295 294 294
314 316 316 316 319 335 338 338 336 336 336 337 335 335 335 334 330 328 327 322 319 313 311 307 306 301 297 298 298 298 296 298 299 299 297 296 295 295 295 294 293 293 293
312 313 315 316 316 328 336 337 337 336 335 334 334 334 335 334 329 328 326 326 320 315 314 309 306 304 299 296 298 298 294 296 294 295 295 295 294 294 294 293 292 292 291
310 312 312 313 314 318 333 337 336 334 332 333 335 335 335 332 330 328 326 324 322 316 311 309 305 305 303 298 295 295 295 296 292 292 294 294 294 294 293 292 291 291 290
310 311 311 311 311 314 326 335 336 333 333 333 333 333 331 329 326 328 327 323 319 314 309 307 306 303 303 301 298 295 294 294 293 291 291 292 294 294 293 292 291 290 289
310 310 310 310 311 312 318 334 335 333 332 330 330 327 326 324 321 322 321 320 318 313 308 306 304 303 302 301 298 296 296 294 293 292 290 289 290 292 292 291 290 289 288

GFSSE_925_thetae_024.txt.gz
Theta_e
340 344 342 343 342 344 346 345 344 344 344 345 343 342 342 340 338 336 335 336 336 337 339 337 339 339 337 337 337 333 327 324 320 322 322 325 332 334 334 330 331 332 331
341 344 341 342 343 343 344 343 341 341 341 342 343 342 341 339 337 335 335 334 334 334 337 339 339 340 338 336 332 327 323 318 323 323 323 322 324 332 332 331 330 329 329
342 342 341 343 342 342 342 342 340 338 339 341 342 341 340 338 335 334 332 331 331 333 335 335 336 336 334 332 331 327 326 323 322 323 323 324 326 327 329 328 330 330 330
342 342 341 342 342 341 340 339 339 337 339 340 341 340 338 336 332 331 331 332 331 333 333 334 334 333 332 331 330 331 329 324 324 324 324 325 329 330 328 325 328 325 328
343 343 341 341 341 340 337 338 337 338 338 337 339 339 336 331 330 331 331 331 331 332 332 330 326 324 326 330 331 330 328 328 327 326 327 328 330 333 332 330 329 328 324
343 343 341 340 338 335 334 336 338 339 339 339 339 337 332 331 331 331 331 331 332 332 332 327 328 330 330 331 327 327 328 328 328 327 328 329 331 332 331 330 329 333 332
343 342 341 338 334 332 335 337 337 339 341 340 337 335 332 331 331 330 327 328 332 332 331 330 330 332 331 328 325 325 328 329 329 328 329 330 330 330 331 329 331 332 333
343 342 341 337 332 331 338 336 335 337 338 339 337 336 335 333 331 330 325 328 332 334 332 332 334 331 326 322 320 322 324 324 329 329 329 326 324 325 326 326 325 328 329
343 342 340 336 333 331 338 335 333 333 335 336 336 335 335 334 333 330 326 326 330 331 332 334 332 327 317 314 317 318 318 319 322 324 321 318 320 323 325 325 325 330 331
343 341 339 336 334 332 333 335 333 332 333 334 334 335 334 334 333 331 328 326 330 333 332 331 328 320 314 311 313 312 312 315 316 315 313 313 320 329 331 330 331 330 329
343 341 338 337 337 336 333 332 333 330 333 332 333 336 335 335 336 335 330 331 327 332 329 328 324 319 317 313 310 309 309 309 309 311 316 322 329 329 329 329 329 328 326
343 342 339 338 338 337 335 333 329 329 332 333 333 335 333 332 335 335 332 333 329 329 329 326 319 316 314 312 307 306 306 306 308 312 321 326 327 326 324 323 324 323 322
342 342 339 339 339 338 337 334 328 328 330 330 332 333 331 331 333 336 334 333 332 328 328 324 316 314 309 306 306 305 304 305 308 311 315 324 324 322 321 320 319 318 317
342 342 340 339 341 339 338 335 330 328 329 329 330 330 331 331 336 336 335 333 332 327 327 319 315 311 308 306 304 303 303 304 309 313 318 322 321 319 317 316 315 314 314
343 343 342 340 341 340 339 337 334 331 330 327 328 329 330 330 333 336 335 334 332 327 324 318 315 309 307 304 303 302 302 305 308 310 315 317 316 315 313 312 311 311 312
342 342 343 342 341 341 340 338 337 334 334 331 327 328 329 330 329 331 333 333 329 327 323 319 312 309 305 303 302 302 302 304 306 308 311 312 310 309 309 309 308 309 310
334 339 341 343 342 341 341 340 338 337 336 334 331 326 328 329 329 329 330 331 327 327 322 315 311 308 304 303 302 301 302 303 305 305 304 304 305 305 308 306 305 307 306
319 325 338 340 341 342 341 341 340 339 338 336 334 330 326 328 329 328 330 330 325 328 322 313 310 306 303 302 300 300 300 302 304 304 302 301 301 301 301 300 300 302 303
317 318 320 331 338 340 341 341 340 340 339 338 336 334 329 326 326 327 327 329 327 327 319 313 310 305 302 299 298 299 300 300 304 303 301 300 300 298 297 296 296 296 297
315 316 317 319 327 333 339 340 339 338 339 338 338 336 332 329 326 326 328 329 328 324 314 311 308 304 301 298 299 301 300 301 303 302 300 300 298 297 296 295 295 295 295
313 315 316 316 318 327 339 339 336 336 336 337 338 337 335 332 330 330 328 329 327 322 317 311 306 303 298 298 300 300 299 299 300 300 300 299 297 296 295 295 295 295 294
311 312 314 315 316 324 334 336 337 336 336 336 337 338 336 334 331 332 330 326 326 318 311 310 308 301 298 299 299 298 297 298 298 298 298 297 296 295 295 295 294 294 293
309 310 312 314 315 322 333 335 336 335 334 334 334 336 336 334 333 333 330 326 326 321 315 314 308 307 300 298 299 299 294 296 295 295 296 296 295 294 294 294 293 292 292
308 309 310 311 312 314 328 335 334 334 333 332 334 335 335 333 333 333 331 326 326 323 318 318 311 307 304 298 296 297 296 297 293 293 294 294 294 294 293 293 292 291 291
307 308 309 310 310 312 314 331 334 334 333 333 333 332 333 333 332 331 329 325 325 323 319 317 312 305 305 303 298 294 294 294 294 292 291 292 293 293 293 292 291 290 290
306 310 309 309 310 310 311 319 332 332 332 332 331 331 328 328 328 327 327 323 322 320 319 315 311 306 304 304 300 298 298 295 293 292 290 290 291 293 292 292 291 290 289

GFSSE_925_thetae_027.txt.gz
Theta_e
341 344 343 342 342 342 342 344 344 345 345 344 344 343 342 340 339 337 338 336 335 339 338 339 339 337 336 335 335 330 327 327 325 324 325 330 334 334 333 331 331 332 329
341 343 343 343 341 342 342 342 342 343 344 343 342 341 340 339 337 336 336 335 334 338 339 339 339 338 336 334 330 327 325 322 323 323 322 322 330 333 333 331 329 329 332
342 345 343 341 342 342 342 342 340 340 342 341 342 341 340 338 336 335 333 332 333 337 339 338 337 336 334 330 328 329 326 322 322 322 324 327 327 328 331 330 331 331 331
343 344 342 342 342 342 341 340 339 339 339 340 341 340 339 336 334 332 332 331 335 336 334 334 334 333 330 330 331 331 324 324 323 324 324 329 332 332 329 328 327 326 329
343 342 340 341 341 341 340 339 339 339 338 338 339 339 337 331 332 332 333 333 333 332 332 330 327 328 329 331 332 331 327 326 326 327 327 329 332 333 332 331 330 330 325
343 342 341 340 340 339 337 337 338 336 337 336 338 337 332 331 332 332 331 331 331 330 327 329 331 331 331 330 328 327 327 328 328 328 328 330 331 331 331 329 333 334 333
343 341 341 340 337 333 332 333 336 336 336 337 339 335 332 332 332 332 332 331 331 332 332 333 332 331 329 326 324 326 328 329 329 328 329 328 329 329 331 331 331 332 334
342 342 341 339 334 332 334 336 335 334 341 339 336 334 332 332 332 332 332 333 333 332 333 333 334 328 323 320 321 323 325 327 329 329 328 323 324 325 326 324 325 332 332
342 342 341 339 333 331 337 334 337 339 340 337 335 334 334 332 331 331 328 332 332 331 333 335 330 323 315 316 318 319 319 321 324 325 321 317 317 324 326 326 329 332 331
343 341 340 337 334 338 338 334 331 332 336 337 335 334 334 332 329 326 325 329 331 333 334 331 326 317 313 312 313 313 315 316 316 314 313 316 329 332 332 331 330 330 328
343 342 340 337 335 333 336 334 332 330 331 333 334 334 333 335 335 330 327 325 332 332 329 328 324 318 316 311 310 309 309 309 310 312 317 327 330 330 330 329 328 326 325
340 344 341 338 336 334 334 334 334 332 333 333 332 335 334 334 336 336 330 330 327 330 329 327 322 319 316 312 307 306 306 307 309 319 326 327 328 327 325 324 323 322 321
340 340 341 338 337 337 335 333 333 331 331 332 332 333 335 334 335 336 334 333 331 327 328 325 318 315 311 307 306 305 304 306 309 315 321 323 323 322 321 320 319 318 317
340 340 343 340 338 338 337 335 332 329 330 332 332 333 334 330 331 333 335 333 333 327 328 324 317 313 309 307 305 304 303 306 311 315 321 322 321 320 317 316 316 316 315
341 342 343 341 339 339 339 337 335 329 328 329 330 332 332 330 331 334 333 334 333 329 327 321 316 312 310 307 304 303 303 306 310 313 318 319 317 316 314 313 313 313 312
340 342 342 341 342 340 340 339 337 334 330 329 329 329 330 330 330 334 333 334 333 331 327 321 317 311 309 305 303 302 303 306 309 312 315 313 312 311 311 310 311 312 311
323 335 340 341 342 344 341 340 339 337 334 332 331 329 329 330 330 331 334 334 333 330 326 321 314 310 307 304 302 302 303 305 308 309 309 309 307 307 309 308 309 307 308
318 319 326 336 341 341 342 341 340 339 337 335 334 333 329 328 330 329 330 332 331 329 325 319 312 309 305 303 302 301 302 304 306 305 304 304 304 305 304 303 303 304 304
317 318 318 322 334 340 341 342 340 339 339 338 337 335 334 329 328 329 328 330 330 328 326 318 310 307 304 301 300 300 300 303 304 303 302 301 301 301 298 297 297 297 297
315 316 315 317 319 326 339 341 339 339 338 338 338 337 336 333 329 328 329 328 330 327 326 315 309 306 303 300 298 299 299 301 303 303 301 300 299 298 297 296 296 296 296
313 313 313 315 316 322 335 337 337 336 337 336 337 338 337 336 334 329 327 327 327 328 326 317 307 304 300 299 300 299 298 300 302 302 300 300 298 297 296 296 296 295 295
309 310 311 313 315 316 327 334 335 335 335 336 336 335 337 337 336 332 327 326 326 327 323 313 309 303 300 299 301 301 303 299 298 299 300 298 297 296 296 295 295 295 294
306 308 309 310 312 315 318 331 335 334 334 333 333 335 334 336 336 334 330 327 327 328 325 319 312 309 301 299 299 302 301 305 299 296 296 297 296 295 295 295 294 294 293
304 307 307 308 309 312 315 330 333 332 332 333 333 333 333 334 335 334 332 329 328 327 325 324 318 311 308 301 298 299 297 298 302 299 294 294 294 294 294 294 293 293 292
310 308 310 307 308 309 312 324 332 332 332 332 332 332 332 331 331 333 333 330 329 326 325 320 316 310 308 306 301 296 295 295 295 298 300 295 292 293 293 293 292 292 291
311 311 310 311 310 308 309 316 331 331 331 331 331 331 330 329 329 329 328 329 329 327 321 323 314 311 311 305 304 301 299 296 295 295 297 295 296 293 292 292 292 291 290

GFSSE_925_thetae_030.txt.gz
Theta_e
345 347 344 343 343 342 343 345 344 345 344 345 344 343 343 341 340 340 337 332 336 340 339 338 337 337 337 336 333 332 330 328 325 326 332 334 335 334 334 331 331 330 331
345 347 343 342 343 342 343 343 345 344 345 344 344 342 341 339 338 338 335 334 339 340 339 339 339 337 335 332 330 331 331 325 323 323 323 324 332 333 333 329 328 331 332
346 345 343 342 342 341 341 343 344 344 344 342 342 341 339 338 337 337 334 334 339 340 340 339 338 336 333 330 330 329 323 322 322 323 326 327 326 330 331 332 331 332 332
345 345 344 342 342 341 341 340 340 340 341 340 342 341 339 337 335 333 332 337 339 339 338 336 334 331 331 331 331 330 324 322 322 324 328 331 331 332 330 328 324 327 329
345 344 344 341 341 341 341 340 340 339 339 341 340 340 337 334 333 333 333 336 336 334 332 330 329 331 331 332 333 327 326 325 326 328 331 332 332 330 332 330 332 331 326
344 342 342 341 341 341 340 340 339 339 339 339 338 337 332 333 333 333 334 333 332 331 329 330 331 331 330 331 330 328 328 327 328 330 331 331 331 331 330 334 335 334 335
343 342 341 340 340 340 338 338 338 339 338 336 337 334 332 333 333 332 331 329 328 324 330 334 333 329 327 326 326 327 328 328 330 330 331 329 328 329 330 331 332 335 334
343 343 342 340 339 334 333 337 338 337 338 337 336 333 333 333 333 333 332 331 332 333 333 335 332 326 322 320 322 326 327 328 330 331 328 325 323 326 326 326 331 334 332
344 343 341 340 337 332 331 332 333 333 340 337 335 332 332 332 332 333 333 333 334 332 335 334 327 320 317 318 320 321 321 323 325 324 321 319 316 325 327 327 333 332 330
344 343 342 340 337 337 339 337 336 340 340 337 335 333 332 330 329 328 330 331 331 333 335 331 325 315 313 314 314 315 316 316 319 318 317 321 331 334 332 331 331 330 328
345 344 343 340 337 338 338 336 336 338 338 337 335 333 333 332 331 329 331 330 334 333 332 329 324 318 315 313 311 310 311 314 315 318 321 327 331 331 330 329 328 327 324
343 344 344 341 339 338 338 337 334 334 335 336 337 336 332 334 333 332 330 328 333 331 329 327 324 320 317 312 310 308 312 314 316 321 325 329 329 327 326 325 324 323 322
341 343 342 342 340 338 338 338 337 334 333 334 335 337 335 336 338 336 334 331 331 331 328 325 320 314 311 309 308 311 312 313 316 319 324 326 325 324 323 321 320 320 319
341 341 341 342 341 340 339 338 338 336 334 334 335 335 336 336 336 337 337 335 335 330 326 321 316 312 309 308 308 310 311 314 316 317 322 323 322 321 319 319 318 318 316
341 341 341 341 342 341 341 341 338 337 334 333 334 334 335 334 334 335 336 337 335 333 327 321 315 311 309 307 306 308 311 313 315 316 320 321 319 317 316 316 316 314 314
342 343 342 342 341 341 341 342 341 338 336 334 333 334 334 333 333 334 336 335 335 333 328 321 315 312 310 307 306 308 310 312 313 314 316 316 315 314 313 313 313 313 313
329 334 342 343 343 342 341 342 342 341 338 336 335 334 333 332 332 333 334 333 333 333 327 319 313 310 308 306 305 307 309 311 312 312 312 312 310 310 311 311 312 310 310
320 321 329 338 342 343 341 341 341 342 340 338 337 336 334 333 331 332 333 334 334 332 325 318 313 310 309 307 305 305 307 309 310 309 309 308 308 309 307 308 307 307 306
319 319 320 325 335 339 342 341 341 342 341 340 338 337 336 335 333 331 331 333 333 330 321 317 313 311 308 306 305 304 305 307 308 307 306 306 306 306 305 301 301 301 300
317 317 318 319 322 331 338 338 339 339 339 340 339 338 337 336 334 332 331 331 331 328 321 316 313 309 308 306 302 303 303 305 306 305 305 303 303 303 302 300 299 298 296
314 316 316 317 317 321 330 338 337 337 337 336 337 338 338 336 335 333 331 330 330 326 323 317 313 307 305 304 304 303 302 302 304 305 304 302 301 300 299 298 298 297 296
311 312 313 314 315 316 322 330 334 336 337 337 335 335 336 336 335 334 332 331 330 326 324 318 310 308 307 305 307 307 307 303 302 303 303 302 300 299 298 297 297 296 296
309 310 310 310 312 313 316 324 331 334 335 335 334 334 333 336 335 334 332 331 329 325 323 317 311 309 306 304 305 308 308 309 304 302 301 301 300 299 298 297 296 295 294
312 311 311 309 309 310 313 318 327 332 332 331 332 333 333 332 333 333 332 331 327 322 321 317 315 316 309 305 302 302 301 306 307 305 300 299 299 298 298 296 295 294 294
313 313 313 313 311 309 311 315 324 329 329 329 331 332 333 333 331 330 330 329 326 322 322 319 315 311 310 309 306 301 299 299 301 305 306 300 298 297 297 296 295 294 293
314 314 313 312 313 313 310 311 318 326 329 330 331 333 333 331 328 328 327 328 326 324 322 320 317 313 309 308 307 305 301 300 300 300 303 302 301 298 296 295 294 294 293

GFSSE_925_thetae_033.txt.gz
Theta_e
348 348 346 344 340 342 344 346 346 345 344 344 344 343 343 342 339 339 337 337 340 339 339 340 339 338 337 334 333 333 330 325 323 324 328 335 335 334 332 329 331 332 334
348 347 344 344 343 341 345 345 345 345 345 345 344 343 342 340 340 337 336 337 340 340 339 340 338 337 334 333 333 332 325 322 321 324 328 327 332 333 330 325 331 333 332
347 346 344 344 344 344 341 344 344 344 344 343 341 341 340 339 339 335 334 339 340 339 341 339 337 335 332 331 330 329 324 321 322 326 327 328 328 330 330 329 328 333 333
346 344 343 343 342 342 342 344 344 345 343 342 341 340 339 338 336 333 335 339 340 340 338 336 333 331 331 332 332 331 323 320 323 329 330 331 332 332 332 331 327 326 329
345 344 344 341 341 341 340 341 340 342 341 339 340 339 338 335 333 333 337 338 337 334 332 329 326 329 330 333 332 328 325 325 328 330 332 334 332 331 332 335 336 332 329
344 344 343 341 341 341 339 339 340 340 339 340 339 337 334 334 334 334 335 334 333 331 329 328 328 328 330 329 328 327 327 327 330 331 332 330 331 331 334 334 334 334 335
343 344 342 341 340 340 339 339 339 340 340 339 337 333 334 334 334 334 334 332 331 329 328 332 330 328 327 326 326 327 328 329 331 331 330 328 328 328 328 330 335 335 334
343 343 342 340 340 339 339 338 338 340 339 337 336 333 334 334 333 331 328 328 325 328 334 334 329 324 321 321 323 327 327 329 330 329 326 325 320 326 326 325 334 333 332
343 342 341 340 340 335 336 337 338 338 339 337 336 331 333 333 333 329 329 330 331 332 336 333 326 320 318 320 321 322 321 325 325 323 319 320 317 328 327 329 332 331 330
344 342 340 340 337 336 335 332 337 337 339 338 336 330 331 331 331 332 332 334 334 334 336 331 323 316 315 316 316 316 315 317 319 318 318 325 333 333 332 331 331 330 328
344 343 341 339 337 337 338 337 333 334 340 337 335 332 329 330 330 327 333 331 332 334 334 329 323 316 315 314 313 311 313 316 317 319 323 329 332 333 332 330 329 327 325
344 344 343 340 338 338 338 338 338 340 341 337 335 335 332 331 331 329 331 331 334 333 331 328 324 319 317 315 313 309 314 315 317 322 329 330 330 329 328 326 325 324 323
342 343 343 342 340 338 338 338 335 334 335 336 338 336 333 333 333 332 332 329 334 332 331 328 325 320 317 314 312 313 313 314 317 320 327 328 327 326 324 323 322 321 320
342 342 342 343 341 339 339 339 338 337 335 334 335 336 335 336 334 336 334 331 331 331 330 327 321 317 314 312 312 312 313 315 317 318 324 324 325 323 322 321 320 319 318
343 342 341 341 342 341 340 340 340 339 336 335 334 335 336 336 336 335 337 336 334 333 331 326 321 316 314 312 311 311 312 314 316 318 323 322 322 319 318 318 318 316 316
342 343 342 341 341 342 341 341 342 341 339 336 334 334 334 335 335 335 335 336 336 335 333 328 322 317 314 312 311 310 312 314 315 316 320 320 319 315 315 316 315 315 315
337 340 343 343 342 342 343 342 343 342 340 338 336 335 335 334 334 333 334 333 335 336 333 330 323 317 314 312 311 310 311 313 314 314 316 315 314 313 312 314 314 312 313
325 327 331 338 343 343 343 343 343 342 342 341 339 337 336 335 334 333 333 334 333 335 332 330 322 316 314 312 311 309 310 312 312 312 312 313 311 311 311 313 310 310 308
322 323 323 324 333 339 342 342 341 343 342 341 340 339 338 337 335 333 333 334 332 333 333 329 321 317 315 312 311 308 308 310 311 310 310 309 309 310 308 307 307 306 303
319 320 320 321 322 327 335 340 340 339 340 342 340 339 339 338 337 335 333 333 334 333 332 326 322 317 315 313 310 307 306 308 309 308 308 307 307 307 306 304 301 300 298
317 317 318 319 320 321 323 331 340 338 338 339 340 340 340 339 338 337 335 333 333 333 332 325 321 316 314 312 307 306 306 305 307 308 307 306 305 305 304 302 301 300 298
313 314 315 317 318 319 319 322 329 337 337 337 337 338 339 339 338 337 336 334 333 332 331 327 321 316 312 309 309 310 310 305 304 306 306 305 304 303 301 300 300 299 299
313 313 313 313 314 315 316 317 321 328 335 337 336 336 335 336 338 338 336 335 333 333 332 327 322 316 313 309 311 312 315 313 306 304 305 304 303 302 300 299 299 298 297
315 316 315 314 312 312 313 314 317 323 331 334 334 334 335 335 333 335 335 335 333 333 331 328 324 317 315 311 308 310 308 309 310 306 303 303 303 301 300 299 298 297 296
316 317 316 315 314 315 312 312 314 318 324 329 331 331 331 334 333 331 333 333 332 332 330 328 324 315 315 313 310 307 306 303 305 307 304 301 301 301 300 299 298 296 295
316 316 315 315 314 314 315 314 313 315 320 326 329 330 330 332 333 331 330 330 331 330 329 326 323 316 315 315 311 310 307 305 302 302 305 302 300 299 299 299 298 296 295

GFSSE_925_thetae_036.txt.gz
Theta_e
348 340 342 340 342 344 344 345 345 345 345 346 345 344 342 341 338 337 337 338 337 341 341 339 339 337 335 335 333 327 324 323 322 322 327 334 334 331 331 333 333 333 334
348 345 344 341 340 342 343 344 345 344 344 344 343 342 340 339 337 336 336 337 340 339 341 339 337 335 335 334 332 327 322 321 325 328 328 324 330 331 329 330 329 333 332
347 346 343 344 340 342 347 343 344 344 345 343 342 341 340 340 337 334 339 340 341 340 341 338 335 333 333 332 331 328 320 322 327 328 328 330 324 329 327 323 328 332 331
347 344 344 344 344 342 342 344 343 345 343 341 340 339 338 338 335 334 339 341 340 340 338 332 331 332 331 332 331 321 319 326 329 331 332 332 331 333 333 336 327 328 333
345 344 344 343 343 342 341 344 344 343 341 339 339 338 338 335 333 338 339 338 336 334 331 326 329 330 331 330 327 324 324 329 331 332 332 331 329 333 336 336 335 332 332
344 344 342 341 340 340 340 340 340 341 339 338 338 336 334 334 334 336 336 334 332 330 328 326 327 327 327 327 326 326 327 330 331 331 330 330 328 333 334 335 335 336 336
346 345 341 341 341 339 338 338 340 340 340 337 336 333 334 335 335 335 333 332 331 330 333 333 328 326 325 325 326 326 328 331 331 330 328 327 325 327 329 334 335 334 333
345 343 341 340 339 339 338 338 339 340 339 337 334 333 335 334 333 334 332 331 329 333 334 329 325 322 321 321 326 326 327 330 329 327 324 322 318 326 325 332 333 333 331
343 342 340 339 339 339 338 338 339 339 339 337 334 328 333 334 333 333 332 328 328 333 335 329 323 319 319 321 322 322 327 323 323 321 321 322 318 328 327 332 332 331 329
342 342 341 341 339 336 337 337 337 338 338 336 335 328 328 326 328 332 331 333 332 335 335 329 321 316 316 317 316 316 315 319 317 318 319 326 332 333 332 332 331 329 326
343 342 340 340 337 335 333 335 337 337 339 336 334 332 326 325 323 326 333 333 333 334 335 330 322 317 316 315 314 311 315 316 317 320 324 329 332 332 331 331 327 327 325
344 342 341 339 337 337 337 333 331 334 336 336 334 334 327 330 327 328 332 332 332 334 333 330 324 319 318 316 314 311 314 315 318 327 326 329 331 329 328 327 326 325 323
343 344 343 340 338 338 338 337 338 339 339 336 335 334 331 331 331 330 330 330 331 333 331 330 326 322 317 316 313 313 314 315 318 323 326 328 328 327 326 324 323 322 321
341 342 341 343 340 338 338 338 335 336 336 338 338 335 333 332 333 332 333 331 327 331 331 330 324 319 316 314 312 312 313 314 316 321 324 326 326 325 323 322 321 320 319
342 341 341 342 343 340 339 338 338 336 335 334 335 337 336 333 334 333 334 333 330 332 330 329 325 319 316 313 312 312 312 314 316 320 322 323 324 322 321 320 319 318 317
342 342 341 341 341 343 340 339 340 340 338 335 334 335 336 336 335 334 335 337 335 332 332 330 326 320 316 313 311 310 311 314 316 318 321 320 321 319 317 318 317 317 317
341 342 342 341 341 341 341 341 341 341 341 338 336 334 334 334 336 336 335 334 336 336 334 332 328 322 316 314 312 310 311 313 315 315 318 317 320 317 313 316 316 315 315
328 334 343 343 342 341 341 343 342 341 341 341 339 336 335 334 334 334 334 334 333 333 335 333 330 323 317 314 312 310 311 312 313 314 316 315 313 314 311 315 315 313 312
323 324 324 331 343 343 342 341 343 342 343 342 340 340 338 336 335 334 333 333 334 333 333 333 332 325 317 314 312 310 309 311 312 312 313 313 311 310 310 313 311 310 308
319 321 321 322 324 326 340 342 342 341 341 342 342 341 339 338 336 335 334 333 333 333 332 332 332 324 318 315 312 310 308 309 310 311 311 311 310 310 309 307 308 307 303
315 316 317 318 319 320 322 329 341 341 339 336 339 342 341 339 338 337 335 334 333 334 332 332 332 324 318 315 311 308 307 307 308 309 309 308 308 308 307 306 305 304 300
312 313 314 316 317 319 319 321 323 338 338 336 335 332 338 340 339 338 337 336 333 334 333 332 330 324 319 315 309 306 305 305 305 307 308 307 307 306 306 305 304 300 300
314 314 314 313 313 314 315 316 317 318 326 337 336 335 333 333 337 339 338 337 336 333 333 332 330 324 316 314 311 311 309 307 303 304 306 307 306 305 304 304 301 300 299
316 316 316 315 315 313 312 312 313 315 318 324 334 336 336 334 333 332 336 337 335 335 333 332 330 325 318 312 310 312 312 309 304 302 304 306 305 304 303 302 300 299 299
316 316 316 316 314 314 315 313 312 313 314 317 321 331 333 333 334 334 333 332 335 334 334 332 331 325 320 314 311 310 311 309 307 304 302 302 304 304 303 301 300 299 298
315 315 314 313 313 313 313 313 315 313 313 315 318 325 329 330 331 332 333 330 329 332 333 333 331 328 321 316 312 312 312 309 304 303 303 300 301 301 302 301 300 298 297

GFSSE_925_thetae_039.txt.gz
Theta_e
346 342 337 340 346 344 345 345 345 345 345 345 345 342 340 339 337 335 336 338 342 341 340 340 337 337 336 335 330 324 325 331 327 325 323 329 331 334 335 334 332 334 332
340 339 338 344 343 343 345 344 344 344 344 343 343 342 340 338 337 334 335 340 341 341 338 337 336 336 335 333 327 322 322 327 328 328 322 318 325 329 331 329 333 331 331
342 343 340 340 341 341 343 343 343 344 343 342 342 339 340 337 334 339 339 341 340 341 339 336 334 333 332 329 320 320 326 327 329 329 330 326 324 331 328 325 332 332 332
344 342 341 339 341 346 341 340 343 343 342 339 338 339 339 335 334 340 342 341 341 338 335 332 331 331 330 320 317 323 327 329 332 331 330 332 329 334 337 330 330 335 331
343 344 344 343 341 340 342 341 342 342 340 338 337 336 336 333 337 341 340 339 337 332 331 329 330 331 327 323 321 326 329 331 331 330 331 329 331 335 337 336 335 336 336
343 343 343 344 342 341 344 341 341 340 339 337 336 333 333 335 337 338 337 333 331 329 323 323 325 325 325 324 324 329 330 330 330 330 329 328 328 333 336 335 337 335 335
344 343 342 341 340 340 340 340 341 340 338 337 334 332 334 335 336 335 333 332 331 326 324 325 325 324 324 325 325 328 330 331 328 328 327 322 325 328 333 335 335 334 332
343 342 340 340 339 338 338 339 340 340 337 336 332 334 335 335 335 334 331 330 328 332 329 326 323 321 321 324 325 328 330 329 327 325 323 320 322 326 329 333 333 331 330
343 341 340 339 338 337 337 338 340 339 338 336 332 330 332 330 333 334 331 329 333 335 330 324 321 319 320 321 322 326 324 324 324 319 321 321 323 328 333 332 331 330 328
342 340 339 339 338 338 337 337 339 339 338 336 334 327 329 324 324 329 329 331 333 335 332 325 318 317 317 317 317 319 320 319 317 318 319 329 331 330 333 332 331 329 327
341 341 338 338 337 338 337 337 338 338 337 336 335 331 324 324 325 327 330 331 332 335 334 328 319 316 316 315 314 313 316 316 317 320 323 329 332 333 331 330 327 326 326
341 340 340 338 334 331 333 336 337 337 338 336 334 333 325 322 322 327 332 331 331 333 333 330 323 319 318 317 313 313 314 315 318 323 326 328 332 328 329 326 325 325 323
343 343 339 337 336 336 337 329 336 336 336 337 334 333 333 328 328 327 329 331 330 333 332 330 326 321 318 316 313 313 314 315 320 322 326 328 329 328 327 326 325 323 321
342 343 342 337 336 336 337 336 330 332 336 337 335 334 333 330 330 331 329 329 329 330 331 330 328 324 318 315 313 313 313 313 316 322 324 326 327 327 325 324 323 321 320
339 340 342 342 338 338 338 337 336 335 336 335 336 336 335 331 332 331 331 332 331 325 329 330 328 321 317 316 314 312 312 314 315 321 321 324 325 325 323 323 321 320 319
341 340 339 341 342 339 338 337 338 335 335 334 335 336 337 335 333 332 332 333 332 331 330 330 329 325 319 317 314 311 311 313 315 319 321 322 323 323 321 321 320 319 317
341 341 341 337 342 341 340 338 339 339 337 336 335 334 335 336 335 334 334 334 335 335 331 331 330 327 321 316 313 312 311 312 314 317 320 320 320 321 318 319 318 318 318
340 342 342 341 339 340 342 340 339 340 340 339 337 336 334 334 334 335 335 335 334 335 335 334 332 330 325 318 313 313 310 311 313 314 317 318 317 318 317 316 317 317 317
324 337 341 342 342 341 339 339 340 341 340 340 340 338 336 335 334 334 335 335 335 334 335 334 334 331 328 319 314 313 311 310 312 314 314 316 315 314 314 313 316 314 315
318 318 319 327 342 342 342 341 340 341 341 342 341 341 340 338 337 335 334 334 333 333 333 333 333 333 329 325 316 313 312 309 310 312 313 313 313 312 310 310 314 312 311
315 316 316 317 317 323 337 342 341 341 341 339 340 340 340 340 339 337 335 335 334 333 333 333 333 332 330 322 316 312 310 308 309 310 311 311 311 311 310 310 309 311 309
312 312 313 314 315 316 317 318 328 339 341 341 339 337 335 335 337 337 336 336 334 333 333 333 333 331 331 322 314 306 304 306 307 308 309 310 310 310 309 309 308 307 307
314 314 314 314 313 313 313 314 315 315 325 334 334 335 335 333 331 331 332 333 335 334 333 332 332 331 326 323 318 312 306 307 303 306 306 308 308 308 308 308 307 306 304
316 316 315 315 314 314 314 313 312 312 313 314 318 329 331 332 334 333 332 331 331 334 333 332 332 332 327 318 313 313 314 310 304 305 304 305 307 307 307 306 306 305 303
315 315 314 314 313 313 313 314 314 313 312 312 313 315 318 325 333 332 333 333 332 330 332 333 332 331 329 323 316 312 309 310 306 303 304 304 305 306 306 305 305 304 301
314 314 313 312 312 312 312 312 311 312 314 314 313 313 315 318 326 330 330 331 332 330 329 329 331 331 329 324 317 316 312 311 309 304 304 302 304 304 305 304 303 303 300

GFSSE_925_thetae_042.txt.gz
Theta_e
345 344 340 346 343 345 345 344 344 345 345 345 344 342 340 338 336 337 338 342 341 341 339 338 338 338 337 335 334 335 336 335 332 323 323 330 335 335 334 334 332 331 332
345 343 339 345 344 344 344 344 344 344 343 344 343 343 339 336 334 338 340 341 341 338 337 336 336 336 334 333 330 333 334 329 328 325 319 320 326 332 333 333 329 331 331
342 342 341 346 344 344 343 343 343 343 342 343 342 341 338 334 333 339 341 341 341 338 337 335 334 333 329 321 323 328 328 328 329 330 327 325 328 330 328 329 333 332 332
338 343 345 345 344 344 342 343 343 343 343 340 339 339 335 330 340 341 341 341 340 337 334 331 331 330 321 321 326 327 329 330 330 330 330 328 334 336 331 329 334 333 336
341 340 341 341 343 341 340 343 343 342 339 338 337 335 332 336 342 342 342 339 334 332 326 327 328 323 320 319 326 328 329 330 330 331 329 329 331 337 336 334 336 337 337
342 340 339 343 344 340 341 343 342 341 338 337 334 329 334 338 341 339 338 335 332 328 326 323 322 323 322 322 328 329 330 330 329 329 329 326 327 336 336 337 335 335 334
344 344 344 341 340 343 342 342 341 340 338 336 332 333 335 337 337 337 334 331 329 322 325 324 323 323 323 324 328 329 330 330 329 328 325 320 327 332 336 335 335 333 331
342 343 343 341 340 341 341 341 340 340 337 336 331 335 335 335 336 335 332 331 327 322 325 324 322 322 323 324 327 330 330 328 326 325 321 318 324 327 335 334 332 330 329
342 342 340 339 338 339 340 340 340 340 336 335 331 332 334 332 333 335 333 333 333 331 327 323 320 319 321 323 326 329 326 326 323 319 320 320 325 328 333 332 331 329 328
342 340 339 339 337 337 338 339 339 339 337 335 332 324 327 326 332 330 328 327 333 333 327 322 319 318 319 320 322 327 321 319 317 318 320 328 329 333 333 332 330 328 327
340 340 339 338 337 336 337 338 339 338 337 336 334 326 322 320 323 325 323 326 333 334 332 324 317 316 316 316 315 319 317 316 317 319 322 330 332 333 333 329 327 326 326
340 339 337 337 337 337 336 337 338 338 338 336 334 332 323 321 322 324 328 329 332 334 334 329 321 317 317 316 313 312 314 315 317 321 324 329 333 333 330 327 325 325 324
340 339 338 336 334 335 336 336 336 337 337 336 334 333 331 322 322 326 330 331 330 330 333 331 327 321 319 316 313 312 313 314 317 323 326 327 331 331 327 326 325 325 323
340 340 339 337 334 332 333 332 334 336 336 337 335 333 333 327 327 328 327 328 328 328 332 331 329 326 321 317 315 313 313 313 315 321 324 325 327 328 327 326 325 323 321
341 341 339 338 336 335 337 334 331 333 334 334 336 335 334 331 329 330 330 329 329 329 327 328 328 327 323 318 315 313 313 313 313 318 323 325 325 326 326 325 323 322 320
341 342 341 341 338 335 336 336 336 334 332 335 336 335 336 334 330 331 330 330 331 331 329 326 329 328 326 320 316 315 312 312 313 315 321 323 324 324 324 324 322 321 320
340 339 340 341 341 340 337 337 337 336 336 335 335 335 335 336 336 332 332 331 332 332 332 330 330 330 328 324 318 315 312 311 312 314 317 322 322 323 322 323 321 320 319
341 340 339 339 340 341 340 338 337 337 336 336 335 335 334 334 335 335 334 332 332 333 333 332 331 330 328 327 322 318 314 311 311 312 315 320 321 321 320 319 320 320 319
339 340 340 341 340 339 341 340 339 338 339 339 339 337 336 335 334 334 335 335 334 334 334 334 333 331 330 325 327 322 314 312 311 311 313 317 319 318 317 317 317 318 318
323 332 339 341 341 341 340 339 340 340 339 340 339 338 339 336 334 334 334 334 334 335 335 334 335 334 334 332 325 321 316 313 310 310 311 313 316 317 316 315 315 317 316
314 317 317 325 337 339 341 341 340 340 339 339 339 340 339 339 338 337 335 334 334 333 333 333 333 334 333 332 322 314 313 314 312 310 310 312 313 315 315 313 312 314 315
312 312 313 313 314 315 319 330 337 340 340 340 340 339 337 337 337 337 336 336 335 333 333 332 332 332 332 331 321 308 309 312 312 311 309 310 311 312 313 312 310 310 313
314 314 314 314 314 313 313 313 313 314 320 328 331 334 332 334 336 335 334 333 333 333 333 333 332 332 329 328 324 320 306 308 305 309 308 308 309 310 311 311 310 310 310
315 315 314 314 313 313 313 314 313 311 311 312 313 314 316 324 329 331 333 333 332 331 333 332 332 331 330 327 320 319 318 311 307 309 306 305 305 308 309 309 310 310 309
314 314 313 313 312 312 312 312 312 313 313 313 313 312 312 314 317 318 329 334 331 329 331 330 330 331 331 328 324 319 314 311 308 306 308 306 306 305 306 307 307 308 308
313 313 312 312 312 312 312 312 312 312 312 313 314 315 316 315 314 317 325 329 332 331 329 328 328 328 327 327 324 320 317 312 312 305 306 305 305 306 304 305 304 305 305

GFSSE_925_thetae_045.txt.gz
Theta_e
344 345 342 344 344 342 343 345 345 345 345 345 343 340 338 336 336 334 341 339 341 340 339 339 339 339 337 336 338 336 335 330 322 323 327 332 335 333 333 333 328 331 334
345 345 341 345 343 344 344 343 344 344 343 344 343 341 338 336 336 338 342 340 338 337 336 336 337 336 333 331 335 333 331 327 325 319 318 321 326 333 333 327 330 331 334
345 342 344 343 345 344 344 343 343 342 342 342 342 339 336 333 339 340 341 340 339 338 336 335 334 333 331 329 333 333 332 329 329 327 324 328 333 326 327 329 331 332 330
342 340 345 344 343 343 342 343 342 342 342 339 340 336 332 334 339 341 341 340 338 336 332 331 330 329 326 328 330 329 330 329 329 329 326 330 333 336 327 330 335 335 336
342 339 346 343 344 342 341 342 342 342 340 338 337 332 328 342 341 340 340 339 332 328 323 327 323 322 325 328 328 330 330 330 330 329 328 326 334 337 335 335 337 338 337
341 342 344 343 343 341 342 343 343 340 338 337 333 326 332 341 341 340 339 335 332 324 318 319 321 320 321 327 329 329 329 328 329 329 327 321 334 336 337 336 336 335 334
341 341 342 342 342 340 343 342 341 338 337 336 330 331 338 341 339 338 336 333 329 320 320 321 322 322 322 327 329 329 330 329 329 327 323 318 323 335 335 335 334 332 331
339 339 341 344 339 341 343 342 341 338 337 335 328 335 336 337 337 337 333 331 326 325 326 324 323 322 323 325 328 329 329 328 327 325 320 318 319 330 335 334 330 329 329
343 343 342 340 343 342 343 341 340 339 336 334 328 330 335 333 335 336 332 330 328 331 328 324 321 321 323 324 327 328 327 327 325 321 319 319 320 327 334 332 330 328 328
344 343 342 340 339 340 341 340 340 339 336 335 330 326 328 329 332 333 330 329 329 328 324 321 320 320 321 323 325 325 322 322 320 318 319 323 327 332 334 332 330 327 327
341 341 340 339 337 339 339 339 339 339 337 335 333 325 325 325 330 328 328 326 333 333 329 322 317 317 318 318 319 323 319 316 316 318 321 328 329 335 332 330 327 325 325
340 339 339 338 337 337 338 339 338 338 337 335 334 329 323 321 324 325 323 326 333 334 333 329 320 317 316 316 314 314 315 315 315 319 322 329 332 334 332 328 326 324 324
340 339 339 338 336 335 336 338 338 338 338 335 334 332 327 321 322 324 326 327 328 332 333 332 328 321 318 318 316 310 313 313 315 318 323 326 330 333 328 327 325 325 324
340 339 337 337 335 336 335 336 337 338 337 336 334 333 332 328 320 322 325 329 329 328 328 331 330 328 323 320 317 315 312 313 313 316 322 324 327 331 329 327 327 325 323
339 339 338 337 335 334 335 335 335 335 336 336 335 334 333 332 327 323 325 326 327 328 327 328 329 329 327 324 321 316 314 313 312 313 318 323 325 326 328 327 326 324 322
340 340 339 339 336 334 333 334 333 332 333 334 334 335 334 333 333 327 329 330 330 330 330 329 327 326 327 324 320 317 316 315 312 312 314 320 324 325 325 327 325 323 322
341 341 340 339 338 336 335 336 336 333 333 332 332 334 335 334 334 333 330 330 331 331 331 331 330 328 329 328 325 323 319 316 313 312 312 316 321 324 324 325 325 323 322
338 341 340 340 340 339 336 335 336 335 335 334 335 335 335 335 335 335 335 333 333 332 331 331 331 330 330 330 329 325 323 323 315 312 312 313 317 322 323 322 322 323 321
338 339 339 338 338 340 340 339 337 337 336 336 336 336 335 335 335 334 335 335 335 333 331 331 332 331 331 331 330 328 322 319 322 316 313 311 312 317 320 320 319 320 320
337 338 339 339 340 339 338 339 340 340 339 339 339 339 338 336 334 333 334 334 334 334 334 333 333 333 333 332 330 330 325 321 319 318 315 313 311 313 317 319 318 317 318
319 326 335 338 339 340 340 340 339 339 339 340 340 339 339 338 338 337 335 334 333 333 333 333 333 333 333 332 327 326 326 323 316 314 312 313 313 311 313 317 317 316 316
313 313 314 318 321 325 330 338 339 340 340 340 339 339 339 339 338 337 336 335 335 335 334 333 332 332 332 331 325 314 313 317 320 320 317 314 312 311 311 314 316 315 314
313 313 313 313 313 313 313 313 315 319 321 327 335 337 337 338 338 336 336 336 335 334 333 333 332 331 330 329 327 323 311 311 308 317 318 315 311 309 309 311 314 315 313
314 314 313 312 312 313 313 313 312 311 311 312 313 314 315 315 317 322 327 330 331 333 332 331 331 331 330 328 327 324 323 316 312 313 312 311 309 308 309 308 309 312 312
313 312 312 312 312 312 312 311 311 312 312 312 313 313 312 312 312 313 316 317 323 333 332 331 331 330 329 328 327 324 320 313 310 308 317 310 311 311 309 306 307 307 308
312 312 311 311 311 311 311 311 311 311 311 311 312 313 314 316 316 315 315 321 324 328 331 331 329 328 327 327 326 324 322 317 312 310 308 312 309 311 312 312 313 311 308

GFSSE_925_thetae_048.txt.gz
Theta_e
343 344 340 345 343 344 346 346 346 345 346 346 341 339 336 333 330 341 339 341 340 340 339 340 339 338 339 339 339 332 332 327 320 321 328 333 332 333 332 327 326 331 335
344 344 340 344 342 341 343 343 344 344 343 343 342 337 335 332 336 342 340 338 337 336 336 337 337 336 336 337 335 331 328 325 320 317 318 321 326 333 330 330 328 332 335
344 344 341 344 341 341 343 343 343 342 343 341 337 337 335 333 339 342 340 339 338 336 335 335 334 334 333 335 334 329 328 328 326 324 326 333 333 324 326 327 331 331 333
344 343 344 343 344 343 342 343 342 342 342 339 339 335 332 338 340 341 341 339 337 333 332 331 329 329 327 330 330 329 328 328 328 326 325 330 336 331 329 335 337 336 334
343 341 343 343 343 342 342 342 341 342 340 340 336 331 337 340 341 340 340 337 331 320 328 329 327 325 328 329 329 329 329 329 329 328 324 330 336 336 335 336 337 336 336
341 343 345 343 342 341 342 341 342 340 338 337 330 329 341 341 341 341 338 334 331 318 323 325 323 325 327 328 329 329 328 328 328 326 321 326 335 337 336 336 335 335 334
340 345 344 344 342 340 342 342 341 338 337 335 326 329 341 339 338 339 337 333 328 323 324 324 323 322 326 328 329 329 329 328 328 325 319 318 330 336 336 335 333 332 330
340 345 343 342 341 340 343 343 340 337 336 334 324 325 339 338 337 338 333 330 322 324 325 324 324 324 325 327 328 328 329 328 327 323 319 318 318 332 334 332 330 328 328
341 342 340 343 339 340 343 342 340 338 336 333 324 329 333 336 336 336 333 329 322 324 323 321 320 322 324 325 327 327 327 327 324 321 318 319 319 327 333 330 329 327 327
340 340 343 341 340 342 342 341 340 338 336 333 327 331 333 332 332 333 330 330 326 326 323 321 319 319 321 323 325 327 323 323 319 317 318 325 326 330 333 330 327 325 325
343 342 340 339 342 342 342 340 339 338 337 335 331 324 328 328 331 332 329 328 332 330 326 321 318 318 318 319 320 324 322 318 315 316 319 327 328 334 332 328 327 325 324
342 341 341 340 338 340 340 339 338 338 337 335 333 328 321 321 326 328 327 326 333 334 332 328 320 317 317 316 315 315 316 315 314 316 320 325 330 335 331 328 326 324 324
341 340 339 338 337 338 339 338 338 337 337 335 334 332 326 320 321 324 322 323 329 333 332 332 329 323 318 318 317 315 311 312 313 314 318 324 328 333 330 329 326 325 324
340 340 338 338 337 336 336 337 338 338 338 336 335 333 331 327 321 321 323 326 327 328 329 329 330 329 327 322 319 317 315 313 313 313 316 322 325 327 329 328 327 325 325
340 339 339 337 336 336 335 335 337 337 337 336 336 334 333 331 329 322 320 324 326 328 328 327 328 329 329 327 325 322 318 315 313 313 313 316 322 325 329 329 328 325 323
340 339 338 337 336 334 334 335 334 334 334 335 335 335 334 333 332 331 325 325 328 328 329 329 329 329 328 327 327 324 320 317 316 315 312 313 317 321 324 328 327 325 323
339 340 339 338 338 336 334 332 333 333 333 333 332 333 334 334 334 333 333 329 329 330 330 330 330 330 330 328 329 329 326 325 320 319 315 312 313 316 320 324 327 326 325
340 340 340 339 339 338 336 334 335 336 334 333 333 332 333 334 335 334 334 334 333 332 331 331 331 330 331 330 330 330 330 328 325 322 317 315 313 313 316 319 322 325 324
338 338 339 340 340 338 338 336 335 335 336 335 334 334 335 335 335 335 335 334 334 334 333 333 332 330 331 331 331 331 331 330 328 325 323 321 319 315 313 315 320 321 321
336 337 338 338 337 338 339 339 337 335 336 336 335 335 335 336 336 335 335 334 334 334 334 333 333 332 331 331 330 330 330 330 329 327 324 320 316 314 313 313 316 319 320
333 335 335 338 338 338 338 338 338 339 339 339 338 338 338 339 338 336 335 333 333 332 333 332 332 332 332 331 330 329 327 328 327 327 327 324 318 314 311 312 315 318 319
316 320 324 329 334 336 338 339 339 339 338 338 338 338 338 338 338 338 338 337 336 335 334 333 332 330 330 330 329 320 319 321 326 325 323 321 318 313 312 310 311 315 318
312 313 313 314 314 314 316 320 324 326 328 329 331 334 335 336 337 337 337 337 336 336 335 334 333 332 329 328 328 326 318 318 311 323 320 322 318 315 313 311 309 310 313
313 313 312 312 312 313 312 312 312 311 311 311 311 312 313 313 313 314 316 321 326 329 332 332 332 331 330 327 325 325 324 319 315 316 317 317 321 320 317 315 313 308 310
312 312 312 312 312 312 312 312 312 312 312 312 312 313 313 313 313 313 312 312 316 319 321 330 332 331 330 329 325 324 323 318 314 311 316 316 315 317 317 315 314 314 307
310 311 311 311 311 311 311 311 311 311 311 311 311 311 312 313 313 315 316 316 317 323 326 326 331 330 329 327 326 325 324 320 315 312 309 309 312 314 314 314 314 313 311

GFSSE_925_thetae_051.txt.gz
Theta_e
343 346 342 344 346 345 346 347 346 347 345 345 340 337 334 333 339 341 342 341 340 340 340 338 339 341 342 340 335 328 325 321 319 328 325 330 333 332 329 324 330 337 336
343 347 341 343 346 345 346 345 345 345 344 343 340 337 334 335 342 340 338 338 336 336 337 338 337 338 338 336 332 329 326 321 318 320 323 324 329 331 331 326 331 336 338
342 346 343 344 344 344 343 344 344 342 342 339 337 336 333 336 342 338 339 338 336 335 335 336 336 336 336 335 332 329 328 327 324 326 330 334 331 329 329 333 331 332 335
343 345 346 343 342 342 343 343 342 342 341 335 335 333 334 339 342 341 340 337 332 332 332 331 331 334 333 330 329 328 328 327 326 323 330 335 334 334 335 339 336 335 337
345 341 345 342 342 342 342 341 341 341 337 336 333 330 338 340 341 341 338 332 321 327 327 327 327 328 328 329 328 328 328 329 327 321 327 335 337 337 337 337 337 336 335
343 343 344 342 344 343 342 342 341 339 336 334 328 340 339 339 340 338 337 332 320 323 328 324 325 327 328 328 328 328 327 327 326 321 318 334 338 337 337 335 334 334 332
342 343 344 344 342 342 342 341 341 337 336 332 325 341 341 340 338 337 336 332 320 323 326 325 322 325 327 328 328 328 328 328 326 321 317 317 333 336 336 334 332 331 329
341 346 345 343 341 341 341 342 339 336 335 330 323 339 339 337 337 337 334 329 318 322 323 323 322 322 325 327 328 327 328 327 325 320 318 318 319 334 334 330 329 329 328
340 346 344 344 340 341 342 342 338 336 335 330 323 338 338 336 335 335 332 328 323 326 325 323 322 323 324 325 327 327 327 326 322 319 317 321 320 328 333 329 327 327 327
343 344 342 343 339 340 344 341 340 338 335 331 324 330 336 335 335 336 333 328 325 327 323 321 320 321 322 323 324 326 323 321 317 316 318 324 326 331 332 328 326 325 325
342 342 341 343 339 341 342 340 339 337 335 333 328 325 328 329 329 332 330 328 326 327 323 321 318 318 319 320 320 322 323 318 315 315 318 326 328 333 332 329 326 324 324
341 342 342 341 341 342 341 339 338 337 336 335 332 326 323 323 326 328 328 327 331 333 331 327 320 317 317 316 315 315 314 314 313 314 317 322 329 333 331 329 326 325 323
342 341 340 339 340 341 341 339 338 337 337 335 334 331 324 320 322 325 325 323 330 333 332 332 330 325 320 318 317 316 314 311 312 313 315 319 323 330 332 330 327 326 324
342 341 340 339 338 338 339 339 338 337 337 336 335 333 331 326 320 320 321 321 323 326 329 330 329 330 329 327 324 321 318 316 314 313 314 315 319 326 327 328 327 326 325
340 340 339 338 337 336 337 337 338 338 337 337 336 334 333 331 329 324 320 321 325 327 327 328 327 327 328 328 326 325 323 321 317 314 314 314 314 319 323 330 329 326 324
339 339 339 338 337 336 335 335 335 337 337 336 336 335 334 333 332 331 329 323 323 326 327 328 329 330 330 329 328 328 327 325 323 320 317 315 313 314 318 322 328 328 326
339 339 338 337 336 335 334 333 333 333 333 333 333 334 334 334 333 333 332 332 329 328 329 330 330 330 330 331 331 330 330 329 328 326 323 321 317 313 314 317 324 327 327
339 339 339 338 337 337 335 334 333 333 333 333 333 333 332 332 333 334 334 333 333 333 332 331 331 331 331 330 331 331 331 331 330 330 328 325 323 320 315 314 316 323 326
339 339 338 339 339 338 338 336 335 334 335 335 334 333 334 333 333 334 335 334 334 334 334 333 333 332 332 331 331 331 331 331 331 331 330 328 323 320 317 314 314 318 322
337 338 338 339 339 339 338 338 337 335 334 334 335 335 335 335 335 335 335 335 335 334 334 333 333 333 332 331 331 330 331 331 330 330 330 330 329 322 318 316 313 314 319
331 334 335 337 337 337 337 338 338 338 337 337 336 336 336 336 337 336 337 336 335 334 333 333 332 332 331 331 328 329 328 329 328 326 326 326 326 325 321 315 311 311 314
318 325 330 334 337 337 337 337 337 338 338 338 338 338 338 338 338 338 338 338 338 335 334 333 332 330 329 329 328 323 325 325 323 323 323 324 322 321 319 315 313 311 310
312 315 318 322 326 330 334 336 337 337 337 336 336 336 336 336 336 336 336 336 336 336 335 335 334 332 329 328 327 327 323 324 317 323 323 321 322 320 318 318 317 314 311
312 312 312 312 313 313 313 313 314 314 313 312 312 312 312 312 312 312 313 315 318 322 327 330 331 332 330 328 327 325 324 322 321 320 319 318 320 319 316 317 317 315 312
311 311 311 311 311 311 312 312 312 312 311 311 311 312 312 313 314 314 315 314 312 313 316 319 321 328 330 329 327 324 322 320 316 318 318 318 317 317 317 316 314 313 314
310 310 311 311 310 311 311 311 311 311 310 310 310 311 311 311 311 312 313 315 316 319 319 322 324 324 330 329 328 324 322 320 317 314 313 312 313 315 315 314 313 311 310

GFSSE_925_thetae_054.txt.gz
Theta_e
345 348 344 344 345 346 345 346 345 345 344 344 343 342 341 342 342 342 341 341 340 339 339 340 341 341 339 337 335 331 328 324 323 322 327 332 332 331 330 332 338 339 337
343 345 344 344 345 346 346 345 345 344 343 342 342 341 342 342 341 339 338 337 337 338 338 339 340 340 337 336 333 331 325 321 325 327 329 327 327 331 326 330 336 338 338
344 344 346 344 345 345 345 345 344 342 342 339 341 340 341 343 339 340 339 336 335 337 337 338 339 338 337 335 331 328 325 323 324 330 334 332 330 334 338 334 331 333 336
344 344 345 343 344 344 344 344 343 342 338 336 337 334 340 343 342 340 338 333 333 334 334 335 336 334 331 329 327 327 327 326 321 332 335 336 335 337 339 337 338 338 338
344 343 346 343 343 344 343 343 341 340 334 333 332 332 336 343 342 339 333 324 328 330 330 331 331 329 329 327 327 328 328 326 323 326 335 339 338 338 338 337 337 335 335
344 344 346 342 342 343 342 341 341 337 333 328 330 339 338 343 341 337 333 319 319 326 327 327 327 328 327 328 327 326 326 325 326 323 327 335 338 338 337 335 333 332 331
343 346 346 343 343 342 342 342 341 336 334 324 339 339 340 341 338 337 333 323 321 323 321 320 324 324 326 327 327 327 327 325 324 323 322 324 334 337 335 332 331 330 330
343 346 347 346 343 342 342 341 339 336 333 324 340 340 341 339 336 337 332 325 325 325 325 323 322 324 327 327 327 327 327 325 324 322 322 323 322 335 332 329 329 329 328
344 345 348 346 344 342 342 342 337 335 332 322 340 340 338 337 336 335 331 324 328 327 324 323 323 323 324 326 326 326 326 322 322 321 323 326 322 331 332 328 327 326 326
347 347 346 346 344 344 344 342 338 337 334 326 330 338 337 335 335 335 332 325 326 325 322 321 321 323 323 323 324 324 322 319 320 322 324 328 327 330 333 328 327 325 323
345 346 344 345 343 344 346 341 340 338 334 330 326 331 335 334 334 334 334 327 327 325 322 320 319 319 320 320 320 320 321 319 317 319 323 323 328 332 334 330 328 326 324
343 343 343 344 343 343 345 340 339 337 338 337 334 331 330 330 332 333 332 327 330 331 329 325 320 318 318 319 318 316 316 315 315 318 321 319 326 331 336 331 328 326 325
340 341 343 344 343 343 343 340 338 337 339 338 337 334 330 329 330 331 331 330 332 333 334 332 331 328 324 321 319 319 316 315 316 317 319 316 319 327 334 332 329 327 326
341 341 341 341 342 342 343 342 341 339 338 338 337 335 332 329 329 329 328 328 330 332 333 333 331 330 330 328 325 323 322 320 318 317 319 316 315 320 332 332 327 327 324
343 342 341 340 340 340 341 341 341 340 338 338 337 336 334 333 331 329 327 327 329 331 331 332 333 331 331 331 330 329 327 325 322 318 318 318 315 315 320 326 332 330 327
342 342 342 341 340 339 338 339 341 340 338 337 337 336 335 334 333 332 331 329 327 330 331 332 333 333 333 333 332 332 330 328 325 322 320 321 323 317 314 317 322 329 329
340 341 341 340 339 338 336 337 337 338 338 337 337 336 335 335 335 334 334 333 332 331 331 332 333 333 333 333 333 333 332 332 330 327 324 322 322 323 321 315 316 326 328
340 340 340 339 338 337 336 336 335 335 336 336 337 337 336 335 335 335 335 335 335 334 333 333 334 334 334 334 334 334 334 333 332 331 330 326 323 322 322 322 316 316 326
339 339 339 339 338 338 338 337 336 336 336 337 337 337 337 336 336 336 336 336 336 335 335 334 334 334 334 335 335 333 333 333 332 331 330 329 326 323 322 321 320 316 316
339 339 338 339 339 339 339 338 337 337 336 336 337 337 336 336 336 336 337 337 337 337 336 335 334 334 334 334 334 332 332 332 331 330 329 327 327 323 321 320 320 320 318
332 337 338 338 339 340 340 339 340 339 338 337 337 337 337 336 336 336 337 337 337 337 336 336 335 335 335 334 330 331 332 330 329 328 327 324 322 321 320 319 318 318 318
319 331 334 336 338 339 339 339 340 340 340 340 340 340 339 339 339 339 338 338 337 337 336 336 335 334 332 331 330 326 329 326 325 324 323 321 320 317 316 315 315 315 315
315 319 323 327 332 334 336 334 335 336 336 334 335 335 333 336 335 335 335 336 335 334 333 333 333 333 332 330 328 328 329 326 325 324 323 319 317 316 316 315 315 314 314
314 313 314 317 322 327 330 327 327 331 330 318 317 316 315 314 314 314 313 316 323 326 327 330 333 333 330 329 326 326 326 326 326 325 322 320 320 319 318 318 315 314 313
312 312 312 312 312 312 312 313 314 314 313 312 312 312 312 312 313 313 314 315 315 315 319 322 324 325 328 327 328 325 325 320 319 321 323 320 318 317 317 316 314 313 311
312 311 311 311 311 311 311 311 312 313 312 312 312 312 313 312 311 311 311 314 316 321 321 321 322 325 326 326 327 327 324 324 321 320 319 317 317 316 316 315 311 309 307

GFSSE_925_thetae_060.txt.gz
Theta_e
350 343 341 342 345 344 344 344 343 342 341 340 342 341 344 342 340 340 339 339 341 343 343 342 340 338 335 332 330 328 322 324 329 328 329 328 330 335 335 336 334 339 337
349 344 342 342 344 344 344 344 342 342 340 337 343 344 341 339 338 336 337 340 340 339 338 339 338 338 336 333 330 322 331 332 332 332 334 337 336 329 330 336 339 338 339
348 346 344 344 345 344 344 343 342 341 339 335 344 340 341 339 337 335 337 338 338 338 338 338 338 336 334 330 324 318 333 334 334 335 336 339 337 335 338 337 336 337 338
348 346 346 344 345 344 345 343 341 339 335 335 343 342 342 339 335 334 335 336 338 338 337 336 335 331 328 327 324 318 329 333 336 336 338 338 339 339 338 336 336 335 334
348 347 346 345 345 345 343 342 340 332 332 333 342 343 341 340 335 332 332 332 334 335 334 331 327 326 326 325 323 322 323 323 331 336 335 336 335 337 336 333 330 331 331
345 348 344 345 344 343 342 340 337 331 329 330 338 343 342 339 333 325 324 327 329 330 328 327 325 326 326 325 324 322 324 324 323 325 335 336 335 336 333 331 332 331 329
348 346 344 344 343 342 341 340 334 331 327 328 333 344 341 337 335 323 323 326 325 326 326 325 326 326 325 326 325 322 322 323 323 323 323 327 335 335 332 327 323 325 323
348 346 343 343 343 342 341 339 334 326 335 337 335 342 340 336 334 329 322 325 325 324 322 324 324 325 325 325 325 323 322 323 323 324 327 324 329 335 332 328 325 324 324
347 346 345 343 341 341 341 338 335 326 339 339 338 342 338 336 335 329 320 323 323 322 322 322 321 322 323 323 323 321 318 321 322 324 328 327 323 335 332 329 327 326 325
345 344 345 344 342 342 341 337 334 325 339 341 342 340 337 336 335 331 323 323 323 321 320 319 320 320 320 320 320 319 319 319 319 321 326 324 327 331 335 332 328 327 326
346 345 347 345 345 343 342 338 337 333 324 339 340 338 336 336 332 332 335 325 324 321 320 319 318 318 318 319 318 317 319 319 318 319 322 324 321 330 335 335 330 328 326
345 346 345 343 343 345 343 338 338 337 332 326 329 335 329 335 335 336 335 331 322 324 323 321 319 318 321 321 320 320 319 317 317 318 319 321 316 322 332 335 332 329 326
345 344 344 341 344 344 343 340 341 337 338 337 333 328 330 331 331 333 331 325 321 326 329 333 332 330 326 324 323 323 322 322 320 319 319 320 319 316 320 333 333 330 326
344 343 342 342 344 345 343 341 340 337 338 338 338 335 330 328 330 329 332 330 330 333 334 335 333 333 331 330 330 328 327 326 325 323 321 320 321 321 316 329 332 329 327
342 343 343 340 341 343 344 341 339 337 338 338 338 337 334 331 329 329 328 328 328 329 331 332 332 333 332 332 333 332 332 331 330 328 324 322 323 324 322 316 329 329 330
341 340 341 340 340 342 343 342 339 338 338 337 337 337 336 334 333 331 329 327 327 328 330 331 332 334 334 334 334 334 334 333 333 332 329 327 325 325 325 324 319 324 329
342 340 340 340 339 339 341 341 340 338 339 336 336 336 336 335 335 334 334 333 332 328 330 332 333 334 334 334 334 334 334 334 333 333 333 332 331 329 327 325 324 321 325
342 342 341 341 340 340 339 340 339 338 338 337 336 336 336 336 335 336 335 336 335 335 334 333 334 334 335 334 333 333 333 334 333 334 333 333 332 331 329 327 324 324 322
341 342 342 341 340 338 338 336 337 336 336 336 336 337 337 336 335 336 337 337 337 337 336 336 335 334 334 334 334 334 334 333 333 332 332 331 330 330 328 328 326 323 322
340 341 341 341 340 339 338 337 336 335 335 336 337 337 338 338 337 337 337 337 336 336 336 336 335 334 334 334 333 334 334 333 333 333 332 330 329 325 325 324 323 322 321
339 340 341 341 340 339 339 339 338 338 338 337 337 338 338 338 338 338 338 336 336 337 336 336 335 335 334 333 333 333 332 332 332 331 330 327 325 322 321 320 319 318 318
322 339 340 341 340 340 340 340 339 339 339 338 338 338 338 338 337 337 336 336 336 336 336 335 335 334 333 333 333 329 328 326 326 326 327 325 323 321 319 317 317 316 316
317 326 339 340 340 340 340 340 340 340 340 340 340 340 338 338 338 337 337 336 336 335 334 333 333 333 334 333 332 330 327 324 324 324 324 323 322 321 320 319 316 315 314
316 319 329 337 339 339 340 340 339 339 337 337 337 338 337 335 331 330 328 324 324 326 328 328 325 325 328 329 329 329 326 327 326 322 323 323 321 319 318 318 316 314 313
317 318 324 328 333 336 338 338 336 335 332 328 328 327 323 316 315 314 314 315 316 317 318 317 318 322 325 325 325 324 324 322 323 324 323 321 320 319 318 317 315 313 311
316 315 317 318 319 321 326 328 326 327 320 320 317 314 314 314 314 313 312 312 313 316 318 321 322 322 322 324 323 322 321 323 322 321 320 319 320 320 317 316 314 312 308

GFSSE_925_thetae_063.txt.gz
Theta_e
345 341 343 345 343 344 344 344 342 339 339 342 344 344 341 340 340 340 342 343 342 342 341 340 338 335 332 330 327 327 331 331 334 337 330 330 334 336 337 337 338 337 338
344 341 343 344 345 344 343 342 341 339 337 343 344 340 338 336 337 339 340 341 341 340 339 338 337 334 330 322 332 333 333 333 333 338 336 329 333 339 338 336 336 337 337
342 340 340 344 344 343 342 342 340 338 337 343 339 340 338 335 336 337 337 339 338 337 338 337 335 334 324 318 331 332 330 334 335 337 337 337 339 338 337 335 335 334 335
342 340 342 344 343 343 342 341 339 336 337 342 339 339 338 334 335 336 338 338 337 336 336 335 334 330 325 319 328 327 333 335 335 338 336 336 336 337 335 334 333 333 331
343 343 344 344 344 343 341 340 334 330 334 343 340 340 338 333 334 334 335 337 335 335 334 330 328 326 324 321 322 323 325 333 335 334 335 334 334 334 334 332 329 329 330
347 344 345 345 344 343 341 337 329 329 331 343 342 340 337 333 333 331 331 332 332 332 330 327 326 325 323 321 323 323 323 323 324 331 334 334 334 334 333 329 328 327 325
347 344 345 344 343 342 340 334 329 328 329 340 343 340 337 331 323 325 320 325 326 327 326 327 325 324 324 323 320 323 323 322 322 323 324 324 332 334 331 328 328 327 326
346 343 345 343 342 341 339 333 327 327 328 335 344 340 335 333 324 321 322 323 323 324 323 324 324 324 323 323 321 321 322 322 323 325 326 324 331 334 332 328 328 328 327
344 344 343 342 341 340 338 334 325 338 334 336 343 339 335 333 329 319 321 322 322 321 320 320 321 322 322 321 320 318 321 321 322 324 328 323 325 335 332 329 328 328 326
343 342 343 342 341 340 337 333 326 338 338 338 342 339 336 334 332 322 322 322 320 320 319 319 319 319 319 318 318 317 320 319 318 321 325 323 324 332 334 333 329 328 325
344 342 342 341 341 340 337 334 327 336 339 341 342 337 336 332 328 327 322 322 321 319 319 318 318 318 318 320 319 318 318 318 317 318 321 322 317 325 333 335 331 329 326
345 344 343 341 341 340 337 336 336 327 333 339 338 336 333 335 335 332 332 328 321 321 320 320 319 319 321 321 320 321 319 319 317 317 318 319 319 317 324 334 332 331 327
344 344 344 342 343 341 338 337 337 336 331 327 326 326 332 334 334 333 332 326 320 322 325 332 332 330 328 327 324 325 324 323 323 320 319 319 320 320 317 323 334 331 327
343 342 341 343 344 343 340 338 338 336 337 336 334 329 329 331 330 329 330 330 328 332 333 334 333 333 331 330 331 330 329 328 328 327 324 322 321 322 323 319 332 330 328
342 342 341 344 344 343 342 340 339 336 338 337 336 335 330 329 328 329 330 330 329 329 331 333 332 332 332 331 332 332 332 332 332 331 329 327 326 325 324 325 326 331 329
341 342 340 341 343 344 342 341 339 337 338 338 337 337 335 333 331 328 328 328 327 328 329 330 330 332 334 334 334 333 333 333 333 333 332 332 330 329 327 327 325 324 329
340 343 342 339 340 341 341 341 338 336 338 337 337 337 336 335 333 333 330 329 328 327 327 330 332 333 333 333 333 334 333 333 334 332 332 331 332 329 328 328 326 325 323
340 339 341 340 341 340 340 340 339 337 337 338 336 336 336 335 335 334 334 334 334 333 332 331 332 333 334 334 332 332 333 334 334 333 333 332 332 331 329 327 326 324 323
341 341 339 339 339 339 340 340 340 337 336 336 336 336 336 336 335 335 335 336 336 336 335 335 334 334 333 332 332 332 333 333 334 333 333 332 331 329 325 326 326 324 323
340 341 341 340 340 339 339 338 338 337 335 336 336 336 337 337 335 335 336 336 335 335 335 335 334 334 333 332 332 333 331 331 332 332 332 332 329 325 324 323 322 321 320
339 340 340 341 340 338 337 336 336 335 334 335 336 336 337 337 337 336 336 336 335 335 335 334 335 335 333 332 331 331 331 328 329 326 327 330 325 322 321 320 318 317 317
338 338 339 340 340 339 339 338 337 336 336 337 337 337 337 337 337 336 336 336 335 334 334 334 334 334 333 331 332 331 329 326 325 325 326 323 322 321 320 319 318 317 316
327 338 339 339 339 340 339 339 338 338 338 337 337 338 338 337 337 336 336 336 335 334 334 333 332 331 331 329 329 331 328 323 322 324 323 322 323 321 320 318 317 316 315
319 329 338 339 339 339 339 340 340 339 339 339 339 339 338 337 337 336 335 335 334 333 333 330 329 327 325 326 328 330 329 328 325 322 322 323 321 319 319 317 316 315 315
316 320 333 338 338 338 337 338 337 338 337 336 336 337 335 335 332 324 319 315 315 316 316 317 317 318 323 326 324 324 325 324 323 323 322 320 320 318 316 316 314 314 313
316 318 324 331 334 334 336 335 336 335 332 326 326 325 323 318 314 314 313 312 312 313 315 317 320 321 322 322 323 323 322 321 321 320 317 319 319 317 314 313 311 311 310

GFSSE_925_thetae_066.txt.gz
Theta_e
343 345 344 345 345 344 344 344 343 340 341 344 343 342 341 341 343 343 344 343 342 341 340 337 333 333 334 334 335 334 335 337 335 329 332 334 339 340 338 336 335 335 336
344 344 344 345 345 345 344 343 338 335 342 343 339 336 337 340 342 344 343 342 340 340 338 335 333 332 336 337 336 333 333 336 336 330 335 338 337 337 336 334 335 335 337
344 344 345 345 345 343 341 340 336 343 343 338 338 335 336 337 339 340 340 340 339 338 337 335 332 331 333 332 330 333 335 335 337 336 337 337 336 335 334 333 334 335 336
344 344 344 344 343 342 341 339 335 343 336 339 338 334 335 337 335 338 338 337 337 337 335 333 324 320 330 327 328 335 335 336 335 335 334 333 333 334 333 332 332 332 329
345 343 344 343 343 342 340 338 334 342 339 338 338 334 334 336 337 338 337 336 336 334 331 325 324 320 323 324 326 333 335 335 335 334 334 333 331 333 331 330 328 328 328
343 344 343 343 342 340 339 333 332 342 341 340 336 334 333 334 335 336 335 334 333 329 326 324 323 321 321 323 322 323 324 328 332 332 331 332 332 331 330 329 328 327 325
343 344 343 343 342 340 337 329 331 341 341 341 339 334 333 333 332 333 333 332 330 327 325 324 323 322 320 321 323 322 322 322 323 325 323 326 333 332 331 330 330 329 326
344 345 344 343 341 339 334 329 330 335 341 342 339 334 328 324 330 331 332 332 330 327 325 324 323 322 321 319 322 322 322 323 325 325 326 324 331 333 330 329 329 329 325
344 345 344 343 341 338 332 327 327 330 339 343 339 334 331 322 320 320 320 319 321 322 322 322 322 321 321 319 318 321 321 321 321 325 326 322 328 334 332 330 329 328 324
343 344 343 342 341 337 333 324 332 331 337 342 340 333 332 330 320 321 321 321 320 320 320 319 319 319 319 318 318 319 319 318 318 320 323 322 323 332 333 332 330 329 326
346 343 342 342 340 337 333 326 336 334 336 342 341 335 334 331 328 320 322 321 320 318 318 318 318 318 318 319 318 318 318 317 317 318 319 320 318 320 329 334 332 330 328
346 344 342 341 340 337 332 326 335 337 338 339 340 336 334 330 329 328 323 320 321 319 319 318 317 319 320 320 320 320 320 322 318 317 318 319 319 319 319 330 333 331 329
342 343 341 340 340 338 335 334 328 335 339 340 338 335 333 334 333 333 332 327 320 322 323 327 328 326 327 328 325 326 325 324 325 323 321 319 319 320 323 319 330 332 330
341 340 341 340 341 339 336 336 336 331 326 330 330 333 331 332 333 332 330 327 321 327 328 332 332 332 330 330 331 330 330 330 329 329 327 325 323 323 323 324 328 330 329
335 338 341 342 341 341 338 337 337 336 336 335 332 327 329 330 330 328 329 330 328 331 331 333 332 331 332 331 331 331 332 332 332 332 332 332 330 328 327 326 325 329 330
333 338 340 341 342 343 341 338 338 336 336 337 336 335 330 329 329 328 329 330 328 328 328 330 330 331 333 333 333 333 333 333 333 333 332 332 332 330 328 327 326 325 327
340 339 337 339 339 341 342 340 339 337 337 338 337 336 334 334 332 331 328 327 327 327 328 329 330 331 332 333 333 333 333 332 331 333 333 331 331 330 327 327 326 326 325
337 339 340 340 340 340 342 340 340 337 337 337 337 337 336 335 334 333 330 330 330 329 327 328 330 332 332 333 331 330 331 332 332 333 332 332 331 329 329 329 324 325 324
339 339 339 340 340 341 339 340 339 337 336 336 337 336 336 335 335 334 334 334 334 334 334 333 333 333 332 331 331 330 330 330 330 331 332 332 331 331 327 325 325 324 322
339 338 339 339 339 339 340 339 339 338 337 336 335 335 335 336 335 335 335 335 336 335 335 334 333 332 333 332 332 332 329 328 329 328 328 328 331 329 325 325 322 320 320
338 338 338 338 339 338 338 339 339 339 336 336 335 336 336 335 336 335 334 335 336 335 334 334 333 333 332 331 331 330 330 328 327 327 326 326 328 323 322 320 319 318 317
337 338 337 338 338 339 338 339 338 337 336 335 335 335 335 336 335 335 335 335 335 334 333 333 333 333 333 331 330 329 326 326 325 324 325 325 322 319 320 319 318 317 317
336 337 337 336 338 338 338 337 336 335 335 336 336 336 337 336 336 336 336 336 336 334 334 334 333 332 331 331 330 329 324 322 321 323 322 320 319 319 319 318 318 316 315
330 335 337 338 339 338 338 337 337 337 336 336 336 337 337 336 336 336 335 335 335 334 333 333 333 331 329 326 324 325 329 328 323 320 321 321 319 319 317 317 315 314 314
318 325 333 336 335 335 336 337 337 336 335 334 334 335 334 333 332 333 334 333 329 323 318 316 315 316 317 321 324 324 323 325 326 321 319 319 318 316 315 314 313 312 311
315 316 322 334 336 337 336 337 337 334 335 334 333 332 332 334 330 327 317 314 312 312 312 313 315 318 320 321 321 322 323 321 319 319 316 317 317 315 313 311 310 309 308

GFSSE_925_thetae_069.txt.gz
Theta_e
343 344 344 345 345 344 344 345 341 340 343 342 341 343 344 344 344 344 344 342 341 339 336 334 334 335 337 338 338 338 339 335 331 332 338 337 338 337 336 335 333 338 338
343 344 344 345 345 344 343 342 335 342 342 341 340 342 344 344 344 344 342 341 340 338 335 334 337 337 337 337 334 335 335 330 333 337 337 335 334 334 333 333 334 336 339
345 344 345 344 344 344 342 336 336 343 339 337 336 340 343 344 344 343 341 339 339 336 334 334 337 336 334 333 334 334 335 334 336 336 334 333 332 334 333 332 333 334 335
344 344 345 344 344 342 338 336 342 342 336 336 335 337 340 342 343 341 340 338 336 336 335 333 333 332 330 334 335 335 335 335 335 333 332 329 331 332 332 331 330 330 329
344 344 344 344 342 341 338 337 343 335 337 336 335 336 336 338 339 338 338 337 335 334 325 319 330 329 327 331 334 334 334 334 334 333 332 328 325 331 330 328 326 326 327
343 343 344 342 341 341 339 337 341 340 339 335 335 336 337 339 337 336 337 336 332 326 322 319 320 324 324 325 327 329 331 333 332 328 327 330 327 332 330 330 329 328 326
342 343 342 342 341 340 337 334 342 340 339 336 334 335 335 336 337 335 336 333 326 322 321 320 319 321 322 322 322 321 322 323 325 325 324 328 332 332 332 331 330 327 326
342 343 342 342 340 339 332 333 341 340 340 336 334 334 334 334 334 334 334 333 332 325 322 322 321 319 319 322 322 322 322 324 325 326 324 325 331 333 331 329 329 327 324
343 343 343 342 340 336 330 331 339 341 341 338 332 327 327 325 327 326 326 327 329 327 324 323 322 321 320 318 321 321 320 321 321 325 323 321 328 333 332 331 330 329 325
343 344 343 342 340 335 330 329 332 340 343 339 335 330 322 321 324 323 322 323 322 322 322 321 321 320 320 319 318 319 318 318 318 320 322 321 322 331 333 332 331 330 328
345 345 343 341 339 333 328 327 328 335 343 341 335 331 331 323 321 321 321 321 321 320 320 319 319 318 317 317 317 319 317 317 316 317 319 319 319 320 323 329 332 330 330
345 344 344 341 339 334 328 331 335 332 342 342 336 334 332 329 323 321 322 320 319 319 318 318 317 318 320 320 320 319 320 323 319 318 318 318 319 320 322 322 331 331 330
343 342 345 341 339 335 329 330 336 336 338 342 339 335 333 330 328 328 324 321 321 320 319 320 321 321 324 326 324 325 326 326 325 326 325 322 322 321 322 323 325 330 329
339 341 342 341 339 336 333 327 333 338 339 340 339 335 332 334 333 332 331 327 320 322 324 329 330 329 329 330 330 330 330 331 331 331 331 330 327 325 324 326 327 328 328
338 335 337 339 340 338 336 335 331 329 335 338 338 335 331 331 332 331 330 329 325 324 329 332 331 331 331 331 330 331 332 332 332 332 332 331 331 330 328 326 327 328 328
332 325 328 332 338 339 337 336 335 334 330 329 329 327 328 329 329 329 328 330 329 328 330 330 330 331 331 332 333 333 333 333 332 332 332 331 331 330 326 327 326 327 326
332 328 332 330 337 338 339 337 336 336 335 335 335 334 331 330 329 329 328 329 328 327 327 328 329 329 331 332 332 333 333 332 330 331 330 332 330 331 330 328 327 326 327
334 332 333 334 332 338 336 338 337 338 336 336 337 337 335 333 331 330 330 327 327 326 326 327 328 330 331 332 332 330 329 330 329 329 329 332 332 330 330 329 328 324 324
334 333 336 337 332 330 330 336 336 338 337 336 337 337 336 335 334 332 333 330 331 331 330 330 331 332 332 331 330 330 330 329 328 327 328 327 328 329 331 326 325 325 324
338 338 337 333 330 330 332 335 332 336 338 337 337 338 337 336 335 334 334 333 333 334 334 334 332 332 332 332 331 331 330 330 328 328 326 327 328 328 328 325 325 322 320
338 336 336 337 337 337 337 337 337 337 338 336 335 336 335 335 335 335 334 334 335 335 335 333 333 333 333 332 331 330 329 329 328 326 326 325 324 327 325 323 321 320 318
337 337 338 338 338 338 337 337 337 338 338 338 336 335 334 335 335 334 334 334 335 335 335 334 333 333 332 331 331 328 325 326 325 323 324 325 324 322 320 320 319 318 316
331 336 337 337 338 338 338 338 338 337 337 337 335 334 335 335 335 335 334 334 335 336 335 334 333 333 333 331 330 330 326 322 320 322 321 319 318 318 318 319 317 316 315
321 331 335 335 335 336 336 336 337 336 335 335 335 334 335 334 334 334 335 335 333 334 334 332 332 331 331 331 327 323 326 327 324 320 320 319 317 317 317 316 315 314 314
320 322 331 335 335 334 335 333 335 334 333 333 334 334 333 333 333 334 333 332 329 328 328 331 322 317 316 317 319 322 322 323 324 323 320 318 317 316 315 314 313 313 313
316 316 320 328 334 335 335 336 335 334 333 333 332 331 330 331 332 332 331 329 327 325 320 313 312 313 316 318 319 320 321 320 318 318 316 316 315 312 312 311 311 311 310

GFSSE_925_thetae_072.txt.gz
Theta_e
342 343 345 344 344 344 344 342 341 343 342 343 344 344 343 343 344 344 344 341 340 336 334 335 336 338 340 340 339 335 334 335 338 336 335 334 335 335 335 335 336 337 339
342 343 344 344 345 344 344 340 341 342 339 341 344 344 345 345 345 344 342 341 338 336 336 336 337 338 338 337 336 334 329 336 336 334 332 331 332 333 333 331 333 335 337
343 343 344 344 344 343 342 334 342 342 339 340 343 344 344 344 344 341 341 339 335 335 337 338 338 337 334 334 334 334 334 335 333 331 328 329 332 333 332 331 332 332 333
343 343 344 344 344 343 340 336 342 340 336 337 341 344 344 344 343 341 340 338 335 335 337 337 336 334 334 335 336 334 334 333 332 331 326 323 330 330 329 329 328 328 328
343 344 344 343 343 341 338 341 342 337 336 336 338 341 343 344 342 341 338 337 336 335 335 333 330 333 333 334 334 333 333 333 332 328 327 323 329 331 331 329 327 328 327
343 342 343 343 342 339 339 342 340 338 335 335 336 337 340 340 339 338 336 334 334 331 328 330 327 328 330 332 333 333 333 331 325 323 326 327 331 333 332 331 329 328 328
343 343 343 341 341 339 339 342 339 339 336 335 337 337 334 336 337 336 334 334 330 327 323 324 323 323 323 322 322 321 322 324 325 323 324 329 332 333 333 332 331 328 327
343 343 342 340 340 338 334 342 338 338 336 335 335 336 338 336 336 336 333 334 325 321 320 321 322 322 322 322 321 321 322 324 325 324 322 326 332 333 332 330 331 330 325
341 342 341 340 339 335 332 341 340 339 334 333 334 334 335 336 335 334 332 328 324 322 322 321 321 320 320 321 321 320 320 320 322 323 322 322 328 333 331 330 330 329 326
341 342 341 340 338 333 328 334 341 341 337 333 330 331 330 331 333 333 327 326 324 322 323 322 321 320 319 318 319 318 318 317 318 320 320 320 321 332 331 334 332 329 329
340 341 341 340 338 333 328 329 340 342 340 336 332 327 326 326 328 326 325 323 321 321 321 321 320 319 318 317 317 318 317 317 317 317 318 319 319 323 326 325 328 328 329
342 343 344 340 338 333 329 328 333 340 342 339 332 330 326 323 324 323 323 323 322 321 320 319 319 318 319 319 319 318 321 323 321 320 321 319 320 322 324 324 327 330 328
343 343 342 342 338 332 326 327 329 334 341 339 333 332 331 328 323 323 322 321 320 319 319 318 318 319 320 323 322 324 326 327 327 328 328 326 325 323 324 325 327 327 327
340 342 342 340 339 334 329 327 335 332 339 342 338 334 332 329 327 326 323 323 321 320 320 323 325 325 328 329 329 329 330 330 331 331 331 330 329 327 326 326 327 327 327
332 333 339 340 339 336 331 326 335 335 336 339 340 336 332 332 332 331 331 329 324 321 323 329 330 330 330 330 330 330 331 332 332 332 331 331 331 330 328 325 326 327 327
325 328 332 329 332 338 335 329 329 332 337 338 339 338 334 330 331 332 330 329 327 322 329 331 331 331 331 332 332 332 332 332 332 331 330 329 330 331 330 330 326 327 328
327 329 330 329 328 330 337 335 332 331 331 335 334 331 328 328 329 330 329 328 329 328 328 329 329 329 329 331 332 332 332 330 329 329 328 328 330 332 330 328 327 326 327
333 332 327 327 327 327 336 336 335 334 334 330 329 332 332 330 330 329 329 328 328 328 327 327 328 328 330 331 332 330 329 329 329 328 328 326 327 327 329 330 329 326 325
333 328 328 328 328 331 335 333 331 332 335 335 334 334 336 335 334 331 330 331 327 327 327 326 326 328 331 331 330 329 329 330 329 330 327 328 327 327 328 329 326 325 324
334 330 329 330 329 332 331 333 329 328 330 334 335 336 336 336 335 332 331 331 330 331 331 330 331 330 330 330 331 330 329 329 328 328 328 327 327 326 327 327 324 324 322
334 335 332 331 332 331 332 330 329 333 330 330 334 337 337 337 335 334 333 332 333 333 334 334 333 332 332 332 331 330 329 327 326 327 325 324 324 324 327 324 323 320 318
334 336 334 333 334 333 333 330 331 330 330 331 334 337 335 335 335 335 334 334 334 334 335 335 334 333 331 330 331 328 323 324 324 324 323 324 324 324 322 320 319 318 316
328 333 333 334 335 334 334 334 334 334 334 335 335 336 335 334 335 335 335 334 333 334 335 334 333 333 332 332 331 330 326 321 319 321 321 320 320 319 318 317 317 316 316
319 320 333 333 334 334 333 334 334 333 334 333 332 333 333 334 334 335 333 333 333 333 331 331 333 331 331 330 329 328 328 326 320 317 319 318 317 317 316 317 316 315 315
317 318 318 330 333 333 334 332 331 332 332 331 330 332 332 332 333 334 332 332 331 329 325 325 325 326 321 318 317 319 321 321 324 320 318 317 317 316 316 315 314 313 313
315 315 316 318 329 333 333 333 334 333 332 332 332 332 331 331 331 330 329 330 328 326 325 323 322 315 312 314 316 318 319 318 317 317 317 316 315 314 314 312 312 312 311

GFSSE_925_thetae_075.txt.gz
Theta_e
343 344 344 344 345 344 340 340 343 341 342 343 341 343 343 342 340 344 344 342 337 337 337 337 340 339 336 337 338 338 339 337 334 331 332 334 336 337 336 335 337 338 338
344 345 344 344 345 343 341 339 342 339 342 344 343 342 344 344 345 344 342 339 337 337 337 338 340 339 338 337 335 336 337 333 330 328 328 331 332 333 330 329 333 336 339
345 346 345 343 343 342 337 340 341 338 341 343 344 344 343 345 344 343 340 338 338 337 338 339 339 338 337 334 332 337 336 331 328 325 324 330 330 331 330 329 328 329 334
345 346 346 344 343 342 335 342 340 339 337 344 344 344 345 344 342 342 339 336 338 338 338 338 337 335 335 334 334 337 332 331 328 321 328 330 330 332 331 330 329 327 326
345 345 345 343 343 342 335 342 341 334 330 343 342 343 344 342 341 340 338 336 337 337 337 335 334 334 336 336 336 336 332 331 327 327 329 331 332 333 332 330 329 329 329
344 344 344 343 343 337 337 342 340 332 336 340 343 343 342 341 340 337 336 335 334 335 334 331 332 333 333 335 336 334 331 325 324 327 331 332 334 334 334 332 330 329 329
343 343 343 342 340 333 340 342 337 336 336 338 340 341 341 339 338 335 335 335 332 332 330 327 327 328 327 326 324 324 324 325 323 324 328 332 333 334 333 332 332 329 328
342 342 342 341 339 336 342 340 336 336 335 336 336 338 338 338 335 335 334 334 333 329 326 324 323 322 322 321 321 322 323 324 323 321 324 330 333 333 332 329 330 329 326
342 342 341 340 340 335 342 339 337 334 334 334 336 334 334 336 335 335 333 333 332 329 323 322 322 322 322 321 320 320 319 320 323 321 321 324 330 333 330 332 330 328 325
341 342 340 339 339 334 339 340 339 336 330 332 333 335 335 334 334 334 333 333 330 324 324 323 322 320 319 320 319 318 317 317 319 320 320 320 323 333 331 333 330 327 327
341 341 340 339 337 330 330 341 340 338 334 328 331 331 332 334 334 333 329 327 323 323 322 322 321 320 319 317 318 318 317 318 317 318 319 320 320 325 326 325 327 328 327
339 340 340 339 336 330 327 336 341 341 338 334 329 326 326 327 327 325 324 323 322 322 321 320 319 318 317 318 317 318 321 323 323 323 323 321 322 324 325 326 327 328 327
335 339 339 339 337 333 327 329 339 341 339 337 331 328 325 326 326 324 323 323 322 321 320 319 318 318 319 320 320 322 326 327 328 329 328 328 326 325 326 326 327 327 327
329 338 340 340 337 332 327 326 331 338 341 339 333 331 330 326 323 323 323 321 320 319 319 318 319 320 325 327 327 328 330 330 330 330 330 330 330 329 327 327 327 327 328
327 327 340 340 338 333 329 326 328 330 338 340 338 333 331 329 327 324 323 324 322 321 320 324 326 328 329 329 330 330 331 331 331 331 331 330 329 329 330 329 326 327 329
326 327 333 337 337 336 333 328 333 334 332 338 340 338 335 331 331 330 330 329 327 322 322 324 330 330 330 331 331 332 332 332 331 329 329 328 328 329 330 330 329 327 330
327 327 326 327 332 334 336 332 329 336 337 338 339 339 338 334 330 330 331 329 328 327 324 329 330 329 329 330 331 331 332 330 329 329 329 328 327 327 327 329 329 328 328
324 326 327 329 328 330 334 334 333 331 331 334 338 339 338 334 329 329 330 329 328 329 327 327 328 328 329 330 331 331 329 329 329 329 329 328 327 327 326 327 327 329 328
326 326 327 328 329 328 333 332 334 334 334 334 332 329 330 331 329 329 330 330 328 327 327 327 326 327 329 331 331 330 328 329 330 329 329 328 327 327 326 327 327 326 325
330 328 329 328 327 328 330 333 333 332 330 330 333 333 333 333 331 332 332 331 330 327 326 326 326 327 330 330 330 330 328 329 328 327 326 327 326 326 326 327 327 323 324
331 331 330 329 328 326 325 333 333 330 328 329 328 329 329 329 335 335 333 331 330 330 330 331 330 329 330 331 331 329 329 328 326 325 325 324 323 323 325 325 323 323 321
332 333 331 330 329 327 331 331 330 330 330 328 328 327 328 330 334 335 335 334 331 332 332 333 333 333 333 331 330 327 329 326 323 323 322 323 323 323 324 323 322 320 318
326 331 331 331 330 331 332 332 332 331 331 331 329 330 329 331 334 333 334 334 333 332 333 334 333 333 332 331 331 329 329 327 323 322 321 320 321 321 320 320 318 317 316
319 319 329 331 332 331 331 332 331 331 331 328 332 329 331 332 332 332 332 333 333 332 332 333 331 330 330 331 329 328 327 326 326 322 319 318 317 317 316 316 316 315 314
314 315 316 319 331 331 331 331 332 332 329 325 327 326 327 328 331 331 331 331 331 331 328 326 325 323 323 325 323 319 319 320 320 321 321 320 317 316 315 315 315 314 313
313 313 315 317 324 331 331 331 331 330 329 329 330 330 329 330 331 331 330 330 329 328 327 325 324 323 323 318 314 315 317 318 319 317 318 318 318 317 316 315 314 313 311

GFSSE_925_thetae_078.txt.gz
Theta_e
344 346 344 344 345 343 344 344 344 342 341 339 344 345 340 338 341 345 344 340 338 338 339 338 338 339 340 341 341 340 338 332 330 331 333 335 336 337 336 337 338 339 340
344 346 344 344 345 344 343 342 342 340 342 339 343 345 345 344 344 344 342 340 338 339 340 341 338 336 339 339 339 338 331 327 326 327 327 325 331 332 330 332 337 337 338
345 346 345 344 344 343 339 342 340 341 343 340 341 343 344 344 345 344 340 339 339 339 340 339 338 339 338 338 338 336 331 326 323 328 329 329 330 331 330 329 329 332 335
345 345 346 344 343 341 337 342 338 340 342 342 339 341 342 345 344 342 340 339 338 339 339 339 338 338 336 337 337 334 330 325 323 330 330 331 330 332 332 331 331 329 329
344 344 345 343 342 339 338 342 339 336 343 342 341 343 344 344 342 340 338 338 338 338 337 337 337 337 335 336 336 333 329 326 327 330 333 333 333 333 332 331 330 330 330
345 345 345 343 343 338 340 341 340 332 343 342 342 343 342 341 340 338 337 337 337 337 337 335 335 336 336 335 336 330 325 325 331 332 333 333 334 334 334 332 330 330 330
344 344 345 342 343 335 341 341 338 327 341 342 342 342 342 340 338 337 336 336 336 336 334 332 333 333 334 334 332 326 325 325 330 331 332 333 333 334 334 333 330 329 330
343 344 344 342 341 334 342 341 335 330 335 342 342 342 343 340 337 335 335 336 336 335 331 329 327 324 322 322 322 324 324 325 328 330 332 332 333 334 333 332 331 329 328
342 343 343 343 338 339 342 340 330 327 334 338 340 340 339 337 335 334 335 334 334 334 329 324 323 322 321 321 321 322 320 324 327 327 329 332 331 333 332 331 329 328 325
342 343 343 342 339 342 341 337 334 327 333 333 333 335 336 334 334 334 335 335 334 328 325 323 322 322 321 320 319 318 317 320 325 325 326 327 328 334 332 333 327 327 326
328 342 342 342 340 339 341 340 337 330 330 334 334 334 333 334 333 333 333 333 329 325 324 322 321 319 318 319 318 317 317 319 323 324 325 320 323 328 327 326 327 328 327
324 341 340 341 339 337 340 341 340 337 333 331 332 334 333 333 333 332 333 331 327 325 323 322 321 320 318 320 320 317 323 323 322 323 324 322 323 327 327 327 327 328 327
325 327 340 340 338 334 335 341 340 340 337 334 330 330 330 332 333 331 331 330 329 324 327 325 323 322 322 322 323 322 325 326 327 328 327 327 326 326 328 327 327 328 327
326 329 339 339 339 333 332 339 341 341 340 339 333 330 330 331 331 330 329 329 328 326 326 325 324 323 323 325 325 327 329 330 330 330 330 330 330 329 328 327 327 327 328
326 328 328 339 339 336 333 333 339 340 341 339 335 333 332 330 329 328 328 327 326 325 324 323 324 325 327 330 331 331 331 331 331 331 331 330 329 329 329 330 328 328 330
324 325 328 336 338 335 333 332 334 337 341 339 338 336 334 332 331 329 329 329 329 326 325 325 328 330 331 332 332 332 332 332 332 332 331 330 328 328 328 330 330 329 330
325 325 327 327 332 335 334 334 335 335 336 340 339 338 336 334 333 333 333 333 331 329 325 327 329 332 332 333 332 333 332 332 331 330 331 330 330 329 327 326 328 328 328
327 327 326 326 328 333 333 333 334 337 337 337 338 337 337 337 335 332 332 333 332 330 328 329 331 331 330 331 332 332 331 331 331 330 331 330 330 330 330 328 327 327 329
327 327 326 327 328 330 335 335 332 331 334 335 336 337 338 337 335 333 332 333 332 330 330 329 329 329 330 332 332 332 331 330 330 330 329 330 330 329 329 329 327 328 327
327 326 326 326 328 329 332 330 334 334 334 336 336 335 333 332 332 332 332 333 332 330 329 330 328 328 331 332 331 329 328 330 330 329 328 326 326 327 327 328 327 326 324
327 327 328 326 328 331 334 331 331 330 334 333 332 335 336 335 334 335 331 330 332 331 329 328 329 330 331 331 330 330 330 329 329 327 325 324 325 325 325 326 327 327 323
330 328 328 329 329 328 331 329 330 331 331 331 332 333 333 334 331 332 331 333 330 331 332 330 331 332 332 331 331 331 330 328 326 324 323 323 323 323 324 324 324 323 321
329 329 329 329 329 328 326 329 331 331 330 329 330 331 332 330 330 331 331 330 331 328 332 333 333 334 333 332 330 329 330 328 326 324 323 321 321 322 321 321 319 318 317
327 325 329 330 329 328 328 329 331 329 330 329 329 329 327 329 331 331 330 331 331 330 329 332 334 333 332 331 330 329 329 329 327 322 321 321 320 320 320 318 317 315 315
313 315 319 328 330 330 330 330 329 329 328 329 325 325 329 326 325 326 327 330 331 331 331 330 331 329 328 326 326 324 323 324 323 322 320 318 320 319 318 317 315 314 314
314 315 317 324 328 330 331 331 331 330 330 329 327 326 327 328 327 326 327 329 326 329 330 329 327 323 323 323 322 319 316 319 320 320 320 318 318 318 318 316 315 313 312

GFSSE_925_thetae_081.txt.gz
Theta_e
346 348 344 345 346 344 344 343 335 330 332 340 348 344 339 340 345 345 344 341 339 339 338 338 340 340 340 343 341 337 336 332 330 331 335 334 337 337 337 339 340 340 339
345 347 344 344 346 344 344 343 342 339 334 340 346 346 345 345 345 344 343 340 339 340 338 339 340 340 341 341 338 334 326 323 325 326 323 322 326 330 332 336 337 338 338
344 346 346 344 344 343 341 341 341 341 340 339 343 344 345 345 345 344 342 339 340 341 341 337 338 339 340 339 336 330 320 324 329 329 330 330 331 332 330 329 331 334 334
344 346 346 344 344 341 341 341 340 341 342 337 343 343 343 345 345 343 341 339 339 340 338 337 339 339 339 337 332 327 319 327 330 331 331 331 331 333 332 332 332 331 330
345 345 346 344 344 340 341 341 339 342 341 337 343 342 343 344 344 342 340 338 339 338 338 338 337 337 337 337 334 326 323 327 331 333 334 334 334 333 332 331 331 331 331
344 345 346 343 343 338 339 341 337 341 342 339 342 341 342 344 342 340 337 337 337 337 337 337 338 335 335 336 331 324 324 331 332 333 334 334 334 333 333 331 331 331 331
344 344 346 342 342 337 340 341 337 338 342 341 340 341 343 342 339 339 337 337 336 337 337 336 336 337 335 335 328 324 324 330 332 333 333 334 333 334 333 333 331 331 331
344 344 345 342 342 336 342 341 337 329 342 342 342 342 342 339 338 336 337 336 336 336 335 333 332 333 332 329 325 324 323 328 330 332 333 334 333 334 333 332 330 329 328
338 343 344 343 342 336 342 341 336 323 342 342 342 342 340 338 335 336 335 337 337 335 332 329 325 322 322 321 322 321 322 328 328 330 332 334 331 333 332 328 328 327 325
330 339 342 342 341 340 342 341 332 326 337 342 341 340 339 337 334 334 333 336 336 333 328 324 323 322 321 320 319 318 318 324 327 327 328 329 329 334 332 334 327 327 326
328 330 338 341 340 339 340 339 331 329 334 338 337 337 336 334 333 333 333 334 334 330 326 324 322 322 320 319 318 317 317 323 325 326 326 322 325 330 328 327 327 328 326
324 324 326 328 340 339 341 338 335 332 333 332 336 334 336 334 333 333 335 332 331 326 324 323 321 319 318 321 319 317 323 323 323 325 326 323 325 328 328 327 328 328 327
325 324 325 325 329 338 340 338 336 333 329 332 334 334 333 333 333 334 334 332 331 325 327 323 321 320 321 322 323 322 325 326 327 328 326 327 327 328 328 328 327 327 327
323 323 324 326 325 338 339 338 338 334 331 330 331 332 332 333 333 331 331 330 330 326 328 327 326 324 323 324 324 325 328 329 330 330 330 330 330 329 328 329 330 330 328
324 324 325 324 326 336 334 337 338 340 335 332 330 329 331 331 331 330 329 329 329 327 326 326 325 324 324 326 328 329 331 331 331 331 331 331 328 329 329 329 330 330 331
325 326 325 324 327 333 332 338 338 339 339 337 333 331 330 329 329 329 328 328 327 326 325 325 324 326 327 329 331 332 332 332 331 331 331 331 330 328 326 327 328 328 329
327 325 324 327 325 330 332 333 336 338 339 339 338 334 334 333 331 329 329 329 330 329 326 325 326 329 330 330 331 332 332 332 332 331 330 330 329 330 330 328 326 327 328
327 325 325 326 325 331 334 333 333 335 336 337 338 338 336 335 333 333 333 334 332 331 329 325 327 329 331 331 332 332 332 332 331 330 330 330 329 329 329 330 329 327 327
328 327 326 326 326 330 333 332 334 335 336 335 337 338 338 338 337 335 331 333 333 332 331 328 329 331 330 330 331 332 331 331 329 329 329 329 329 329 329 329 329 327 327
329 328 328 327 329 329 332 331 333 335 336 336 337 337 338 338 337 335 333 334 334 333 331 331 329 329 329 330 331 331 331 329 331 329 328 327 325 325 327 328 329 327 327
328 328 328 328 327 327 330 331 331 332 333 334 337 336 335 334 334 334 333 333 333 334 332 331 330 329 329 331 332 331 330 329 330 329 327 324 323 325 326 327 328 327 325
328 326 326 327 328 329 330 329 330 331 330 332 334 334 333 334 334 333 333 334 333 332 332 333 329 330 330 332 332 331 333 330 328 327 324 323 322 324 325 326 327 326 324
327 327 327 327 328 327 327 327 328 328 329 330 332 332 332 332 332 332 331 332 331 330 330 331 331 330 333 332 331 332 331 331 328 325 326 322 321 322 323 324 324 322 321
325 323 325 327 328 323 326 327 328 329 330 330 329 329 328 326 329 330 331 331 329 330 330 330 330 331 332 332 331 329 330 330 327 325 323 322 321 321 321 321 320 319 318
323 325 325 326 325 327 327 327 327 328 327 327 326 328 324 324 328 327 326 327 330 330 330 331 330 331 332 331 330 328 327 328 326 325 322 320 321 320 319 319 319 318 316
316 317 318 321 328 329 329 328 328 329 329 327 327 327 324 327 327 326 325 325 328 327 326 327 328 329 329 326 324 321 319 318 318 319 319 319 319 318 319 318 318 316 315

GFSSE_925_thetae_084.txt.gz
Theta_e
348 343 342 341 340 337 335 334 333 334 343 345 345 342 340 343 344 345 343 341 339 339 339 343 344 344 343 338 337 336 333 330 333 332 334 336 338 339 339 339 337 337 340
348 343 344 343 342 342 338 335 332 331 336 345 345 346 345 345 345 345 342 340 339 339 339 340 340 343 341 337 335 325 320 324 325 327 322 322 328 333 335 336 337 336 338
348 345 343 345 343 342 340 337 335 333 330 342 345 345 345 344 345 344 341 340 339 339 339 339 339 339 339 336 324 319 328 329 330 330 330 328 329 332 331 330 332 332 335
347 346 344 344 344 343 340 341 340 339 334 338 343 343 343 345 345 344 341 340 341 337 337 338 338 339 337 331 321 322 329 330 330 331 331 331 332 333 333 332 332 331 330
347 345 344 344 343 341 342 340 339 341 339 338 342 343 343 344 344 343 340 339 338 337 336 337 337 338 336 328 323 320 330 332 334 334 334 333 332 333 333 332 331 331 331
346 345 344 343 343 339 342 340 339 341 340 336 343 342 342 344 342 341 337 338 337 336 337 335 335 336 335 329 321 324 331 332 333 333 334 333 332 332 332 332 331 331 331
345 345 345 343 342 339 340 341 336 342 341 334 342 342 341 343 342 338 337 337 336 337 336 337 334 333 335 330 323 325 330 331 333 333 333 332 333 333 333 331 331 331 331
344 345 345 342 341 337 339 341 335 340 341 337 340 339 342 342 340 337 337 336 337 336 336 337 336 337 335 330 324 323 329 330 332 333 333 330 332 334 333 331 328 329 328
338 342 343 341 340 337 339 341 337 337 341 341 339 341 342 339 338 337 336 336 337 336 335 333 333 332 327 324 323 322 327 329 330 331 333 330 329 334 331 328 327 326 326
335 333 335 340 340 337 339 341 336 328 341 342 342 342 339 337 334 335 335 335 335 334 332 328 324 322 321 320 320 318 324 327 327 328 331 330 328 333 330 331 327 326 325
333 333 326 324 328 330 338 341 337 328 341 342 342 340 337 336 332 333 334 335 334 332 327 325 322 321 320 319 317 317 319 324 326 326 326 323 325 329 327 327 327 326 325
329 330 328 324 324 324 326 338 334 330 339 340 339 338 336 334 333 332 333 334 334 329 325 323 321 320 320 319 318 317 323 321 324 325 326 324 326 328 328 327 328 327 327
325 325 325 324 322 323 324 332 335 332 336 337 336 335 335 332 334 334 333 331 330 325 323 322 320 319 318 322 322 320 324 325 324 326 325 327 327 328 329 329 328 327 328
324 323 323 322 323 324 323 326 335 331 332 332 336 335 335 332 332 334 332 328 325 323 324 323 322 319 322 323 323 323 324 327 328 328 329 329 329 329 328 328 329 329 327
326 323 323 324 324 324 327 330 335 331 330 332 334 333 333 334 332 333 330 329 330 327 329 327 327 325 323 323 324 325 327 330 330 330 330 330 330 327 327 327 328 330 330
326 324 324 325 325 325 330 332 335 333 331 330 332 332 332 332 331 330 329 329 329 328 326 326 325 324 324 324 327 329 330 331 331 330 331 330 330 329 328 327 326 326 328
326 326 325 325 326 328 330 332 334 335 332 331 330 329 330 330 330 329 328 328 327 326 325 325 324 325 327 328 330 331 332 332 331 331 331 330 329 329 330 329 329 326 326
327 327 326 326 327 329 331 333 332 334 335 333 331 330 332 330 329 328 328 327 328 328 328 326 325 326 329 330 331 331 332 332 331 331 329 329 330 329 329 329 329 329 327
327 327 326 326 326 326 327 328 332 334 334 334 334 334 334 333 332 332 333 333 333 332 330 328 325 327 329 330 330 331 332 331 330 329 329 329 329 328 329 329 328 328 327
327 328 327 326 326 326 324 325 328 334 335 334 335 336 335 337 336 335 333 332 333 333 332 330 328 329 330 330 330 330 331 330 330 329 329 328 327 325 325 327 328 327 326
329 328 328 327 325 329 331 329 330 332 334 336 335 336 336 336 335 336 334 332 334 334 333 331 331 330 329 329 331 331 330 330 328 329 329 328 323 324 324 324 328 328 325
327 328 328 328 327 325 329 329 330 331 331 331 333 334 334 334 334 334 333 333 333 333 333 333 332 331 330 329 330 331 330 330 329 329 327 324 322 323 323 325 327 326 324
323 326 327 327 328 327 328 328 327 329 328 329 329 331 332 332 332 332 332 332 333 332 330 330 331 332 331 330 330 330 328 326 326 326 325 323 321 322 323 324 325 325 323
325 324 326 327 326 327 326 325 327 327 328 328 329 329 329 329 329 329 329 330 330 330 330 329 329 329 330 329 327 328 330 329 323 322 325 323 321 320 322 322 321 322 321
319 324 323 324 327 324 324 324 325 326 327 326 326 327 326 327 324 327 328 330 330 329 329 328 328 329 329 329 329 329 329 328 325 323 321 320 321 320 320 321 320 319 318
316 318 320 324 322 323 323 324 326 326 326 326 326 324 325 324 324 326 327 326 326 328 329 329 329 329 330 327 328 327 324 319 316 316 317 318 317 318 320 319 319 318 317

GFSSE_925_thetae_087.txt.gz
Theta_e
346 340 341 339 339 338 337 343 346 347 342 341 340 341 342 342 345 344 340 337 341 343 344 344 344 341 338 338 337 337 339 337 331 334 336 337 339 339 337 336 335 336 337
345 341 336 335 337 339 338 335 338 344 344 344 344 343 345 345 345 344 341 339 339 342 344 344 344 339 337 335 332 324 323 327 325 318 326 328 333 334 334 334 335 335 336
344 339 337 337 337 337 337 335 334 336 343 344 344 344 346 344 345 344 341 339 339 340 339 342 342 339 336 323 325 329 329 330 330 330 323 324 328 332 332 332 331 333 334
345 341 338 339 339 339 339 336 333 330 337 343 343 343 343 345 344 343 340 339 338 338 338 338 337 333 326 318 328 329 330 330 330 331 331 329 333 334 333 333 332 330 330
345 342 343 343 341 341 340 339 337 334 331 340 343 342 343 344 343 342 340 339 336 336 337 338 337 332 325 319 328 330 331 334 333 333 332 329 329 333 333 332 331 332 331
347 344 342 341 342 341 341 340 339 340 337 337 342 342 342 343 342 340 339 339 336 336 335 337 337 334 326 321 327 331 332 333 334 333 333 330 332 333 332 332 332 332 331
346 345 343 342 342 340 343 339 339 340 339 334 341 342 341 342 341 338 338 337 335 336 336 335 335 335 327 321 326 331 332 333 333 333 332 328 333 334 332 331 331 332 331
345 346 344 342 342 338 340 339 338 340 341 332 341 341 341 341 340 337 336 336 335 336 336 335 333 334 330 322 324 330 331 332 333 333 333 325 332 333 332 329 330 330 330
343 345 344 342 340 338 338 338 337 336 341 333 339 340 340 340 339 336 335 335 336 336 337 336 336 336 331 323 322 328 329 330 332 333 332 326 329 334 331 327 326 325 324
340 342 340 337 334 336 338 338 338 332 340 339 338 339 341 340 338 336 335 335 336 336 336 335 334 330 323 322 320 324 328 328 329 329 332 328 327 332 329 326 325 324 324
333 335 335 332 330 328 327 326 332 334 337 340 338 340 340 339 336 335 334 334 335 334 331 329 324 321 320 319 317 319 326 326 325 327 326 323 326 327 326 326 326 326 325
333 334 333 334 333 330 327 325 324 332 331 340 341 340 337 335 334 334 334 333 333 331 328 323 321 321 319 318 317 317 321 322 325 326 326 325 326 327 327 326 326 326 326
330 329 330 331 330 329 324 323 323 325 331 336 340 338 335 334 331 333 333 333 333 330 325 323 321 320 319 320 320 318 324 322 323 323 325 326 327 328 328 328 327 327 327
330 327 326 327 324 325 323 322 322 324 328 334 339 335 334 334 331 331 333 332 333 328 323 321 319 318 318 322 322 322 323 326 325 325 327 328 328 328 328 328 328 329 329
328 326 323 323 322 322 323 324 324 325 327 333 337 335 333 333 332 333 332 329 326 323 321 321 320 319 321 322 323 323 324 327 329 329 329 329 329 328 327 327 326 328 330
328 326 323 323 324 323 325 326 327 327 331 333 336 335 335 332 333 333 332 329 323 323 326 327 326 326 324 323 323 325 326 328 330 330 329 329 328 329 329 326 326 326 326
328 326 324 324 325 325 325 328 328 331 330 331 333 334 334 333 332 333 330 327 329 328 327 327 326 325 324 324 324 327 330 331 331 331 330 330 330 329 329 329 328 328 326
328 326 324 325 325 325 328 329 327 332 329 331 333 333 332 333 331 330 329 329 329 327 326 325 324 324 324 327 328 330 330 331 331 331 331 329 328 329 329 329 329 329 328
328 327 326 325 325 328 331 330 329 332 331 330 331 331 330 330 330 329 328 328 327 326 326 325 325 325 326 329 330 330 331 331 330 331 330 329 328 329 329 329 328 328 328
327 327 326 326 325 326 328 331 330 332 332 331 329 329 330 329 328 328 327 328 330 330 330 329 327 325 327 329 330 330 330 331 331 329 329 328 328 326 325 325 326 327 325
327 327 327 326 326 327 326 327 330 331 332 332 331 330 332 332 331 331 332 332 333 332 331 331 330 328 329 330 330 330 329 330 329 329 328 328 327 324 323 322 325 327 326
326 328 328 327 326 327 325 325 327 329 326 331 331 331 332 334 334 335 334 331 333 334 333 332 331 331 330 329 328 330 329 330 330 329 328 326 326 323 322 321 326 327 324
323 324 327 328 327 327 329 329 329 329 330 328 328 329 330 330 332 331 332 332 333 333 333 332 332 332 331 330 329 329 328 328 324 327 328 324 323 322 322 323 325 326 324
320 323 325 326 328 327 327 328 327 327 327 328 329 329 328 329 330 330 330 330 330 331 330 330 330 330 330 330 329 330 329 329 326 324 323 323 322 321 321 323 323 324 324
318 320 323 324 326 326 326 325 326 326 327 327 328 328 328 327 325 327 327 328 329 329 330 329 329 329 329 328 329 329 328 328 327 322 321 319 320 320 320 322 322 321 321
318 319 320 322 322 323 325 325 325 326 326 326 325 325 324 325 324 323 325 326 329 331 331 330 329 329 329 329 329 328 328 326 322 320 318 318 318 320 320 319 320 320 319

GFSSE_925_thetae_090.txt.gz
Theta_e
346 345 346 346 343 345 347 345 345 340 339 339 343 344 346 345 345 342 332 341 343 343 342 345 342 342 342 340 340 340 337 335 337 336 338 338 339 340 336 333 334 335 338
345 344 345 346 344 342 346 345 345 342 341 343 345 345 346 347 345 340 338 343 344 345 344 344 340 338 336 336 337 336 330 322 327 330 332 334 334 334 333 334 333 334 336
344 342 343 344 344 340 341 344 345 344 342 343 344 346 346 344 345 342 339 341 343 344 344 342 338 336 333 332 333 334 332 329 326 323 322 324 329 333 333 332 332 333 333
343 339 338 342 343 339 338 336 337 342 343 343 343 344 344 344 343 342 340 340 341 341 342 341 337 325 323 332 335 334 331 330 331 329 327 331 333 333 333 332 332 330 330
343 338 337 337 339 338 337 335 333 333 340 341 341 342 343 344 342 342 339 337 337 337 339 338 326 318 325 330 332 330 332 331 332 331 326 327 330 333 333 332 332 331 331
343 340 337 337 337 337 336 336 335 332 330 341 342 341 342 343 341 341 337 337 337 337 337 336 328 321 327 329 330 333 333 333 333 332 329 329 331 333 333 332 332 331 331
345 343 343 341 338 340 340 339 336 339 338 335 341 341 340 342 341 338 339 336 335 336 336 337 332 323 320 329 331 332 332 333 332 331 326 330 333 333 332 332 332 331 331
345 345 343 341 340 339 341 338 338 338 340 336 337 340 340 341 340 336 338 336 335 335 336 337 335 325 320 328 331 331 331 332 333 332 326 327 332 333 332 331 330 329 327
345 344 344 342 341 340 340 340 339 337 339 339 333 339 339 340 340 336 336 335 335 334 333 335 335 330 321 324 330 330 330 332 332 332 327 325 330 333 329 326 324 325 325
342 343 342 341 339 338 337 335 336 336 338 340 333 337 338 339 339 337 335 335 335 336 338 332 334 334 324 321 328 328 329 330 332 331 332 326 328 333 328 326 324 324 324
337 340 341 339 337 335 333 329 330 333 331 337 335 338 338 339 339 336 334 334 335 336 337 335 335 330 322 320 320 327 327 329 328 329 327 323 327 330 327 325 325 325 324
331 333 334 335 336 335 333 330 329 327 326 329 337 337 337 340 337 335 334 334 334 335 335 334 330 322 320 319 317 323 325 325 325 326 326 324 326 327 326 326 326 326 326
332 333 332 332 333 332 333 334 332 330 326 324 325 337 339 340 337 335 333 334 334 334 331 328 323 321 319 318 317 318 321 322 324 325 325 324 326 327 327 326 326 327 327
330 330 330 329 329 330 329 327 326 325 327 324 326 333 336 337 335 334 334 333 333 332 328 324 322 320 319 318 319 318 323 323 322 323 325 326 327 328 328 327 327 328 329
330 328 326 326 327 323 323 324 323 324 325 324 326 329 335 332 334 334 334 333 332 331 325 322 321 319 317 321 321 322 322 324 325 325 325 327 329 329 327 327 327 327 329
328 328 326 323 323 323 323 323 324 324 325 325 326 328 333 332 332 333 333 333 333 331 324 321 319 319 318 321 322 323 323 324 327 328 328 328 328 328 328 327 326 326 326
328 328 326 322 323 323 323 324 325 326 325 326 327 328 330 334 333 330 331 332 329 328 322 321 322 323 322 323 323 323 324 326 328 329 330 328 329 328 329 328 327 327 327
327 327 326 325 323 324 325 324 325 328 329 328 330 332 330 334 333 332 332 331 327 322 321 326 327 326 326 324 323 324 327 329 330 331 331 330 329 327 327 329 328 328 328
326 327 326 325 323 324 325 325 326 327 331 331 331 333 330 333 333 332 332 331 324 326 326 326 327 325 323 323 325 326 328 330 330 331 331 330 329 327 328 329 329 328 328
328 328 326 325 324 324 325 328 329 328 328 329 329 331 332 333 333 332 332 328 327 329 328 325 324 324 324 326 329 330 330 330 330 331 331 328 329 328 328 328 328 327 325
327 327 326 326 325 325 325 326 327 329 330 329 328 328 329 331 331 331 329 329 328 327 325 325 325 325 325 327 329 329 329 329 330 330 329 329 327 327 326 324 323 322 324
326 326 326 326 326 326 325 326 327 329 330 331 330 329 327 328 330 330 328 327 327 327 328 329 329 327 326 328 329 328 328 329 330 329 328 327 327 326 324 323 321 321 325
321 323 326 327 327 327 326 326 326 328 328 331 331 329 329 328 328 328 328 329 332 333 331 330 330 330 329 329 328 328 327 329 325 326 328 325 324 324 323 322 320 323 326
318 322 324 326 326 327 326 327 326 328 328 327 330 329 328 327 327 328 329 331 332 333 332 331 331 330 330 330 329 329 329 327 324 325 323 321 321 322 323 321 321 323 325
318 320 322 323 323 327 327 326 326 327 328 328 328 328 328 327 328 328 328 328 329 329 329 329 330 330 330 329 329 329 329 328 328 324 324 320 320 320 320 323 323 322 322
315 318 319 318 321 322 324 324 325 325 326 326 327 327 327 327 326 326 324 324 326 327 328 328 328 328 328 329 328 328 328 327 323 321 319 319 321 320 320 320 321 322 321

GFSSE_925_thetae_093.txt.gz
Theta_e
346 345 345 345 346 347 346 341 339 339 342 345 345 346 347 345 343 340 333 339 340 342 344 343 342 340 340 340 339 340 336 336 336 337 337 339 339 337 335 334 334 337 339
346 345 345 345 346 347 345 344 340 338 339 344 347 347 346 346 344 340 342 343 343 343 345 342 340 340 338 341 337 332 332 332 333 335 335 334 334 334 334 334 333 335 336
345 345 345 344 345 345 345 344 343 339 339 344 345 345 345 344 343 341 343 343 344 344 344 339 337 336 336 337 332 331 329 321 323 326 325 325 333 333 332 332 333 332 332
345 344 344 344 343 344 344 345 344 341 342 343 343 343 345 343 343 340 342 343 344 343 342 338 336 333 334 335 335 335 330 329 326 326 327 331 333 333 333 332 331 330 330
344 344 343 343 342 339 338 341 343 343 342 342 342 342 343 344 341 342 340 342 343 342 341 335 333 334 336 336 336 332 330 331 330 325 328 328 330 333 333 332 332 331 331
343 341 341 342 342 337 335 334 334 338 342 341 340 342 341 343 341 341 338 339 339 339 338 329 320 329 333 332 333 332 331 332 330 327 326 328 331 333 333 332 332 332 331
343 340 340 340 338 337 337 335 333 332 333 341 340 341 341 343 341 340 336 336 335 337 337 331 320 329 330 331 333 333 332 332 331 326 327 329 333 333 333 332 332 331 331
344 342 338 336 336 337 338 338 336 339 340 334 339 341 340 341 340 339 336 336 335 336 336 333 323 324 328 331 331 331 332 332 331 328 326 329 332 333 332 332 331 331 331
344 343 344 341 340 340 340 339 339 339 340 340 335 338 340 339 339 337 338 334 335 336 336 336 328 321 326 330 330 331 331 332 332 329 324 326 331 333 331 328 328 328 327
341 343 342 341 340 340 339 338 337 337 338 340 339 333 339 339 339 337 337 335 334 334 335 336 333 322 322 329 330 330 330 332 331 330 329 325 331 334 329 325 324 324 324
336 339 340 340 339 338 337 335 334 333 329 333 338 336 338 338 339 337 337 335 334 333 334 334 333 330 321 325 329 328 328 330 330 329 329 324 328 334 331 325 325 325 324
331 334 336 337 337 336 335 332 333 334 331 328 328 337 338 338 339 338 336 334 334 335 338 333 333 334 324 321 323 327 326 328 327 328 326 324 326 330 328 325 325 325 326
328 331 333 334 335 334 334 331 330 332 330 330 328 325 335 338 339 338 335 334 334 335 336 335 334 330 322 320 319 324 325 325 325 325 325 324 325 332 328 326 326 326 326
332 332 332 333 334 335 334 334 333 331 331 330 330 327 327 336 338 337 335 334 334 335 335 335 333 324 320 318 317 317 324 323 322 324 324 324 325 328 329 328 327 328 328
330 331 331 331 332 333 333 332 326 327 326 328 327 326 326 334 337 336 334 334 334 334 334 332 328 321 320 318 317 317 319 321 321 322 324 325 327 328 328 328 329 331 332
329 329 328 328 327 327 326 323 323 322 323 323 324 325 325 329 333 334 334 333 333 334 333 330 324 321 320 318 320 320 320 321 323 325 324 325 327 328 328 328 328 328 328
324 328 327 327 326 326 322 322 323 323 323 323 324 325 325 326 332 331 333 333 326 332 333 328 325 322 319 317 320 321 322 322 323 325 328 328 327 327 327 328 328 327 327
314 323 327 326 323 322 323 323 323 324 324 325 324 326 327 327 328 333 331 333 332 332 332 329 324 322 320 318 320 322 322 323 324 326 328 329 329 328 327 328 328 328 328
315 322 326 326 324 323 323 324 324 325 324 325 327 327 328 330 330 332 330 332 321 323 332 330 323 322 323 324 325 323 323 324 327 329 330 330 330 329 327 327 328 328 328
320 324 326 326 325 325 323 324 325 327 328 328 327 328 330 331 332 332 332 328 329 331 330 328 323 326 326 325 324 323 324 325 328 329 330 330 330 330 328 327 328 328 328
324 326 326 326 325 324 325 325 326 327 326 328 329 330 332 331 331 332 331 328 328 329 329 323 324 326 326 324 325 327 328 329 329 330 330 330 330 328 328 327 328 327 324
325 326 326 326 326 326 326 325 325 325 326 327 328 329 329 331 331 331 331 330 328 327 325 327 326 324 324 324 327 327 327 328 329 329 329 328 327 328 327 327 326 323 321
321 322 324 325 326 326 326 326 326 326 327 327 329 328 327 328 330 329 329 330 329 328 327 328 326 325 325 325 328 328 327 328 326 328 328 328 327 326 326 325 324 322 322
319 320 322 323 324 325 326 327 326 327 327 327 328 329 328 326 326 328 328 328 328 328 327 326 326 326 327 327 327 328 328 327 325 325 323 326 326 324 324 324 323 321 322
318 319 320 320 320 321 326 325 326 325 326 327 326 329 327 325 326 327 326 327 328 328 328 328 328 328 329 329 328 328 328 328 327 323 324 320 319 322 323 323 322 320 321
312 313 313 314 315 318 319 321 323 325 326 327 326 327 328 328 326 326 326 327 326 326 327 327 328 328 329 329 328 328 328 327 326 324 322 318 319 320 320 322 322 323 323

GFSSE_925_thetae_096.txt.gz
Theta_e
345 347 343 343 343 343 345 345 346 341 343 347 351 349 349 346 344 342 340 340 340 343 345 344 342 343 341 341 341 339 338 337 337 338 338 337 336 336 335 335 336 337 339
346 346 345 343 345 344 344 344 344 345 344 344 346 347 346 345 343 340 341 341 342 345 342 341 339 340 338 338 339 336 329 334 336 336 335 333 333 334 334 333 334 334 336
345 346 345 343 345 345 344 344 342 343 344 344 346 345 343 343 343 343 343 343 342 345 341 340 339 336 338 334 330 328 328 328 329 330 327 326 330 332 332 333 332 333 334
345 346 344 343 345 345 343 343 341 341 343 343 343 345 344 343 342 343 343 343 344 344 340 338 337 337 337 333 330 323 320 320 322 323 325 329 333 333 332 332 331 331 331
345 345 344 342 343 344 344 343 341 340 341 342 342 342 343 342 343 342 343 343 342 343 339 336 334 335 335 335 333 331 329 327 325 327 327 328 331 333 333 332 332 332 331
345 344 344 343 342 342 342 344 343 341 340 341 341 341 341 343 343 340 340 342 341 342 338 332 335 335 335 334 331 330 330 328 325 324 326 329 332 333 332 332 332 331 331
345 344 343 342 342 339 336 336 337 339 341 341 340 341 341 342 342 340 337 341 341 339 337 322 334 335 334 332 332 331 331 330 327 325 326 330 333 333 332 332 332 331 331
344 342 340 340 341 338 336 335 334 333 334 339 339 340 341 340 341 340 336 338 338 337 336 324 327 332 331 333 332 331 331 330 328 325 327 329 333 333 332 332 331 331 330
340 341 338 340 339 341 341 339 339 340 341 338 334 339 340 339 339 339 336 335 335 334 336 330 322 329 330 332 331 331 331 331 330 325 326 328 332 333 331 330 329 329 329
339 340 339 337 338 339 339 339 339 338 339 338 339 335 338 339 338 339 335 336 335 335 336 336 324 324 329 331 330 330 331 331 331 327 326 326 332 333 331 326 326 325 324
332 338 338 339 339 339 339 338 337 335 334 335 337 338 333 337 338 338 336 335 334 334 334 337 334 322 325 330 329 329 330 331 330 329 328 325 331 334 331 325 325 325 324
331 332 335 336 338 338 337 337 335 333 330 330 334 331 335 337 338 338 337 336 334 333 333 335 335 328 322 326 328 328 328 329 329 328 327 324 328 334 333 326 325 325 325
331 331 332 334 336 335 336 336 334 333 332 327 328 326 330 334 337 338 337 337 334 333 333 334 334 333 329 322 325 327 327 326 328 327 326 324 325 334 333 327 325 326 326
327 331 332 333 334 335 334 333 331 333 332 331 331 329 327 328 333 336 338 336 334 333 334 337 333 332 333 324 321 321 325 325 324 325 325 325 324 332 334 331 327 327 327
327 329 332 332 333 334 333 333 331 331 331 330 330 328 327 327 331 334 336 336 334 334 334 336 336 334 332 323 320 318 319 324 324 323 323 324 325 327 330 330 329 329 329
319 328 329 331 333 333 334 334 334 333 329 325 324 326 325 327 330 333 336 336 334 334 334 335 335 335 331 322 319 317 316 319 320 321 322 323 326 327 328 329 329 328 330
310 313 328 328 328 329 329 330 329 326 322 322 322 322 323 324 329 335 335 336 335 334 333 334 334 334 328 322 320 318 317 318 320 322 324 324 324 326 327 327 328 328 328
309 310 312 315 327 326 326 326 324 322 323 323 323 323 323 324 325 330 334 334 333 334 334 332 332 331 327 323 321 318 320 321 321 322 323 327 328 327 326 327 327 328 328
309 310 311 317 325 326 325 324 322 323 323 324 324 324 325 324 325 328 330 333 333 332 331 328 329 330 327 324 320 318 319 321 322 322 324 326 327 328 329 327 327 327 328
309 313 317 321 325 325 323 323 323 323 324 324 326 326 325 326 327 328 329 330 331 329 323 322 326 329 328 324 321 319 321 323 322 323 325 328 329 330 330 329 327 327 328
321 322 322 325 325 325 325 324 325 324 326 325 326 326 328 327 327 329 330 330 331 329 324 324 326 327 327 324 323 324 324 323 323 324 325 329 329 330 330 330 327 327 328
323 324 325 326 325 325 325 325 325 325 325 325 325 326 328 328 328 331 330 329 330 323 323 321 320 325 324 323 324 325 325 327 327 328 329 329 329 330 330 329 328 327 328
320 321 324 324 324 325 326 326 326 326 326 326 326 326 326 328 328 329 331 330 328 327 326 326 326 324 322 323 325 326 325 326 325 328 328 329 328 328 328 327 327 328 327
318 319 321 322 322 322 323 324 326 326 325 325 325 326 327 328 328 327 329 329 328 326 325 323 325 324 324 324 323 325 327 326 325 325 324 326 328 327 327 327 327 327 324
313 315 316 317 318 319 322 323 325 325 324 325 326 326 326 327 327 327 328 327 326 326 326 324 324 324 326 325 325 326 327 327 326 323 324 322 324 327 326 326 325 324 323
308 310 311 312 311 316 314 317 321 322 323 323 324 325 325 328 327 326 326 327 326 326 326 326 326 325 326 325 327 326 327 326 326 324 322 320 320 323 324 323 323 323 323

GFSSE_925_thetae_099.txt.gz
Theta_e
345 347 343 342 343 345 342 339 341 344 345 348 349 348 347 349 344 341 340 338 339 345 344 344 344 343 342 342 341 340 339 340 340 338 336 335 336 337 336 336 337 339 339
345 346 343 344 342 344 344 342 339 343 345 347 347 346 345 345 345 343 341 340 342 345 344 343 342 340 339 339 339 335 336 336 337 336 333 332 332 335 333 333 334 337 337
345 346 345 342 344 342 344 343 343 341 342 344 345 344 344 343 343 341 340 340 343 345 342 340 341 338 337 339 336 328 333 334 334 332 325 329 331 333 333 331 333 334 334
345 345 347 344 345 344 344 342 344 343 342 342 342 343 342 342 343 342 343 342 344 344 340 339 337 338 335 333 328 325 324 325 325 322 330 332 332 333 332 332 332 332 331
345 345 345 343 344 344 343 342 340 342 342 342 342 343 342 341 342 343 342 340 343 342 339 338 336 337 332 330 325 320 320 322 324 326 331 333 333 333 333 332 332 332 331
344 346 344 343 343 343 343 342 341 339 340 341 342 341 342 341 342 343 340 341 342 342 338 335 335 335 333 332 332 330 327 324 325 325 330 331 333 333 333 332 332 332 331
342 345 344 342 342 342 343 342 341 340 340 341 341 341 341 340 341 339 338 341 341 341 337 332 335 335 333 332 331 331 328 325 323 325 330 332 333 333 333 332 332 331 331
343 343 341 342 342 340 339 340 341 341 342 341 340 340 340 340 341 340 337 341 340 341 337 328 335 335 332 331 332 331 330 328 324 325 328 332 333 333 332 332 332 331 331
338 341 340 339 341 340 338 337 337 336 335 337 340 339 339 340 339 339 339 337 340 338 336 328 333 336 331 332 331 331 330 329 325 325 326 331 332 333 332 331 330 331 330
334 337 341 339 339 338 339 338 336 337 337 337 334 333 338 339 338 338 339 335 337 336 337 334 322 331 331 332 330 330 330 330 329 324 326 330 332 333 331 330 330 329 328
332 333 336 338 337 337 336 337 337 336 336 335 335 337 333 336 338 339 339 335 334 335 333 336 328 326 330 331 330 330 331 331 330 327 326 326 332 333 331 328 328 326 324
319 331 332 335 337 338 338 338 337 336 334 332 332 336 338 333 335 338 339 336 335 335 334 335 336 328 325 333 331 328 330 330 330 329 328 324 328 334 333 328 326 326 324
309 319 331 332 333 336 336 337 336 335 332 329 328 332 329 330 333 337 338 337 336 334 334 334 335 336 331 329 329 328 328 329 329 329 327 325 325 334 334 332 326 325 326
307 310 326 332 332 333 335 334 335 334 331 328 327 326 332 332 334 335 335 337 336 334 333 333 334 336 334 327 325 327 327 326 326 328 326 326 324 330 334 334 327 326 327
306 308 320 329 331 332 333 332 333 333 332 330 330 329 327 327 331 334 336 337 336 336 333 333 334 335 334 333 330 323 324 325 325 325 324 325 324 324 332 333 330 328 327
306 306 314 328 330 332 333 332 332 330 330 331 331 330 327 327 327 330 335 337 336 336 334 334 332 336 333 332 332 325 321 319 323 324 323 322 324 325 327 329 331 330 329
307 305 307 312 328 331 332 332 332 332 332 332 330 323 322 322 323 326 331 336 336 335 335 334 333 335 335 334 333 325 319 317 316 322 320 320 322 325 326 327 328 329 329
306 306 305 309 317 324 329 330 330 330 330 329 322 322 323 323 323 328 330 333 334 335 334 334 334 334 334 334 333 325 321 318 317 317 319 321 323 323 325 326 327 328 328
306 306 308 309 311 313 321 326 326 325 326 322 322 323 324 324 324 327 328 329 334 334 334 333 332 332 333 332 330 325 323 320 318 319 320 321 322 325 326 327 326 327 327
306 306 306 310 313 319 324 325 324 323 322 322 323 323 324 325 326 327 327 328 329 330 332 332 331 333 330 329 325 322 320 321 318 318 320 321 322 324 326 327 329 327 326
308 308 309 320 320 324 324 324 323 323 322 323 324 324 324 325 324 326 327 328 328 329 328 328 330 328 326 325 326 325 323 322 321 320 322 322 323 325 327 329 329 330 328
317 320 322 323 324 324 325 325 324 324 324 324 324 325 325 325 326 327 328 328 328 329 328 328 328 327 324 324 324 323 324 324 324 324 323 323 323 326 329 329 330 330 329
316 318 320 322 322 324 323 323 324 324 325 323 324 325 325 325 325 327 328 328 329 329 328 326 326 325 324 323 324 324 327 328 326 325 324 324 326 328 329 329 329 329 329
313 316 317 318 319 318 320 321 322 323 323 323 325 324 324 324 325 326 328 328 328 329 327 326 325 324 324 323 322 323 322 326 329 329 325 326 327 328 328 328 328 328 328
309 310 311 314 315 316 318 320 322 322 324 323 324 325 325 324 325 326 328 328 328 328 327 325 324 323 323 323 322 323 323 324 325 325 329 325 324 326 326 326 325 326 327
306 307 308 308 308 311 312 314 316 318 319 318 319 320 321 322 325 327 327 326 327 327 324 325 323 321 323 324 323 323 324 324 325 326 325 325 324 325 325 326 326 326 326

GFSSE_925_thetae_102.txt.gz
Theta_e
348 350 343 345 345 342 341 341 344 344 344 345 349 348 346 347 345 338 335 340 340 341 341 343 343 343 343 343 342 340 340 341 342 339 336 338 339 339 339 338 339 341 340
346 349 344 343 345 343 337 339 343 343 344 347 347 347 346 345 345 342 339 337 343 345 345 345 344 343 343 341 340 341 339 339 337 336 331 329 334 336 335 335 337 338 338
348 348 347 343 343 345 341 337 339 344 345 346 346 345 345 344 344 344 342 339 344 344 345 343 343 342 339 339 338 338 336 336 336 330 328 330 332 335 330 331 334 336 336
347 348 348 343 343 343 343 341 339 340 343 343 344 343 343 343 343 343 341 339 344 344 342 340 340 338 337 339 335 333 333 333 329 321 330 330 330 333 333 333 333 332 333
347 347 347 345 343 344 344 342 343 342 340 340 340 342 341 341 341 341 343 339 343 342 340 338 337 337 334 335 332 328 323 322 320 330 331 332 332 333 334 333 332 332 331
343 347 347 344 343 343 343 342 343 342 342 342 341 342 341 341 340 341 341 340 343 342 340 339 336 337 327 328 327 324 321 322 326 330 330 331 332 332 333 333 333 333 332
342 345 346 343 342 342 342 342 341 339 340 341 341 341 342 341 341 341 340 339 341 342 339 332 334 335 329 332 334 331 326 324 329 330 331 332 333 334 333 333 332 332 332
337 343 345 343 341 340 341 341 341 340 339 339 340 340 341 341 341 340 339 339 341 341 339 329 335 335 334 334 335 333 327 325 328 330 331 332 333 334 333 333 332 332 332
336 339 341 344 342 341 339 340 341 341 341 340 339 339 339 339 339 340 339 336 339 341 339 331 332 334 335 332 335 334 330 326 329 329 330 332 331 334 333 332 332 332 331
335 335 340 341 343 343 343 337 335 334 333 333 334 337 338 339 339 338 339 339 335 339 338 335 328 335 335 333 332 333 331 329 329 329 330 331 330 334 333 332 331 331 331
319 331 334 339 339 342 342 341 336 336 335 335 335 335 333 339 340 340 339 340 336 336 336 336 332 327 333 333 333 331 331 331 331 329 329 330 331 333 332 332 331 330 327
313 315 331 333 337 336 339 340 338 337 337 336 337 338 339 339 339 339 339 339 337 336 334 333 335 326 328 332 333 330 332 331 331 330 329 327 329 333 333 332 331 330 327
310 311 315 332 333 335 336 338 335 337 336 334 332 334 334 340 339 338 338 339 338 335 337 336 336 337 333 328 331 331 330 331 331 330 330 327 325 333 334 333 330 329 328
309 310 313 321 333 332 334 337 337 333 333 331 328 331 333 337 338 337 337 338 339 338 337 336 336 337 337 331 329 330 329 328 329 330 329 327 325 326 336 335 331 327 328
309 310 311 316 329 332 332 334 336 335 333 332 331 328 328 330 333 336 339 338 338 338 337 336 335 335 336 337 331 327 327 327 326 327 328 328 326 324 330 335 335 331 328
309 309 311 314 323 332 331 331 335 335 334 333 332 331 330 331 332 331 329 335 337 338 337 336 336 336 335 335 334 331 325 324 324 325 325 325 325 325 324 329 334 334 334
310 310 310 311 315 327 333 333 334 334 333 332 331 331 329 328 329 330 332 333 335 336 337 336 336 337 336 335 334 332 328 324 321 320 323 323 323 323 324 325 328 331 331
310 310 310 310 312 320 331 333 333 333 333 333 333 331 328 327 326 328 329 331 332 335 336 336 336 336 334 334 333 333 330 325 321 320 319 321 322 323 324 325 326 327 329
310 310 309 309 311 316 322 325 330 331 331 330 329 328 327 326 327 327 328 329 331 332 333 334 334 335 334 333 332 332 331 327 322 320 320 320 321 323 325 325 326 326 326
314 310 310 309 311 314 318 322 325 327 328 328 327 327 326 326 327 328 328 329 329 330 331 331 332 332 333 332 331 330 328 326 323 321 320 320 321 323 324 326 327 326 326
314 313 311 310 311 318 323 325 326 327 327 326 326 326 326 327 327 327 328 328 329 330 330 330 331 330 330 332 331 329 327 326 324 320 319 318 319 322 324 325 326 328 329
318 318 318 317 320 323 325 326 327 328 328 327 327 327 327 327 328 328 328 328 328 330 330 330 330 330 330 330 330 329 330 327 323 322 322 322 321 321 324 325 327 328 329
314 316 320 321 322 323 323 325 325 324 324 324 325 326 326 326 328 328 328 328 328 330 330 330 330 329 329 329 328 327 326 326 324 321 321 319 320 324 325 325 327 328 329
310 311 313 314 314 316 318 321 322 324 325 325 324 325 326 326 326 326 327 328 328 330 330 330 329 329 328 327 326 326 324 324 325 326 326 326 325 325 325 326 326 327 329
307 309 309 311 311 311 312 315 316 324 324 324 323 324 323 321 323 325 327 328 328 329 329 328 328 327 327 327 325 324 324 323 324 326 328 328 325 326 326 326 327 327 327
305 307 307 307 307 307 308 311 311 311 314 316 315 314 314 315 317 319 323 326 327 327 327 327 327 326 325 325 323 323 323 323 323 324 325 325 325 324 324 324 324 325 325

GFSSE_925_thetae_105.txt.gz
Theta_e
347 350 344 345 345 345 345 343 344 343 344 347 348 349 345 345 345 334 336 338 339 341 341 343 343 342 343 343 341 340 341 342 342 337 337 338 340 340 340 340 341 341 340
348 349 345 344 343 344 343 344 344 343 344 345 348 347 346 346 345 339 337 339 342 342 343 344 343 343 343 342 341 342 341 339 336 334 328 332 337 337 337 338 338 340 340
346 348 348 342 344 342 339 341 343 344 344 346 346 345 345 345 343 343 340 337 344 344 343 345 343 344 341 339 340 342 338 337 336 325 330 331 334 334 332 334 336 336 337
346 348 348 344 342 344 341 338 341 344 345 346 345 344 344 343 343 343 343 340 345 342 342 343 342 340 338 337 337 338 335 335 330 324 331 330 330 331 333 333 334 334 333
345 347 347 347 342 342 343 340 338 340 343 343 343 342 343 341 342 341 342 339 343 343 342 340 340 338 336 338 335 334 331 329 320 331 331 332 331 332 334 332 332 332 332
342 345 347 346 342 341 342 342 341 340 340 341 342 342 342 341 341 340 342 339 341 342 340 338 336 338 334 333 332 330 321 319 325 331 331 332 333 332 334 333 332 333 333
340 343 347 346 342 342 342 342 341 341 342 342 342 341 341 342 341 340 341 339 339 342 340 339 336 337 331 326 330 328 322 322 332 330 331 332 335 334 334 333 333 332 332
339 341 344 345 342 342 341 340 340 340 340 340 340 340 340 341 341 340 340 339 338 341 341 339 332 334 332 328 335 332 326 323 329 330 331 333 334 334 334 333 333 332 332
335 339 341 344 344 341 341 341 340 340 340 339 338 338 338 339 339 339 339 338 338 340 341 338 327 332 332 334 334 334 329 325 329 329 330 332 332 334 333 333 332 332 332
320 331 338 339 343 343 343 340 340 340 340 339 339 338 338 337 338 338 338 339 336 338 339 339 332 329 334 334 334 334 333 328 329 329 330 331 331 334 333 332 332 332 332
316 317 321 337 339 342 342 343 338 336 335 335 334 333 333 338 340 341 340 340 340 335 337 338 334 330 333 334 334 333 333 331 330 330 328 330 330 334 333 332 332 332 331
314 314 314 321 335 338 340 341 341 340 339 339 338 337 337 338 338 339 339 339 340 338 335 336 335 333 331 333 334 332 333 332 331 330 329 329 327 332 333 333 332 332 330
311 311 313 314 325 335 337 338 339 340 339 336 337 338 336 338 339 339 339 339 339 338 338 336 336 336 334 329 330 334 331 331 331 330 330 329 326 327 334 333 330 331 331
309 310 312 313 316 330 335 335 337 339 337 334 334 334 338 336 338 338 337 337 338 339 338 338 337 337 336 334 328 330 331 330 331 331 330 330 328 324 334 336 334 327 330
310 310 311 313 314 323 332 333 334 338 337 334 332 330 330 333 334 335 336 339 338 338 338 338 337 337 337 337 334 328 330 330 328 329 329 329 329 324 324 335 336 334 333
310 310 311 311 313 318 331 332 333 335 336 335 334 334 332 331 332 333 334 334 333 337 338 338 337 337 336 336 336 333 328 328 328 327 327 328 327 326 324 324 334 335 335
311 311 311 312 312 314 324 331 331 332 334 334 334 334 333 332 332 332 333 333 333 333 335 338 336 336 336 336 335 335 332 329 325 325 325 325 326 324 324 324 325 330 335
312 312 312 312 312 311 316 328 332 332 332 334 334 333 333 332 331 330 330 330 331 333 333 334 336 336 335 337 336 335 334 331 327 324 322 321 323 324 324 323 324 325 327
318 316 313 312 311 311 313 322 331 331 332 333 334 333 333 332 330 329 328 328 329 331 332 334 335 335 336 336 336 335 334 332 330 325 322 321 320 322 323 324 324 324 325
318 318 318 315 312 310 312 317 323 328 331 332 331 330 329 329 328 328 328 328 329 330 331 332 332 333 334 335 334 334 333 332 331 326 322 321 320 320 321 323 325 326 325
317 318 319 315 313 311 311 316 321 324 326 329 330 329 328 328 328 328 328 328 329 329 329 330 331 332 332 332 332 332 332 331 329 327 324 322 320 321 322 323 324 326 328
314 314 316 319 316 312 312 322 324 326 328 329 329 328 328 328 328 329 328 328 329 329 329 329 330 330 331 331 331 330 330 330 329 328 326 323 322 320 320 323 324 325 326
310 311 312 315 317 319 321 324 327 327 327 327 327 326 327 327 327 326 326 327 328 329 329 330 330 330 330 330 330 329 330 330 328 328 326 324 323 321 321 321 320 323 324
307 309 310 312 313 313 316 319 321 323 325 326 325 325 325 326 325 324 325 326 327 328 329 329 330 330 330 330 330 330 329 327 327 328 328 326 324 322 322 322 323 324 325
305 307 308 308 309 309 309 311 314 316 318 320 321 320 320 318 318 319 319 321 324 326 327 328 329 329 329 329 329 328 329 329 326 325 325 326 325 322 322 323 325 324 322
304 304 305 306 306 306 307 309 311 310 310 310 309 310 310 311 313 313 314 315 316 321 326 328 328 327 328 327 328 327 326 326 325 323 324 324 325 325 325 325 326 326 326

GFSSE_925_thetae_108.txt.gz
Theta_e
347 348 345 346 345 344 346 343 343 343 345 347 347 347 342 343 342 330 330 329 333 341 342 343 343 343 342 341 339 340 340 342 336 334 338 338 339 339 340 340 340 339 339
346 349 347 344 345 344 345 343 343 343 344 347 347 346 345 345 343 333 336 334 338 341 342 344 343 344 343 341 341 341 341 338 334 328 326 333 335 337 338 339 338 340 340
345 348 349 343 343 343 344 343 343 343 343 344 345 345 345 344 343 340 337 336 343 343 344 344 341 343 341 337 340 341 338 336 329 330 332 333 330 332 332 336 335 337 338
344 347 348 347 341 342 340 340 342 343 343 344 344 343 343 342 343 343 341 337 343 342 342 343 342 341 338 336 338 339 335 334 324 330 331 331 331 331 331 331 334 332 333
342 345 347 348 342 341 342 339 339 341 343 344 344 343 341 341 341 341 340 337 341 342 341 340 340 339 337 334 335 334 331 329 322 331 332 331 331 331 333 332 332 333 332
341 343 347 346 345 341 340 341 339 338 339 341 343 341 340 341 340 340 339 337 336 342 341 339 339 338 336 333 331 327 324 320 329 331 332 332 333 330 334 334 332 332 333
338 341 345 346 345 341 341 341 341 340 339 339 340 339 341 340 341 340 340 341 337 341 341 339 337 335 336 330 328 323 318 318 331 330 331 330 334 330 333 333 333 332 332
332 338 341 345 343 341 342 341 341 340 340 341 341 341 340 340 341 340 339 340 338 337 340 339 339 334 334 323 326 327 325 321 330 330 331 332 334 331 333 333 332 332 332
319 328 337 340 343 342 340 340 340 340 339 339 338 338 338 338 338 339 339 338 339 337 339 340 338 330 330 326 329 330 327 322 326 330 330 331 333 331 334 333 332 332 332
316 317 321 334 339 342 342 342 340 339 339 339 338 338 338 338 338 338 338 338 338 337 338 340 338 328 326 327 330 332 332 327 324 329 330 331 333 330 334 332 331 332 332
313 315 314 318 332 337 341 342 342 339 339 339 338 338 337 337 337 337 337 337 338 338 336 338 339 334 329 331 331 332 332 329 324 329 329 329 330 331 334 332 330 332 331
312 312 312 313 316 332 336 340 341 341 338 335 335 335 336 334 336 338 340 339 337 338 338 336 338 336 332 331 333 333 331 329 327 329 329 328 329 329 334 333 331 331 331
309 309 310 311 313 319 333 335 338 338 340 339 339 338 338 339 338 338 339 339 339 338 339 336 337 335 334 332 334 331 329 328 329 331 330 329 329 328 332 334 330 330 331
309 310 310 310 312 314 324 333 335 337 337 338 337 336 337 335 338 338 339 340 338 339 338 337 336 335 334 334 330 331 332 331 329 331 331 330 329 329 326 335 335 331 332
310 310 311 311 311 311 314 329 331 334 336 337 336 334 333 334 333 335 338 337 338 339 338 338 338 337 336 336 335 330 330 332 330 330 331 330 330 329 324 328 337 335 333
311 311 311 311 311 312 312 322 331 332 334 336 336 334 332 331 330 331 332 333 335 336 338 337 337 337 337 337 336 336 330 328 330 329 328 329 328 329 328 323 327 336 336
316 314 312 312 312 312 312 313 327 329 332 335 335 334 334 332 331 332 333 333 333 333 333 333 336 336 336 336 336 336 336 330 328 329 328 327 327 327 326 325 323 325 334
318 318 318 317 313 312 312 312 316 326 330 332 334 333 332 333 333 332 331 330 331 331 331 333 334 333 334 336 335 334 335 335 330 327 326 326 325 326 325 324 323 323 324
317 317 317 319 318 315 311 311 312 323 328 331 332 333 333 332 332 332 330 329 328 328 330 331 332 334 335 334 334 334 333 334 334 330 327 324 324 322 324 324 323 323 323
313 314 314 315 318 317 313 311 311 317 328 329 330 331 331 332 331 330 329 328 328 328 329 330 332 331 330 333 334 334 335 333 333 332 331 329 324 321 321 323 323 323 324
310 311 312 314 315 318 314 311 312 315 321 327 328 330 330 330 329 328 328 328 328 328 329 329 330 330 331 331 333 333 332 334 333 333 332 328 324 322 320 320 321 323 325
308 309 310 312 313 315 317 318 311 319 322 324 326 328 329 328 328 328 329 328 329 328 328 329 329 329 330 330 331 330 330 330 332 332 331 330 326 323 320 321 321 321 322
306 308 309 310 310 312 315 317 318 319 321 324 326 327 325 326 326 326 326 325 326 327 327 328 329 329 329 329 330 329 329 329 326 329 329 328 327 325 323 322 321 322 323
305 306 307 308 308 309 312 314 317 319 321 321 322 322 321 321 322 320 319 320 320 321 322 325 327 327 327 327 328 329 329 328 326 327 328 327 327 327 324 322 320 320 323
303 304 304 305 305 307 308 310 312 312 312 314 315 317 317 316 315 313 315 315 315 316 316 316 321 325 326 327 327 328 328 329 329 327 328 326 327 325 324 322 321 321 320
302 302 302 302 302 303 303 306 306 307 308 309 308 307 307 307 309 309 309 309 310 312 313 311 312 320 325 327 327 327 328 327 327 328 327 325 325 325 324 323 322 322 322

GFSSE_925_thetae_111.txt.gz
Theta_e
346 347 345 345 345 343 345 343 344 345 346 345 345 343 341 342 335 328 329 334 336 341 343 343 343 341 341 338 338 338 337 333 335 338 338 338 340 340 340 339 339 339 340
345 348 348 345 344 343 344 343 343 343 345 346 347 345 344 345 339 332 331 333 338 341 342 344 342 343 340 340 339 340 339 333 327 327 331 333 337 339 339 338 338 339 339
343 347 349 345 344 343 344 343 343 343 343 345 345 345 344 344 342 337 334 336 340 342 343 342 341 343 339 336 339 339 336 331 327 331 333 330 328 333 335 335 334 337 338
342 345 347 347 342 341 341 342 342 342 342 343 343 343 342 343 343 342 339 332 340 343 342 342 341 341 339 335 338 338 335 329 325 330 331 331 329 324 329 328 332 333 334
341 343 347 348 344 340 340 337 340 342 342 343 343 342 341 341 342 342 340 335 337 341 340 341 340 339 337 336 336 333 329 325 328 331 331 331 331 328 331 331 333 334 331
338 342 346 346 345 342 340 341 338 339 340 342 343 343 340 340 339 341 339 336 331 341 341 339 339 338 337 335 330 327 326 321 330 331 332 332 332 330 334 334 331 332 332
333 339 343 346 345 344 341 340 340 339 338 339 341 342 339 340 340 341 339 340 337 338 341 340 338 337 336 332 328 325 319 318 330 330 330 330 333 331 329 332 332 332 332
321 332 338 343 344 342 342 341 341 341 339 339 340 340 339 340 340 340 339 339 339 334 340 340 338 337 333 330 323 319 318 318 330 329 330 331 333 330 332 333 331 332 332
316 316 322 336 342 342 341 340 340 340 340 339 339 339 339 339 338 339 339 338 339 337 337 339 339 338 330 329 322 323 325 322 328 329 331 331 332 333 333 332 331 332 332
312 315 314 316 332 340 341 342 342 340 338 339 339 337 337 338 338 338 338 337 337 338 337 338 339 338 329 327 324 325 327 325 322 328 330 332 331 333 333 332 332 332 332
310 311 311 312 313 323 336 340 341 341 340 338 338 339 338 338 337 337 336 336 336 337 337 337 339 339 333 327 325 326 328 329 325 326 330 329 330 333 334 330 332 332 332
309 308 308 309 309 312 318 334 339 341 340 338 335 334 334 334 333 333 333 337 336 336 337 336 337 339 336 332 330 330 330 329 328 325 329 329 328 331 334 330 331 332 332
308 309 309 310 310 310 313 320 333 338 340 340 339 339 338 337 337 336 337 338 340 338 338 338 336 336 337 334 332 331 330 329 328 324 327 329 328 330 333 331 330 330 332
309 310 310 310 311 310 310 313 321 331 336 338 338 339 337 338 338 338 339 339 339 340 338 339 337 335 336 335 333 332 331 331 329 326 326 330 329 329 331 334 333 330 331
312 312 311 311 311 311 311 312 313 327 328 335 336 337 336 335 335 334 337 338 339 339 339 338 338 336 335 335 333 333 332 329 332 331 326 331 330 330 329 329 334 335 333
317 317 317 318 314 312 312 311 311 318 326 329 334 336 335 333 333 333 330 332 336 335 337 338 338 338 337 336 335 335 334 333 329 332 329 330 330 330 329 329 326 335 336
316 316 316 317 318 318 315 312 311 311 319 324 330 334 334 333 332 331 330 331 331 333 333 333 333 335 336 336 335 336 335 335 333 329 330 329 329 329 329 329 327 324 332
313 313 314 314 315 317 318 317 311 311 312 324 323 331 333 333 332 331 331 332 331 331 330 330 331 333 334 334 335 335 335 335 334 333 328 329 328 327 327 327 327 326 324
310 311 311 311 313 314 317 317 314 310 311 317 321 326 331 332 332 332 332 331 330 329 328 329 330 330 331 332 333 333 333 333 333 334 333 329 328 326 326 326 326 325 324
309 309 310 310 312 312 313 317 315 313 311 311 321 327 330 331 330 331 331 330 329 328 328 328 329 330 330 330 330 329 328 329 331 333 333 332 328 326 324 324 323 324 324
307 308 308 310 311 311 313 313 315 317 311 311 318 324 327 328 329 329 328 328 328 328 328 328 328 328 329 330 331 330 330 330 331 331 332 333 332 331 327 326 327 322 323
306 307 307 309 308 309 310 312 315 317 317 321 319 322 324 326 326 326 326 327 327 327 327 327 327 327 328 328 329 329 329 326 328 328 329 331 331 330 328 328 323 321 323
305 305 305 307 306 308 309 312 314 316 316 317 319 320 318 319 319 321 322 322 323 323 322 321 322 324 326 326 327 328 326 327 323 328 329 330 330 329 328 326 326 325 321
303 303 304 304 304 306 308 308 311 313 314 313 314 315 312 315 315 316 317 318 317 316 316 316 316 317 318 323 325 325 326 326 326 327 326 328 328 328 327 326 324 323 322
302 302 302 302 302 302 306 307 306 309 309 308 308 311 313 310 311 310 312 313 313 311 311 310 311 313 313 313 321 324 325 325 326 326 327 326 327 327 327 327 325 323 321
302 301 301 300 299 299 300 303 304 303 304 304 303 303 302 302 302 303 306 306 306 307 307 308 308 308 310 309 308 311 322 324 324 326 327 326 326 326 326 326 326 324 323

GFSSE_925_thetae_114.txt.gz
Theta_e
345 347 346 346 345 343 344 343 344 345 345 344 343 341 340 339 330 329 334 333 339 342 343 342 340 339 341 338 338 338 336 336 338 338 337 338 340 340 339 338 339 340 340
344 347 347 345 343 343 343 343 342 343 344 345 346 343 343 343 334 330 329 332 339 342 343 344 343 342 341 338 339 338 332 327 327 329 332 335 338 339 337 337 338 339 339
342 345 349 346 344 342 342 343 342 342 343 345 346 344 344 344 340 334 330 335 339 341 343 343 342 343 338 339 339 337 331 323 329 331 330 327 332 335 335 334 335 337 337
341 344 347 347 344 341 341 342 342 342 342 343 344 343 342 343 342 340 337 330 340 342 343 342 341 341 337 333 338 336 332 324 330 331 331 330 327 323 325 327 332 334 334
340 343 346 344 344 341 339 338 340 342 342 343 343 342 341 341 343 342 340 337 333 341 341 342 340 340 338 336 332 335 330 325 326 329 331 330 330 323 325 332 333 330 329
337 341 345 345 345 343 340 340 337 339 340 342 343 343 341 340 340 340 340 338 330 340 340 340 339 338 337 335 328 327 327 323 327 331 330 330 331 330 330 328 327 330 331
327 336 342 344 344 344 342 340 340 339 338 339 340 342 341 339 340 340 340 339 335 335 340 340 339 338 336 335 329 323 323 320 328 330 331 332 332 332 331 329 329 332 332
315 316 326 339 343 342 342 341 340 340 339 338 338 339 340 338 339 339 340 339 339 338 337 340 339 338 335 334 329 325 318 317 328 329 329 331 331 333 333 332 330 332 332
312 314 314 316 332 341 341 341 340 340 340 339 338 339 340 339 339 338 339 339 338 338 335 338 339 338 337 331 327 320 318 318 327 329 330 330 332 333 334 331 331 332 332
309 310 310 310 312 318 338 341 341 341 339 338 338 338 337 337 337 337 338 337 338 337 338 337 339 338 338 330 327 322 323 324 321 328 329 331 332 335 335 332 331 332 332
308 308 308 308 308 309 313 329 339 341 341 340 337 338 338 338 337 337 337 336 336 336 336 337 337 339 339 333 327 325 324 326 325 323 326 329 331 336 336 333 329 332 332
309 309 309 309 310 309 309 312 325 337 341 340 338 336 336 336 336 335 335 336 335 336 336 337 337 338 338 336 332 329 326 326 327 326 323 329 329 334 336 334 330 331 332
309 310 311 310 310 310 311 311 311 318 332 337 339 339 338 337 335 336 335 334 336 338 338 337 337 336 338 337 335 332 330 329 326 327 326 327 329 334 335 336 332 330 332
314 316 316 314 313 311 311 311 310 311 316 326 333 338 338 338 337 337 338 337 338 338 339 338 338 337 336 337 336 334 333 332 330 325 325 324 326 330 335 336 335 330 332
316 316 316 317 317 317 315 312 311 311 311 317 325 329 336 336 336 336 337 337 338 338 338 339 338 337 337 336 336 335 334 333 332 330 330 329 325 330 330 331 335 335 333
314 314 314 315 315 316 317 317 314 312 311 311 319 322 329 335 335 333 334 334 335 338 337 337 338 336 337 336 335 335 334 334 334 331 328 329 331 327 330 329 330 333 335
311 311 312 312 312 312 314 317 317 315 311 311 311 320 320 329 334 333 331 332 330 333 334 335 335 333 334 334 334 334 334 334 335 334 333 331 330 329 330 330 329 329 329
309 309 310 311 311 311 312 312 317 317 314 311 310 314 320 320 327 332 331 330 330 332 332 332 331 331 332 333 333 333 334 334 334 334 334 333 333 330 329 330 330 329 328
307 308 309 309 310 310 310 312 313 316 315 313 311 310 314 320 326 331 331 331 331 331 330 330 329 329 330 330 330 330 330 331 331 331 331 332 333 329 329 328 328 329 328
306 307 307 308 309 309 310 310 312 313 315 314 311 311 312 322 325 328 330 330 329 328 328 327 328 328 329 330 330 330 329 329 328 327 327 327 330 332 331 329 328 327 327
306 306 307 307 307 307 309 308 311 313 315 317 320 321 322 323 324 326 328 328 327 327 326 327 327 327 327 327 327 328 328 328 327 327 327 327 328 328 332 331 329 326 325
305 306 306 306 305 306 308 308 310 312 316 317 318 319 320 320 321 323 322 323 323 322 323 323 322 323 324 325 326 326 325 324 324 324 325 326 326 327 329 331 329 326 325
303 303 303 303 303 304 307 309 311 312 314 313 313 313 315 317 316 317 316 317 317 316 315 316 317 317 318 319 321 324 325 322 320 324 325 327 328 328 329 329 329 328 327
303 302 302 302 301 301 305 307 308 308 309 308 309 309 310 313 312 311 312 314 315 316 316 311 312 311 313 315 316 319 321 323 324 324 322 323 325 326 327 329 328 327 326
302 301 300 299 299 298 301 303 304 304 305 304 305 305 305 305 305 310 306 306 306 308 309 310 309 308 308 309 309 310 312 315 321 323 325 323 323 324 325 326 327 327 327
302 301 300 297 296 296 296 297 297 298 298 298 298 297 297 296 295 297 297 297 297 297 298 300 302 304 305 305 305 306 308 310 309 311 315 318 322 323 324 325 326 326 326

GFSSE_925_thetae_117.txt.gz
Theta_e
343 346 346 345 344 343 343 342 343 345 344 341 341 339 339 334 327 331 331 331 338 341 342 341 339 339 341 341 342 340 340 339 338 337 336 338 340 340 338 338 339 339 339
342 346 347 346 344 342 342 342 342 343 344 344 344 341 343 341 331 328 331 335 340 342 342 342 342 340 341 342 341 331 328 332 332 332 333 338 338 337 338 338 338 339 338
340 343 346 346 344 342 341 342 342 342 342 344 346 344 344 344 339 334 329 334 339 341 342 343 342 340 340 339 339 335 326 324 326 327 327 328 334 335 335 335 337 336 337
339 342 344 345 345 341 341 342 342 341 342 343 344 343 343 343 342 339 336 332 338 341 342 342 341 341 336 336 337 335 327 328 330 330 328 327 326 325 326 327 330 334 335
339 341 344 343 344 341 339 339 341 341 341 341 343 342 341 341 341 341 340 339 331 339 340 341 340 340 337 335 332 335 331 326 329 329 330 329 329 327 327 331 332 330 328
335 339 344 343 343 344 341 340 338 339 341 341 342 342 341 340 340 341 339 338 334 336 340 340 340 340 338 336 333 332 330 327 325 330 329 330 330 331 328 325 326 328 329
315 318 334 342 343 343 343 341 339 339 337 338 340 340 341 340 340 340 339 339 337 329 339 339 338 339 337 335 332 326 327 326 325 330 331 330 331 335 334 331 331 332 332
312 313 313 322 338 342 342 341 340 339 339 339 338 337 338 339 338 338 338 339 338 339 333 339 339 339 338 334 332 327 323 322 323 329 330 330 331 335 334 331 328 332 332
309 309 310 310 311 320 338 340 340 339 339 339 339 338 338 339 338 338 337 338 338 338 338 335 338 339 338 337 332 327 323 318 320 328 329 329 330 335 335 334 332 332 332
307 308 308 308 308 309 310 326 337 341 341 339 338 338 338 338 337 337 337 337 336 337 337 337 335 338 338 337 333 328 322 319 319 324 328 329 330 334 336 335 331 332 332
309 309 309 310 310 310 309 309 314 331 339 341 340 338 338 338 337 337 337 337 337 337 336 336 337 336 337 338 337 329 325 323 325 322 325 328 330 332 337 336 333 332 332
310 311 312 311 310 310 310 310 310 310 322 335 339 339 337 336 336 337 337 336 336 336 336 336 336 337 337 338 338 333 329 325 324 325 325 324 326 329 336 337 335 333 332
315 316 316 316 314 312 311 311 311 310 310 313 327 333 338 339 337 336 334 334 335 333 335 337 337 337 337 338 338 336 333 330 327 325 325 326 324 328 334 336 335 334 332
315 315 315 315 316 316 316 315 312 311 311 311 310 319 328 335 337 337 337 337 337 336 336 337 338 337 336 336 336 337 336 334 332 331 330 326 326 326 331 336 335 335 334
313 312 312 312 312 312 313 315 316 315 312 311 311 311 321 325 331 336 336 335 336 337 337 338 337 337 337 336 337 336 335 335 334 333 332 331 326 325 325 332 334 337 336
311 310 311 311 311 311 311 311 312 315 316 313 311 311 310 319 323 325 334 334 333 334 335 335 336 336 336 335 336 336 336 335 334 333 333 333 329 330 330 326 330 332 336
308 308 309 310 311 311 311 311 311 311 316 316 314 311 310 311 322 322 324 332 333 331 333 334 335 337 336 335 335 334 334 333 334 333 334 334 334 332 329 330 328 330 332
307 307 308 309 310 310 311 312 311 311 314 315 315 313 311 310 313 317 322 327 331 330 330 331 333 333 332 332 332 332 333 333 333 333 334 333 333 333 332 332 331 329 330
306 307 307 307 308 308 309 309 311 313 312 315 316 314 311 312 314 324 326 327 330 330 330 330 330 330 330 330 330 330 330 330 329 329 329 328 328 328 329 331 332 330 329
306 306 307 306 306 307 308 308 309 311 314 316 319 320 320 319 321 322 324 326 328 328 328 329 328 327 328 329 329 329 328 328 328 327 327 326 325 324 324 326 330 331 329
305 305 305 305 304 306 308 309 310 310 312 314 314 316 317 318 319 320 320 322 324 325 325 325 325 325 326 326 326 326 326 325 323 323 323 324 323 322 323 324 326 328 330
304 303 304 303 303 304 307 308 309 310 312 312 312 312 314 315 316 318 318 318 319 319 319 317 319 319 323 323 323 322 320 320 321 323 323 324 324 325 326 326 326 326 327
303 303 302 302 301 303 306 308 309 309 309 309 309 309 309 310 311 312 314 314 315 316 315 313 313 315 314 316 317 320 323 319 319 321 321 322 323 322 322 324 325 327 327
303 302 300 300 300 300 303 305 306 306 306 304 305 306 306 305 307 305 305 308 309 308 309 310 309 309 312 310 312 313 312 314 317 318 319 320 321 321 322 323 323 324 326
303 301 299 298 297 296 297 299 300 299 300 298 297 297 296 295 297 299 297 297 297 298 301 303 304 305 306 307 306 307 308 310 311 310 315 312 311 314 317 322 324 323 324
302 301 299 296 295 295 295 295 295 295 295 295 294 294 294 293 293 293 294 294 295 295 296 296 296 297 298 301 301 303 303 307 307 307 308 307 308 309 308 313 318 322 323

GFSSE_925_thetae_120.txt.gz
Theta_e
341 345 345 345 343 343 343 341 342 343 343 340 340 339 338 332 328 329 329 332 338 340 341 340 339 340 341 340 341 340 339 339 339 337 336 339 339 340 338 336 339 339 338
340 342 345 345 344 342 342 342 341 342 342 342 342 341 342 339 331 328 330 334 338 341 341 341 340 340 339 341 339 337 336 336 335 334 336 338 338 338 338 339 338 339 338
339 342 343 344 344 341 341 342 341 341 341 343 344 342 344 343 339 334 329 332 337 339 342 342 342 339 339 341 338 333 327 326 326 327 329 334 336 337 336 337 337 336 335
338 342 343 343 344 341 340 341 342 341 341 342 344 343 342 342 342 339 337 332 335 339 339 340 341 338 337 337 338 335 325 326 329 328 326 326 326 328 329 328 331 334 332
334 340 343 342 344 341 339 338 340 341 340 341 341 341 341 340 340 341 341 339 335 333 338 340 340 340 336 334 333 336 330 326 329 329 329 328 328 327 330 332 333 333 330
324 328 341 343 342 342 342 340 339 337 340 340 340 340 340 339 339 339 340 338 337 331 336 339 340 339 339 336 334 332 333 327 327 327 329 329 329 329 330 323 326 327 331
313 314 314 331 338 342 342 342 340 339 338 338 338 339 339 340 339 338 338 339 338 336 331 339 340 339 338 336 334 329 332 329 324 327 329 329 330 331 335 330 327 328 330
309 309 309 309 313 327 339 340 340 340 339 339 338 338 337 338 339 338 337 338 338 337 337 334 338 338 338 337 334 331 328 328 325 325 329 329 329 331 336 335 329 332 332
307 307 308 308 309 309 311 327 337 339 340 339 339 339 338 338 338 339 338 338 337 337 337 337 335 336 338 338 337 332 329 327 323 321 328 328 329 330 336 335 333 332 332
308 309 309 309 309 309 309 309 311 323 337 340 340 339 338 338 338 338 337 338 337 336 337 337 336 335 336 338 337 336 329 326 321 318 324 328 328 330 336 336 334 332 332
311 312 312 311 310 309 309 309 309 310 312 327 337 339 340 338 337 337 337 337 336 337 337 336 336 336 336 336 337 337 332 326 322 322 321 324 328 329 334 337 336 334 332
314 315 315 315 315 313 311 310 310 310 310 310 314 325 334 338 338 336 335 336 336 336 336 336 336 335 336 337 337 337 336 330 326 324 325 324 323 327 331 334 337 334 333
313 314 313 313 313 314 314 314 313 311 310 310 310 310 317 327 334 338 337 337 336 335 335 334 334 335 336 336 336 337 337 335 332 328 325 325 326 326 326 334 333 335 333
312 311 312 311 311 311 311 311 312 314 314 312 310 310 310 313 323 328 334 336 336 335 336 336 335 335 337 336 335 335 336 336 335 334 332 330 330 327 329 332 334 334 336
310 310 310 311 311 311 311 311 310 310 312 315 315 311 310 310 310 318 323 326 333 335 334 334 336 336 336 336 336 336 335 335 336 335 334 333 332 331 326 328 332 335 336
308 308 308 309 310 310 310 311 311 311 310 313 315 315 312 310 310 310 320 321 322 329 333 332 333 334 334 336 335 335 335 335 335 335 334 333 333 333 331 329 329 331 334
307 307 308 308 309 309 310 311 311 312 312 313 315 315 314 312 310 310 312 315 320 325 328 331 331 332 334 334 335 335 334 334 334 334 333 333 333 333 333 332 329 329 330
306 306 307 307 308 309 310 310 310 312 312 315 317 317 316 312 311 312 317 323 323 325 329 330 329 330 332 333 333 333 332 331 331 332 332 333 333 331 328 329 325 323 328
306 306 306 306 306 308 309 310 310 311 313 314 315 317 318 320 321 320 321 322 323 325 327 328 329 329 329 330 331 330 330 331 330 329 329 328 328 328 328 327 327 328 330
306 306 306 306 306 307 309 310 310 311 312 312 313 313 315 316 317 318 318 319 320 322 323 325 326 327 326 327 328 328 329 329 328 328 327 326 326 325 325 325 323 323 323
305 304 304 304 304 305 308 308 310 311 311 312 311 311 313 312 314 314 316 316 319 320 319 319 323 323 324 320 324 326 326 326 325 324 323 323 323 323 323 324 324 325 324
303 303 302 302 301 303 306 308 309 310 309 310 309 309 309 308 310 312 314 313 314 313 314 316 317 318 318 317 318 321 321 319 320 320 319 320 320 320 322 322 322 322 323
303 302 301 300 299 301 305 307 309 308 307 306 306 306 304 306 306 306 307 309 310 311 309 309 310 312 314 314 316 318 320 321 316 317 317 317 319 319 319 320 321 322 322
302 301 299 298 297 297 301 302 304 303 302 299 298 296 295 297 299 298 298 297 298 300 302 305 307 307 309 308 311 310 311 312 316 317 317 314 313 312 311 311 313 319 323
302 301 298 296 296 296 296 297 297 296 296 295 294 294 294 294 294 294 295 295 296 296 297 297 297 298 302 304 304 305 307 308 310 309 312 310 308 308 308 308 310 315 317
303 301 299 297 296 295 294 295 295 295 295 294 294 294 293 293 293 293 293 293 293 294 294 295 296 296 296 296 296 297 301 305 305 303 305 306 306 304 304 307 312 313 309